[[{"header":{"parameterUnit":"m.s-1","parameterCategory":1,"la1":30.6,"la2":29.2853,"lo1":-89.7004,"lo2":-87.6739,"dy":0.0162,"dx":0.0183,"nx":112,"ny":82,"refTime":"2024-05-27T06:00:00:Z","depth":0,"parameterNumber":2,"parameterNumberName":"U-component_of_WINDS"},"data":[0.0,0.0,0.0,0.0,0.0,0.0,0.0,0.0,0.0,0.0,0.0,0.0,0.0,0.0,0.0,0.0,0.0,0.0,0.0,0.0,0.0,0.0,0.0,0.0,0.0,0.0,0.0,0.0,0.0,0.0,0.0,0.0,0.0,0.0,0.0,0.0,0.0,0.0,0.0,0.0,0.0,0.0,0.0,0.0,0.0,0.0,0.0,0.0,0.0,0.0,0.0,0.0,0.0,0.0,0.0,0.0,0.0,0.0,0.0,0.0,0.0,0.0,0.0,0.0,0.0,0.0,0.0,0.0,0.0,0.0,0.0,0.0,0.0,0.0,0.0,0.0,0.0,0.0,0.0,0.0,0.0,0.0,0.0,0.0,0.0,0.0,0.0,0.0,0.0,0.0,-1.1897,-1.2501,-1.1353,-1.0899,-1.1776,-1.0132,-0.9134,-0.9301,0.0,0.0,0.0,0.0,0.0,0.0,0.0,0.0,0.0,0.0,0.0,0.0,0.0,0.0,0.0,0.0,0.0,0.0,0.0,0.0,0.0,0.0,0.0,0.0,0.0,0.0,0.0,0.0,0.0,0.0,0.0,0.0,0.0,0.0,0.0,0.0,0.0,0.0,0.0,0.0,0.0,0.0,0.0,0.0,0.0,0.0,0.0,0.0,0.0,0.0,0.0,0.0,0.0,0.0,0.0,0.0,0.0,0.0,0.0,0.0,0.0,0.0,0.0,0.0,0.0,0.0,0.0,0.0,0.0,0.0,0.0,0.0,0.0,0.0,0.0,0.0,0.0,0.0,0.0,0.0,0.0,0.0,0.0,0.0,0.0,0.0,0.0,0.0,0.0,0.0,0.0,0.0,0.0,0.0,0.0,0.0,0.0,0.0,0.0,0.0,0.0,0.0,0.0,0.0,-1.25,-1.2877,-1.2706,-1.2196,-1.1242,-1.0833,-1.0432,-0.9914,0.0,0.0,0.0,0.0,0.0,0.0,0.0,0.0,0.0,0.0,0.0,0.0,0.0,0.0,0.0,0.0,0.0,0.0,0.0,0.0,0.0,0.0,0.0,0.0,0.0,0.0,0.0,0.0,0.0,0.0,0.0,0.0,0.0,0.0,0.0,0.0,0.0,0.0,0.0,0.0,0.0,0.0,0.0,0.0,0.0,0.0,0.0,0.0,0.0,0.0,0.0,0.0,0.0,0.0,0.0,0.0,0.0,0.0,0.0,0.0,0.0,0.0,0.0,0.0,0.0,0.0,0.0,0.0,0.0,0.0,0.0,0.0,0.0,0.0,0.0,0.0,0.0,0.0,0.0,0.0,0.0,0.0,0.0,0.0,0.0,0.0,0.0,0.0,0.0,0.0,0.0,0.0,0.0,0.0,0.0,0.0,0.0,0.0,0.0,0.0,0.0,0.0,0.0,-1.2802,-1.3102,-1.325,-1.2819,-1.2401,-1.2108,-1.1115,-1.0625,-1.0843,-0.9699,0.0,0.0,0.0,0.0,0.0,0.0,0.0,0.0,0.0,0.0,0.0,0.0,0.0,0.0,0.0,0.0,0.0,0.0,0.0,0.0,0.0,0.0,0.0,0.0,0.0,0.0,0.0,0.0,0.0,0.0,0.0,0.0,0.0,0.0,0.0,0.0,0.0,0.0,0.0,0.0,0.0,0.0,0.0,0.0,0.0,0.0,0.0,0.0,0.0,0.0,0.0,0.0,0.0,0.0,0.0,0.0,0.0,0.0,0.0,0.0,0.0,0.0,0.0,0.0,0.0,0.0,0.0,0.0,0.0,0.0,0.0,0.0,0.0,0.0,0.0,0.0,0.0,0.0,0.0,0.0,0.0,0.0,0.0,0.0,0.0,0.0,0.0,0.0,0.0,0.0,0.0,0.0,0.0,0.0,0.0,0.0,0.0,0.0,0.0,0.0,0.0,0.0,-1.3039,-1.3321,-1.348,-1.2784,-1.2455,-1.2856,-1.1301,-1.0709,-1.1646,-1.0509,0.0,0.0,0.0,0.0,0.0,0.0,0.0,0.0,0.0,0.0,0.0,0.0,0.0,0.0,0.0,0.0,0.0,0.0,0.0,0.0,0.0,0.0,0.0,0.0,0.0,0.0,0.0,0.0,0.0,0.0,0.0,0.0,0.0,0.0,0.0,0.0,0.0,0.0,0.0,0.0,0.0,0.0,0.0,0.0,0.0,0.0,0.0,0.0,0.0,0.0,0.0,0.0,0.0,0.0,0.0,0.0,0.0,0.0,0.0,0.0,0.0,0.0,0.0,0.0,0.0,0.0,0.0,0.0,0.0,0.0,0.0,0.0,0.0,0.0,0.0,0.0,0.0,0.0,0.0,0.0,0.0,0.0,0.0,0.0,0.0,0.0,0.0,0.0,0.0,0.0,0.0,0.0,0.0,0.0,0.0,0.0,0.0,0.0,0.0,0.0,0.0,0.0,-1.2917,-1.2826,-1.342,-1.3156,-1.2835,-1.257,-1.1556,-1.1227,-1.1929,-1.0936,0.0,0.0,0.0,0.0,0.0,0.0,0.0,0.0,0.0,0.0,0.0,0.0,0.0,0.0,0.0,0.0,0.0,0.0,0.0,0.0,0.0,0.0,0.0,0.0,0.0,0.0,0.0,0.0,0.0,0.0,0.0,0.0,0.0,0.0,0.0,0.0,0.0,0.0,0.0,0.0,0.0,0.0,0.0,0.0,0.0,0.0,0.0,0.0,0.0,0.0,0.0,0.0,0.0,0.0,0.0,0.0,0.0,0.0,0.0,0.0,0.0,0.0,0.0,0.0,0.0,0.0,0.0,0.0,0.0,0.0,0.0,0.0,0.0,0.0,0.0,0.0,0.0,0.0,0.0,0.0,0.0,0.0,0.0,0.0,0.0,0.0,0.0,0.0,0.0,0.0,0.0,0.0,0.0,0.0,0.0,0.0,0.0,0.0,0.0,0.0,0.0,0.0,-1.2289,-1.2135,0.0,-1.2764,-1.2468,-1.1904,-1.153,-1.1585,-1.2261,0.0,0.0,0.0,0.0,0.0,0.0,0.0,0.0,0.0,0.0,0.0,0.0,0.0,0.0,0.0,0.0,0.0,0.0,0.0,0.0,0.0,0.0,0.0,0.0,0.0,0.0,0.0,0.0,0.0,0.0,0.0,0.0,0.0,0.0,0.0,0.0,0.0,0.0,0.0,0.0,0.0,0.0,0.0,0.0,0.0,0.0,0.0,0.0,0.0,0.0,0.0,0.0,0.0,0.0,0.0,0.0,0.0,0.0,0.0,0.0,0.0,0.0,0.0,0.0,0.0,0.0,0.0,0.0,0.0,0.0,0.0,0.0,0.0,0.0,0.0,0.0,0.0,0.0,0.0,0.0,0.0,0.0,0.0,0.0,0.0,0.0,0.0,0.0,0.0,0.0,0.0,0.0,0.0,0.0,0.0,0.0,0.0,0.0,0.0,0.0,0.0,0.0,-1.2035,-1.1609,-1.143,0.0,-1.2166,-1.2012,-1.154,-1.1298,-1.1418,-1.2011,0.0,0.0,0.0,0.0,0.0,0.0,0.0,0.0,0.0,0.0,0.0,0.0,0.0,0.0,0.0,0.0,0.0,0.0,0.0,0.0,0.0,0.0,0.0,0.0,0.0,0.0,0.0,0.0,0.0,0.0,0.0,0.0,0.0,0.0,0.0,0.0,0.0,0.0,0.0,0.0,0.0,0.0,0.0,0.0,0.0,0.0,0.0,0.0,0.0,0.0,0.0,0.0,0.0,0.0,0.0,0.0,0.0,0.0,0.0,0.0,0.0,0.0,0.0,0.0,0.0,0.0,0.0,0.0,0.0,0.0,0.0,0.0,0.0,0.0,0.0,0.0,0.0,0.0,0.0,0.0,0.0,0.0,0.0,0.0,0.0,0.0,0.0,0.0,0.0,0.0,0.0,0.0,0.0,0.0,0.0,0.0,0.0,0.0,0.0,0.0,0.0,0.0,-1.1379,-1.0912,-1.0762,-1.1423,-1.1485,-1.1485,-1.1485,-1.0881,-1.0664,0.0,0.0,0.0,0.0,0.0,0.0,0.0,0.0,0.0,0.0,0.0,0.0,0.0,0.0,0.0,0.0,0.0,0.0,0.0,0.0,0.0,0.0,0.0,0.0,0.0,0.0,0.0,0.0,0.0,0.0,0.0,0.0,0.0,0.0,0.0,0.0,0.0,0.0,0.0,0.0,0.0,0.0,0.0,0.0,0.0,0.0,0.0,0.0,0.0,0.0,0.0,0.0,0.0,0.0,0.0,0.0,0.0,0.0,0.0,0.0,0.0,0.0,0.0,0.0,0.0,0.0,0.0,0.0,0.0,0.0,0.0,0.0,0.0,0.0,0.0,0.0,0.0,0.0,0.0,0.0,0.0,0.0,0.0,0.0,0.0,0.0,0.0,0.0,0.0,0.0,0.0,0.0,0.0,0.0,0.0,0.0,0.0,0.0,0.0,0.0,0.0,0.0,0.0,-1.0658,-1.0199,-1.0047,-1.0724,-1.0787,-1.0604,-1.0136,-1.0326,-1.0477,-1.0402,0.0,0.0,0.0,0.0,0.0,0.0,0.0,0.0,0.0,0.0,0.0,0.0,0.0,0.0,0.0,0.0,0.0,0.0,0.0,0.0,0.0,0.0,0.0,0.0,0.0,0.0,0.0,0.0,0.0,0.0,0.0,0.0,0.0,0.0,0.0,0.0,0.0,0.0,0.0,0.0,0.0,0.0,0.0,0.0,0.0,0.0,0.0,0.0,0.0,0.0,0.0,0.0,0.0,0.0,0.0,0.0,0.0,0.0,0.0,0.0,0.0,0.0,0.0,0.0,0.0,0.0,0.0,0.0,0.0,0.0,0.0,0.0,0.0,0.0,0.0,0.0,0.0,0.0,0.0,0.0,0.0,0.0,0.0,0.0,0.0,0.0,0.0,0.0,0.0,0.0,0.0,0.0,0.0,0.0,0.0,0.0,0.0,0.0,0.0,0.0,0.0,0.0,-0.9862,-0.9698,-0.9638,-1.0047,-1.011,-0.9951,-0.9548,-0.9862,-0.9938,-0.9558,0.0,0.0,0.0,0.0,0.0,0.0,0.0,0.0,0.0,0.0,0.0,0.0,0.0,0.0,0.0,0.0,0.0,0.0,0.0,0.0,0.0,0.0,0.0,0.0,0.0,0.0,0.0,0.0,0.0,0.0,0.0,0.0,0.0,0.0,0.0,0.0,0.0,0.0,0.0,0.0,0.0,0.0,0.0,0.0,0.0,0.0,0.0,0.0,0.0,0.0,0.0,0.0,0.0,0.0,0.0,0.0,0.0,0.0,0.0,0.0,0.0,0.0,0.0,0.0,0.0,0.0,0.0,0.0,0.0,0.0,0.0,0.0,0.0,0.0,0.0,0.0,0.0,0.0,0.0,0.0,0.0,0.0,0.0,0.0,0.0,0.0,0.0,0.0,0.0,0.0,0.0,0.0,0.0,0.0,0.0,0.0,0.0,0.0,0.0,0.0,0.0,0.0,-0.9101,-0.936,-0.9516,-0.9516,-0.9516,-0.9516,-0.9516,-0.9516,-0.9281,-0.874,0.0,0.0,0.0,0.0,0.0,0.0,0.0,0.0,0.0,0.0,0.0,0.0,0.0,0.0,0.0,0.0,0.0,0.0,0.0,0.0,0.0,0.0,0.0,0.0,0.0,0.0,0.0,0.0,0.0,0.0,0.0,0.0,0.0,0.0,0.0,0.0,0.0,0.0,0.0,0.0,0.0,0.0,0.0,0.0,0.0,0.0,0.0,0.0,0.0,0.0,0.0,0.0,0.0,0.0,0.0,0.0,0.0,0.0,0.0,0.0,-1.1331,0.0,0.0,0.0,0.0,0.0,0.0,0.0,0.0,0.0,0.0,0.0,0.0,0.0,0.0,0.0,0.0,0.0,0.0,0.0,0.0,0.0,0.0,0.0,0.0,0.0,0.0,0.0,0.0,0.0,0.0,0.0,0.0,0.0,0.0,0.0,0.0,0.0,0.0,0.0,0.0,0.0,-0.939,-0.948,-0.9516,-0.9516,-0.9516,-0.9516,-0.9516,-0.9516,-0.9281,-0.874,-0.871,0.0,0.0,0.0,0.0,0.0,0.0,0.0,0.0,0.0,0.0,0.0,0.0,0.0,0.0,0.0,0.0,0.0,0.0,0.0,0.0,0.0,0.0,0.0,0.0,0.0,0.0,0.0,0.0,0.0,0.0,0.0,0.0,0.0,0.0,0.0,0.0,0.0,0.0,0.0,0.0,0.0,0.0,0.0,0.0,0.0,0.0,0.0,0.0,0.0,0.0,0.0,0.0,0.0,0.0,0.0,0.0,0.0,0.0,0.0,0.0,-1.0716,0.0,0.0,0.0,0.0,0.0,0.0,0.0,0.0,0.0,0.0,0.0,0.0,0.0,0.0,0.0,0.0,0.0,0.0,0.0,0.0,0.0,0.0,0.0,0.0,0.0,0.0,0.0,0.0,0.0,0.0,0.0,0.0,0.0,0.0,0.0,0.0,0.0,0.0,0.0,0.0,-0.9293,-0.9432,-0.9516,-0.9516,-0.9516,-0.9516,-0.9516,-0.9396,-0.9143,-0.8734,-0.859,0.0,0.0,0.0,0.0,0.0,0.0,0.0,0.0,0.0,0.0,0.0,0.0,0.0,0.0,0.0,0.0,0.0,0.0,0.0,0.0,0.0,0.0,0.0,0.0,0.0,0.0,0.0,0.0,0.0,0.0,0.0,0.0,0.0,0.0,0.0,0.0,0.0,0.0,0.0,0.0,0.0,0.0,0.0,0.0,0.0,0.0,0.0,0.0,0.0,0.0,0.0,0.0,0.0,-1.1682,-1.1298,-1.1256,-1.1256,-1.1256,-1.1226,-1.061,-1.0491,-1.0725,-1.034,0.0,0.0,0.0,0.0,0.0,0.0,0.0,0.0,0.0,0.0,0.0,0.0,0.0,0.0,0.0,0.0,0.0,0.0,0.0,0.0,0.0,0.0,0.0,0.0,-0.7744,-0.8053,-0.9019,0.0,0.0,0.0,0.0,0.0,0.0,0.0,0.0,0.0,0.0,0.0,-0.9007,-0.9176,-0.9382,-0.9484,-0.9382,-0.9318,-0.9318,-0.907,-0.8805,-0.8546,-0.8372,-0.8134,0.0,0.0,0.0,0.0,0.0,0.0,0.0,0.0,0.0,0.0,0.0,0.0,0.0,0.0,0.0,0.0,0.0,0.0,0.0,0.0,0.0,0.0,0.0,0.0,0.0,0.0,0.0,0.0,0.0,0.0,0.0,0.0,-1.1444,-1.2862,0.0,0.0,0.0,0.0,0.0,0.0,0.0,0.0,0.0,0.0,0.0,0.0,0.0,-1.3145,-1.144,-1.2338,-1.2408,-1.165,-1.1996,-1.2035,-1.1778,-1.1778,-1.1778,-1.1732,-1.0846,0.0,-1.1069,-1.1212,0.0,0.0,0.0,0.0,0.0,0.0,0.0,0.0,0.0,0.0,0.0,0.0,0.0,0.0,0.0,0.0,0.0,0.0,0.0,0.0,0.0,0.0,-0.6452,-0.6905,-0.7166,-0.7443,0.0,-0.8168,-0.813,-0.7764,-0.765,0.0,0.0,0.0,0.0,0.0,0.0,0.0,-0.857,-0.8597,-0.885,-0.9446,-0.8985,-0.8619,-0.8619,-0.8369,-0.8104,-0.7836,-0.8115,-0.8009,-0.7403,-0.7269,0.0,0.0,0.0,0.0,0.0,0.0,0.0,0.0,0.0,0.0,0.0,0.0,0.0,0.0,0.0,0.0,0.0,0.0,0.0,0.0,0.0,0.0,0.0,0.0,0.0,0.0,0.0,0.0,0.0,-1.1205,-1.1583,-1.2822,-1.2324,-1.196,0.0,0.0,0.0,0.0,0.0,0.0,0.0,0.0,0.0,-1.075,-1.1169,-1.112,-1.0471,-1.1145,-1.1241,-1.0768,-1.101,-1.0984,-1.0794,-1.0794,-1.0794,-1.0753,-1.0327,-1.0258,-1.038,-1.0068,-0.9852,-0.9743,0.0,0.0,0.0,0.0,-0.8895,-0.8591,-0.8075,-0.7817,-0.7626,-0.7437,0.0,0.0,0.0,0.0,0.0,0.0,0.0,0.0,0.0,0.0,-0.6622,-0.6578,-0.6636,-0.6742,-0.6966,-0.6984,-0.7159,0.0,-0.7813,-0.7891,-0.7965,0.0,0.0,0.0,0.0,-0.7914,-0.8034,-0.7949,-0.8004,-0.8301,-0.8069,-0.7874,-0.7874,-0.7675,-0.7429,-0.7205,-0.7693,-0.7603,-0.6834,-0.7206,-0.7234,0.0,0.0,0.0,0.0,0.0,0.0,0.0,0.0,0.0,0.0,0.0,0.0,0.0,0.0,0.0,0.0,0.0,0.0,0.0,0.0,0.0,0.0,0.0,0.0,0.0,0.0,0.0,0.0,-1.1725,-1.1531,-1.2661,-1.1924,-1.1437,0.0,0.0,0.0,0.0,0.0,0.0,-0.948,-0.9216,-0.915,-0.9363,-0.9571,-0.9798,-1.0089,-1.0297,-1.0342,-1.0234,-1.0234,-1.015,-1.0044,-1.0044,-1.0011,-0.9964,-0.974,-0.9581,-0.9495,-0.9087,-0.8921,-0.8863,-0.8613,-0.8492,-0.851,-0.8511,-0.8352,-0.8147,-0.7752,-0.7479,-0.7268,-0.7137,-0.7088,-0.713,-0.7651,0.0,0.0,0.0,0.0,-0.7648,-0.7054,-0.6903,-0.6787,-0.6384,-0.63,-0.63,-0.63,-0.63,-0.6534,0.0,-0.7619,-0.7661,-0.7582,0.0,0.0,0.0,0.0,-0.7328,-0.7473,-0.7319,-0.7263,-0.7461,-0.7283,-0.7153,-0.7153,-0.6944,-0.6768,-0.6614,-0.7131,-0.7111,-0.6334,-0.6899,-0.6933,-0.6305,0.0,0.0,0.0,0.0,0.0,0.0,0.0,0.0,0.0,0.0,0.0,0.0,0.0,0.0,0.0,0.0,0.0,0.0,0.0,0.0,0.0,0.0,0.0,0.0,0.0,0.0,0.0,0.0,0.0,-1.2512,-1.1162,0.0,0.0,0.0,0.0,-1.0038,-1.0164,-1.0393,-1.07,-1.0475,-1.0338,-1.0315,-1.0324,-1.0338,-1.0362,-1.0371,-1.0417,-1.0408,-1.0408,-1.0403,-1.0389,-1.0389,-1.0327,-1.014,-0.9238,-0.8739,-0.8611,-0.9215,-0.9461,-0.9443,-0.9155,-0.9077,-0.8955,-0.8237,-0.7947,-0.782,-0.7022,-0.6736,-0.6706,-0.6592,-0.6448,-0.6514,-0.7269,-0.7512,0.0,0.0,-0.7413,-0.7341,-0.6553,-0.6325,-0.6328,-0.63,-0.63,-0.63,-0.63,-0.63,-0.6335,0.0,-0.6239,-0.6318,-0.6995,0.0,-0.6936,-0.6936,-0.6928,-0.6924,-0.6932,-0.6773,-0.6894,-0.7599,-0.693,-0.6465,-0.6465,-0.6205,-0.6037,-0.6029,-0.648,-0.6545,-0.6041,-0.5953,-0.5941,-0.6013,-0.5783,0.0,0.0,0.0,0.0,0.0,0.0,0.0,0.0,0.0,0.0,0.0,0.0,0.0,0.0,0.0,0.0,0.0,0.0,0.0,0.0,0.0,0.0,0.0,0.0,0.0,0.0,0.0,0.0,-1.2004,-1.1069,0.0,-1.0913,-1.0377,-0.9946,-0.9802,-0.9339,-0.9057,-0.8987,-0.8897,-0.8804,-0.8724,-0.8728,-0.8781,-0.8844,-0.8844,-0.879,-0.8728,-0.8728,-0.8674,-0.8621,-0.8621,-0.8586,-0.8529,-0.8158,-0.7929,-0.7822,-0.8027,-0.8069,-0.7957,-0.7857,-0.7834,-0.7791,-0.7494,-0.7365,-0.7325,-0.7066,-0.694,-0.6916,-0.6814,-0.6664,-0.6593,-0.6889,-0.6986,-0.6983,-0.6939,-0.6867,-0.6788,-0.6515,-0.6368,-0.63,-0.63,-0.63,-0.63,-0.63,-0.63,-0.63,-0.63,-0.6255,-0.6222,-0.6376,-0.6352,-0.6316,-0.6316,-0.6263,-0.6234,-0.6302,-0.6172,-0.6177,-0.6456,-0.6138,-0.5875,-0.5875,-0.5727,-0.556,-0.542,-0.6117,-0.6185,-0.5445,-0.5927,-0.593,-0.5445,-0.5333,-0.5656,0.0,0.0,0.0,0.0,0.0,0.0,0.0,0.0,0.0,0.0,0.0,0.0,0.0,0.0,0.0,0.0,0.0,0.0,0.0,0.0,0.0,0.0,0.0,0.0,0.0,0.0,-1.0235,-1.1293,-1.0611,-1.0145,-1.0453,-1.0029,-0.9673,-0.9456,-0.8785,-0.8365,-0.8269,-0.8078,-0.798,-0.7885,-0.7889,-0.7887,-0.7988,-0.7988,-0.7938,-0.7889,-0.7889,-0.7838,-0.7746,-0.7746,-0.7719,-0.7672,-0.7672,-0.7587,-0.7444,-0.7439,-0.7312,-0.7214,-0.7115,-0.7095,-0.7095,-0.7095,-0.7095,-0.7095,-0.7095,-0.7065,-0.7018,-0.697,-0.6856,-0.6787,-0.6834,-0.6814,-0.6776,-0.6776,-0.6668,-0.6549,-0.6549,-0.6518,-0.645,-0.645,-0.6409,-0.6371,-0.6371,-0.6371,-0.6371,-0.6371,-0.6334,-0.6269,-0.6125,-0.6108,-0.6108,-0.6108,-0.602,-0.5993,-0.6095,-0.5973,-0.5878,-0.5878,-0.5749,-0.564,-0.5593,-0.5532,-0.5405,-0.5216,-0.5756,-0.5796,-0.5213,-0.5759,-0.5796,-0.5209,-0.5127,-0.547,-0.6189,0.0,0.0,0.0,0.0,0.0,0.0,0.0,0.0,0.0,0.0,0.0,0.0,0.0,0.0,0.0,0.0,0.0,0.0,0.0,0.0,0.0,0.0,0.0,-1.088,-1.0715,-1.0477,-1.0491,-0.9668,-0.9015,-0.8773,-0.8926,-0.9031,-0.9031,-0.8641,-0.8531,-0.8775,-0.8287,-0.7988,-0.7988,-0.7988,-0.7988,-0.7988,-0.7988,-0.7988,-0.7988,-0.7988,-0.7988,-0.7988,-0.7988,-0.7911,-0.7818,-0.7818,-0.7736,-0.7594,-0.7441,-0.7419,-0.7402,-0.72,-0.7095,-0.7095,-0.7095,-0.7095,-0.7095,-0.7095,-0.7007,-0.6916,-0.7051,-0.7004,-0.6916,-0.7055,-0.7001,-0.6893,-0.6893,-0.6824,-0.6709,-0.6709,-0.6705,-0.6702,-0.6702,-0.6583,-0.6511,-0.6511,-0.6511,-0.6511,-0.6511,-0.6405,-0.6313,-0.6313,-0.631,-0.6306,-0.6306,-0.6303,0.0,-0.63,-0.6129,-0.6,-0.6,-0.5898,-0.5752,-0.5613,-0.5596,-0.5562,-0.5412,-0.5399,-0.5395,-0.5395,-0.5399,-0.5402,-0.5402,-0.5209,-0.5366,-0.5812,0.0,0.0,0.0,0.0,0.0,0.0,0.0,0.0,0.0,0.0,0.0,0.0,0.0,0.0,0.0,0.0,0.0,0.0,0.0,0.0,0.0,0.0,-0.9541,-0.9817,-0.9664,-0.9566,-0.9833,-0.9628,-0.9433,-0.9381,-0.9425,-0.9457,-0.9457,-0.9156,-0.8931,-0.8825,-0.8482,-0.8187,-0.7988,-0.7988,-0.7988,-0.7988,-0.7988,-0.7988,-0.7988,-0.7988,-0.7988,-0.7988,-0.7988,-0.7968,-0.7928,-0.7928,-0.7892,-0.7743,-0.7597,-0.7472,-0.7402,-0.72,-0.7095,-0.7095,-0.7095,-0.7095,-0.7095,-0.7095,-0.7071,-0.7045,-0.7085,-0.7068,-0.7045,-0.7085,-0.7068,-0.7038,-0.7038,-0.6933,-0.6865,-0.6865,-0.6783,-0.6702,-0.6702,-0.6583,-0.6511,-0.6511,-0.6511,-0.6511,-0.6511,-0.6529,-0.658,-0.658,-0.6528,-0.6453,-0.6453,-0.6364,0.0,-0.63,-0.6262,-0.6235,-0.6235,-0.6057,-0.5912,-0.5875,-0.5711,-0.5572,-0.5532,-0.5457,-0.5395,-0.5395,-0.5501,-0.5562,-0.5562,-0.5686,-0.5829,0.0,0.0,0.0,0.0,0.0,0.0,0.0,0.0,0.0,0.0,0.0,0.0,0.0,0.0,0.0,0.0,0.0,0.0,0.0,0.0,0.0,0.0,-0.9427,-0.9429,-0.9458,-0.938,-0.9397,-0.9554,-0.9579,-0.9579,-0.9579,-0.9579,-0.9579,-0.9579,-0.9229,-0.8977,-0.8825,-0.8432,-0.8137,-0.7988,-0.7988,-0.7988,-0.7988,-0.7988,-0.7988,-0.7988,-0.7988,-0.7988,-0.7988,-0.7988,-0.7988,-0.7988,-0.7988,-0.7938,-0.7896,-0.775,-0.7634,0.0,0.0,0.0,0.0,0.0,-0.7095,-0.7095,-0.7095,-0.7095,-0.7095,-0.7095,-0.7095,-0.7095,-0.7095,-0.7095,-0.7095,-0.7095,-0.7038,-0.6974,-0.6974,-0.6648,-0.6272,-0.6298,-0.5844,-0.5447,-0.5433,-0.5462,-0.5461,-0.5461,-0.5602,0.0,-0.5681,-0.5823,-0.595,-0.5867,-0.5795,-0.5906,-0.6261,-0.63,-0.63,-0.63,-0.6179,-0.6101,-0.5996,-0.5874,0.0,0.0,0.0,-0.5579,-0.5579,-0.563,0.0,0.0,0.0,0.0,0.0,0.0,0.0,0.0,-0.6852,-0.7179,0.0,0.0,0.0,0.0,0.0,0.0,0.0,0.0,0.0,0.0,0.0,0.0,0.0,0.0,0.0,0.0,-0.9271,-0.9441,-0.9604,-0.9579,-0.9579,-0.9579,-0.9579,-0.9579,-0.9579,-0.9579,-0.9579,-0.9579,-0.9126,-0.8825,-0.8825,0.0,0.0,0.0,0.0,-0.8038,-0.8088,-0.8038,-0.8038,-0.8038,-0.7992,-0.7988,-0.7988,-0.7988,-0.7988,-0.7988,-0.7988,-0.7988,-0.7978,-0.7875,-0.779,-0.7723,-0.7277,-0.7112,-0.7095,-0.7095,-0.7095,-0.7095,-0.7095,0.0,0.0,-0.7095,-0.7095,-0.7095,-0.7095,-0.7095,-0.7095,-0.7095,-0.7007,-0.6962,-0.6962,-0.6251,-0.5559,-0.554,-0.4735,-0.4004,-0.4003,-0.4002,-0.401,-0.401,-0.4153,-0.4273,-0.414,-0.4671,-0.5016,-0.4922,-0.4862,-0.5176,-0.6025,-0.6064,-0.6064,-0.6141,0.0,0.0,-0.5914,-0.5962,-0.5936,-0.5837,-0.581,-0.581,-0.5827,-0.581,-0.581,-0.5827,-0.581,-0.58,-0.58,-0.582,-0.5827,-0.5863,-0.726,-0.7584,0.0,0.0,0.0,0.0,0.0,0.0,0.0,0.0,0.0,0.0,0.0,0.0,0.0,0.0,0.0,-0.9362,-0.9458,-0.9587,-0.9575,-0.9579,-0.9579,-0.9579,-0.9579,-0.9579,-0.9579,-0.9579,-0.9579,-0.9579,-0.9126,-0.8825,-0.8825,-0.8283,-0.8088,-0.8333,-0.8333,-0.8432,-0.8627,-0.8432,-0.8333,-0.8333,0.0,0.0,-0.7988,-0.7988,-0.7988,-0.7988,-0.7988,-0.7988,-0.7978,-0.7875,-0.7672,-0.7448,-0.736,-0.7251,-0.7095,-0.7095,-0.7095,-0.7095,-0.7095,-0.7095,-0.7095,-0.7095,-0.7095,-0.7095,-0.7095,-0.7095,0.0,-0.7095,-0.6564,-0.5985,-0.5985,-0.527,-0.4552,-0.4577,-0.4271,-0.402,-0.4001,-0.3998,-0.3997,-0.3997,-0.4101,-0.3962,-0.3227,-0.3755,-0.4297,-0.422,-0.4085,-0.4314,-0.5135,-0.4691,-0.4533,-0.5198,-0.5237,-0.5229,-0.5203,-0.5679,-0.5979,-0.5949,-0.5871,-0.5857,-0.5942,-0.5867,-0.5861,-0.5946,-0.5864,-0.58,-0.58,-0.5925,-0.5949,-0.5983,-0.6179,-0.6263,0.0,0.0,0.0,0.0,0.0,0.0,0.0,0.0,0.0,0.0,0.0,-1.0667,0.0,0.0,-0.9806,-0.9559,-0.9567,-0.9579,-0.9579,-0.9579,-0.9579,-0.9579,-0.9579,-0.9579,-0.9579,-0.9579,-0.9579,-0.9579,-0.9229,-0.8981,-0.8981,-0.863,-0.8482,-0.8577,-0.8577,-0.8676,-0.8775,-0.8531,-0.8382,-0.8382,-0.7587,-0.7188,-0.7188,-0.7188,-0.7188,-0.7238,-0.7789,-0.7988,-0.7985,-0.7907,-0.7794,-0.7584,-0.7512,-0.7343,-0.7095,-0.7095,-0.7095,-0.7095,-0.7095,-0.7095,-0.7095,-0.7095,-0.7095,-0.7007,-0.6564,-0.6384,-0.6296,-0.5847,-0.5359,-0.5003,-0.5003,-0.4291,-0.357,-0.3574,-0.312,-0.268,-0.2653,-0.2665,-0.2651,-0.268,-0.2733,-0.2653,-0.2201,-0.2469,-0.2877,-0.3246,-0.3249,-0.3494,-0.4314,-0.4066,-0.3949,-0.4338,-0.4416,-0.4416,-0.4416,-0.5062,-0.5682,-0.6107,-0.6074,-0.6067,-0.6142,-0.6071,-0.6067,-0.6142,-0.6071,-0.6067,-0.6067,-0.6108,-0.6146,-0.6142,-0.6067,-0.6071,0.0,0.0,0.0,0.0,0.0,0.0,0.0,0.0,-1.2016,-1.1478,-1.1235,-1.0999,-1.0706,-1.036,-1.0043,-0.9653,-0.9579,-0.9579,-0.9579,-0.9579,-0.9579,-0.9579,-0.9579,-0.9579,-0.9579,-0.9579,-0.9579,-0.9579,-0.9331,-0.9187,-0.9187,-0.8928,-0.8825,-0.8874,-0.8878,-0.8775,-0.8574,-0.828,-0.8031,-0.7779,-0.6631,-0.6084,-0.6084,-0.6084,-0.6084,-0.6134,-0.7235,-0.7789,-0.7988,-0.7988,-0.7901,-0.7801,-0.7685,-0.7472,-0.7176,-0.7115,-0.7095,-0.7095,-0.7095,-0.7095,-0.7051,-0.6874,-0.683,-0.665,-0.5716,-0.5406,-0.5272,-0.4512,-0.4156,-0.4022,-0.4022,-0.3312,-0.2587,-0.2543,-0.1959,-0.1384,-0.1318,-0.1309,-0.1312,-0.1378,-0.1386,-0.1397,-0.1378,-0.1387,-0.1635,-0.224,-0.2356,-0.2628,-0.3454,-0.3404,-0.3365,-0.3521,-0.356,-0.3599,-0.3791,-0.4377,-0.5082,-0.5786,-0.5828,-0.5867,-0.6025,-0.6064,-0.6141,-0.63,-0.63,-0.63,-0.63,-0.63,-0.63,-0.63,-0.63,-0.63,-1.4655,-1.4389,-1.3673,-1.287,-1.234,-1.2064,0.0,0.0,-1.2218,-1.2526,-1.2219,-1.1729,-1.122,-1.0707,-1.019,-0.9673,-0.9579,-0.9579,-0.9579,-0.9579,-0.9579,-0.9579,-0.9579,-0.9579,-0.9579,-0.9579,-0.9579,-0.9579,-0.9331,-0.9187,-0.9187,-0.8928,-0.8928,-0.9133,-0.9133,-0.8676,-0.7766,-0.7471,-0.6725,-0.5529,-0.5177,-0.4974,-0.4974,-0.4974,-0.4974,-0.5024,-0.6132,-0.7138,-0.7988,-0.7988,-0.7901,-0.7811,-0.7794,-0.7689,-0.7516,-0.7196,-0.7095,-0.7095,-0.7095,-0.7095,-0.6962,-0.6118,-0.5852,-0.5675,-0.4734,-0.4467,-0.4423,-0.4334,-0.3712,-0.3045,-0.3045,-0.233,-0.1569,-0.1565,-0.1498,-0.1389,-0.1386,-0.1323,-0.1307,-0.131,-0.1373,-0.1391,-0.1395,-0.1417,-0.1415,-0.144,-0.1428,-0.1734,-0.2525,-0.2041,-0.1845,-0.2588,-0.2627,-0.2978,-0.3752,-0.3869,-0.3988,-0.4066,-0.4066,-0.4416,-0.5121,-0.516,-0.5512,-0.63,-0.63,-0.63,-0.63,-0.63,-0.63,-0.63,-0.63,-0.63,-1.4326,-1.405,-1.3536,0.0,-1.218,-1.233,-1.2046,-1.2242,-1.2532,-1.2544,-1.2276,-1.1967,-1.1845,-1.1418,-1.0875,0.0,-1.028,-1.0141,-0.969,-0.9579,-0.9579,-0.9579,-0.9268,-0.9191,-0.9537,-0.9579,-0.9579,-0.9579,-0.948,-0.943,-0.943,-0.9327,-0.908,-0.8733,-0.8733,-0.8127,-0.6918,-0.6623,-0.6077,-0.5179,-0.4275,-0.3875,-0.3875,-0.3875,-0.4225,-0.4824,-0.5277,-0.5729,-0.6126,-0.6126,-0.6101,-0.6049,-0.5987,-0.5886,-0.5913,-0.6276,-0.6403,-0.6304,-0.5691,-0.5489,-0.5401,-0.5003,-0.487,-0.4692,-0.3757,-0.3491,-0.3355,-0.2774,-0.2329,-0.2017,-0.2017,-0.1704,-0.1391,-0.1391,-0.1381,-0.1416,-0.1416,-0.1393,-0.1378,-0.1352,-0.1394,-0.1395,-0.1413,-0.1382,-0.1377,-0.1379,-0.1316,-0.1415,-0.1771,-0.1505,-0.1414,-0.1766,-0.1805,-0.2157,-0.2976,-0.3056,-0.3249,-0.3752,-0.3791,-0.3947,-0.43,-0.43,-0.4691,-0.5515,-0.5553,-0.5789,-0.63,-0.63,-0.63,-0.63,-0.63,-0.63,-1.3787,-1.3614,0.0,-1.1999,-1.2197,-1.2549,-1.2097,-1.244,-1.2764,-1.2544,-1.2352,-1.2222,-1.2232,-1.1814,-1.135,-1.085,-1.0692,-1.0408,-0.9771,-0.9697,-0.9697,-0.9697,-0.9054,-0.8794,-0.9326,-0.9122,-0.9014,-0.9009,-0.9183,-0.9198,-0.8992,-0.9199,-0.8927,-0.8084,-0.8122,-0.7466,-0.6077,-0.5727,-0.5179,-0.4427,-0.3274,-0.2773,-0.2773,-0.2773,-0.3324,-0.4375,-0.4375,-0.4524,-0.4824,-0.4824,-0.4824,-0.4768,-0.4707,-0.4634,-0.4712,-0.5027,-0.5298,-0.537,-0.4589,-0.4289,-0.4245,-0.3978,-0.3935,-0.3757,-0.2776,-0.2465,-0.2331,-0.1614,-0.1391,-0.1391,-0.1391,-0.1391,-0.1391,-0.1391,-0.1391,-0.1391,-0.1391,-0.1418,-0.1409,-0.1386,-0.1417,-0.141,-0.1387,-0.1391,-0.1383,-0.1406,-0.1378,-0.1304,-0.1307,-0.1316,-0.1296,-0.1296,-0.1296,-0.1532,-0.2119,-0.2158,-0.2431,-0.3052,-0.3091,-0.3209,-0.3443,-0.3443,-0.3832,-0.4652,-0.4652,-0.4963,-0.5592,-0.5592,-0.5592,-0.5592,-0.5592,-0.5592,-1.3596,0.0,-1.3523,-1.2739,-1.2471,-1.2479,-1.2732,-1.2797,-1.2807,-1.2802,-1.2759,-1.2619,-1.2088,-1.1726,-1.1318,-1.0813,-1.0454,-1.0139,-0.9904,-0.9876,-0.9876,-0.9876,-0.9122,-0.8672,0.0,-0.8017,-0.7476,-0.7555,-0.8093,-0.8142,-0.7517,-0.8197,-0.8187,-0.7241,-0.7357,-0.6749,-0.5229,-0.4728,-0.3776,-0.2471,-0.1919,-0.1667,-0.1667,-0.1667,-0.222,-0.3274,-0.3274,-0.3823,-0.4824,-0.4824,-0.4824,-0.4824,-0.482,-0.477,-0.466,-0.3641,-0.3718,-0.4364,-0.432,-0.4289,-0.4156,-0.3223,-0.2956,-0.2732,-0.1749,-0.1436,-0.1436,-0.1391,-0.1391,-0.1391,-0.1391,-0.1391,-0.1391,-0.1391,-0.1391,-0.1391,-0.1391,-0.139,-0.1389,-0.139,-0.139,-0.1389,-0.1391,-0.1391,-0.139,-0.1389,-0.1408,-0.1368,-0.131,-0.1316,-0.1296,-0.1296,-0.1296,-0.1296,-0.1335,-0.1335,-0.1335,-0.1375,-0.1375,-0.1727,-0.2511,-0.2549,-0.2938,-0.383,-0.383,-0.383,-0.3869,-0.3869,-0.3869,-0.3869,-0.3869,-0.3869,-1.3485,0.0,-1.3171,-1.2468,-1.2478,-1.2667,-1.2797,-1.2813,-1.2813,-1.2813,-1.2813,-1.2807,-1.2761,-1.2788,-1.2537,-1.1564,-1.1472,-1.1212,-1.0246,-0.9546,-0.9179,-0.9179,-0.796,0.0,0.0,0.0,0.0,-0.7524,-0.7706,-0.7723,-0.7458,-0.7721,-0.7495,-0.6624,-0.6581,-0.5926,-0.4568,-0.3906,-0.3177,-0.2371,-0.1869,-0.1617,-0.1617,-0.1617,-0.1818,-0.212,-0.212,-0.2321,-0.2672,-0.2672,-0.2672,-0.2672,-0.2672,-0.2672,-0.2616,-0.2272,-0.2286,-0.2492,-0.2444,-0.2451,-0.2377,-0.2059,-0.195,-0.1838,-0.1524,-0.1391,-0.1391,-0.1391,-0.1391,-0.1391,-0.1391,-0.1391,-0.1391,-0.1391,-0.1391,-0.1391,-0.1391,-0.1391,-0.1391,-0.1391,-0.1391,-0.1391,-0.1391,-0.1391,-0.1391,-0.1391,-0.141,-0.1369,-0.131,-0.1294,-0.1319,-0.1298,-0.1296,-0.1296,-0.1296,-0.1296,-0.1296,-0.1296,-0.1296,-0.1414,-0.1689,-0.1689,-0.2079,-0.2938,-0.2938,-0.321,-0.3791,-0.3791,-0.3791,-0.3791,-0.3791,-0.3785,-1.2848,-1.2871,-1.2781,-1.2233,-1.2456,-1.2813,-1.2813,-1.2813,-1.2813,-1.2813,-1.2813,-1.2856,-1.2958,-1.3034,-1.2812,-1.2164,-1.194,-1.1553,-1.0691,-0.9614,-0.8927,-0.8927,-0.7409,-0.6448,0.0,0.0,0.0,-0.6759,-0.6945,-0.6968,-0.6693,-0.6962,-0.673,-0.5898,-0.5867,-0.5418,-0.4553,-0.3701,-0.2894,-0.212,-0.1768,-0.1617,-0.1617,-0.1617,-0.1617,-0.1617,-0.1617,-0.1617,-0.1617,-0.1617,-0.1617,-0.1617,-0.1617,-0.1617,-0.1614,-0.1595,-0.1588,-0.1582,-0.154,-0.1513,-0.1497,-0.1497,-0.1476,-0.1451,-0.1451,-0.1399,-0.1391,-0.1391,-0.1391,-0.1391,-0.1391,-0.1391,-0.1391,-0.1391,-0.1391,-0.1391,-0.1391,-0.1391,-0.1391,-0.1391,-0.1391,-0.1391,-0.1391,-0.1391,-0.1391,-0.1391,-0.1418,-0.1388,-0.134,-0.1316,-0.1295,-0.1315,-0.1303,-0.1296,-0.1296,-0.1296,-0.1296,-0.1296,-0.1296,-0.1296,-0.1296,-0.1296,-0.1532,-0.208,-0.208,-0.2352,-0.2898,-0.2898,-0.2898,-0.2898,-0.2923,-0.2918,-1.1823,-1.2048,-1.2318,-1.214,-1.2456,-1.2813,-1.2813,-1.2813,-1.2813,-1.2813,-1.2813,-1.2807,0.0,0.0,-1.2244,-1.2438,-1.1682,-1.1131,-1.1123,-0.9892,-0.8986,0.0,0.0,0.0,0.0,0.0,0.0,-0.5382,0.0,-0.5957,-0.5247,-0.5954,-0.5964,-0.5124,-0.5148,-0.5148,-0.5116,-0.3974,-0.2826,-0.1669,-0.1618,-0.1617,-0.1617,-0.1617,-0.1617,-0.1617,-0.1617,-0.1617,-0.1617,-0.1617,-0.1617,-0.1617,-0.1617,-0.1617,-0.1617,-0.1617,-0.1617,-0.1609,-0.1551,-0.1482,-0.1528,-0.1528,-0.1508,-0.1483,-0.1483,-0.1463,-0.1395,-0.1395,-0.1394,-0.1393,-0.1393,-0.1391,-0.1391,-0.1391,-0.1391,-0.1391,-0.1391,-0.1391,-0.1391,-0.1391,-0.1391,-0.1391,-0.1391,-0.1391,-0.1391,-0.1391,-0.1391,-0.138,-0.1394,-0.1341,-0.1307,-0.1305,-0.1318,-0.1299,-0.1299,-0.1298,-0.1296,-0.1296,-0.1296,-0.1296,-0.1296,-0.1296,-0.1296,-0.1296,-0.1296,-0.1296,-0.1296,-0.1296,-0.1297,-0.13,-0.1289,-0.1304,-1.1692,-1.1915,-1.214,-1.2094,-1.2456,-1.2813,-1.2813,-1.2813,-1.2813,-1.2813,-1.2813,-1.2759,0.0,0.0,0.0,-1.0773,-1.0212,0.0,-0.8965,-0.7984,0.0,-0.7332,0.0,-0.5686,-0.5712,-0.5549,0.0,0.0,-0.5558,-0.5541,-0.5345,-0.5567,-0.5556,-0.5312,-0.5267,-0.5178,-0.5156,-0.4,-0.305,-0.2318,-0.183,-0.1818,-0.217,-0.1768,-0.1818,-0.217,-0.1768,-0.1617,-0.1617,-0.1617,-0.1617,-0.1617,-0.1617,-0.1617,-0.1617,-0.1617,-0.1617,-0.1615,-0.1599,-0.1579,-0.156,-0.156,-0.1539,-0.1515,-0.1515,-0.1509,-0.1456,-0.1456,-0.1487,-0.1469,-0.1469,-0.1453,-0.1391,-0.1391,-0.1391,-0.1391,-0.1391,-0.1391,-0.1391,-0.1391,-0.1391,-0.1391,-0.1391,-0.1391,-0.1391,-0.1391,-0.1391,-0.138,-0.1394,-0.1377,-0.1359,-0.1297,-0.1309,-0.1291,-0.1291,-0.131,-0.1296,-0.1296,-0.1296,-0.1296,-0.1296,-0.1296,-0.1296,-0.1296,-0.1296,-0.1296,-0.1296,-0.1296,-0.1308,-0.1291,-0.1299,-0.1326,-1.1811,-1.1984,-1.2121,-1.2229,-1.2537,-1.2813,-1.2813,-1.2732,-1.2608,-1.2608,-1.257,0.0,-1.228,-1.1765,-1.1171,0.0,0.0,0.0,-0.8459,-0.7429,-0.6715,0.0,-0.5938,0.0,-0.5382,-0.5382,-0.5382,0.0,-0.5382,-0.5382,-0.5382,-0.5382,-0.5382,-0.5382,-0.5333,-0.5119,-0.486,-0.4176,-0.342,-0.2593,-0.2463,-0.239,-0.2371,-0.207,-0.212,-0.2371,0.0,-0.1617,-0.1617,-0.1617,-0.1617,-0.1617,-0.1617,-0.1617,-0.1617,-0.1617,-0.1617,-0.1617,-0.1617,-0.1606,-0.1592,-0.1592,-0.157,-0.1546,-0.1546,-0.1536,-0.1478,-0.1478,-0.1514,-0.15,-0.15,-0.1488,-0.1426,-0.1458,-0.1455,-0.1452,-0.1393,-0.1391,-0.1391,-0.1391,-0.1391,-0.1391,-0.1391,-0.1391,-0.1391,-0.1391,-0.1391,-0.1384,-0.1412,-0.1398,-0.1384,-0.1368,-0.1298,-0.1317,-0.1303,-0.1287,-0.1311,-0.1297,-0.1296,-0.1296,-0.1296,-0.1296,-0.1296,-0.1296,-0.1296,-0.1296,-0.1296,-0.1296,-0.1312,-0.1303,-0.1316,-0.1354,-1.208,-1.2116,-1.2191,-1.2361,-1.2587,-1.2813,-1.2813,-1.2581,-1.2414,-1.2414,0.0,-1.2083,-1.2051,-1.1362,-1.0744,-1.061,0.0,-0.8578,-0.8446,-0.7315,-0.6548,-0.6548,-0.5882,-0.5382,-0.5382,-0.5382,-0.5382,-0.5382,-0.5382,-0.5382,-0.5382,-0.5382,-0.5382,-0.5382,-0.5382,-0.5119,-0.4547,-0.4416,-0.3805,-0.2706,-0.3157,-0.3072,-0.2522,-0.2522,-0.2522,-0.2472,-0.1919,-0.1667,-0.1617,-0.1617,-0.1617,-0.1617,-0.1617,-0.1617,-0.1617,-0.1617,-0.1617,-0.1617,-0.1617,-0.1617,-0.1617,-0.1617,-0.1599,-0.1577,-0.1577,-0.1559,-0.149,-0.149,-0.1535,-0.1532,-0.1532,-0.1529,-0.1519,-0.1493,-0.1483,-0.1473,-0.1447,-0.1393,-0.1391,-0.1391,-0.1391,-0.1391,-0.1391,-0.1391,-0.1391,-0.1391,-0.1391,-0.1391,-0.1391,-0.1412,-0.1396,-0.1396,-0.1327,-0.1301,-0.1316,-0.1311,-0.1297,-0.131,-0.1309,-0.1309,-0.1309,-0.1305,-0.1303,-0.1303,-0.1298,-0.1296,-0.1296,-0.1301,-0.1319,-0.1309,-0.1302,-0.1345,-1.2083,-1.2199,-1.2361,-1.2404,-1.2587,-1.2813,-1.2813,-1.2581,0.0,0.0,-1.2221,-1.2035,-1.1795,-1.0641,-0.9509,-0.8947,-0.7583,-0.6473,-0.6086,-0.577,-0.5605,0.0,-0.5493,-0.5382,-0.5382,-0.5382,0.0,0.0,-0.5382,-0.5382,-0.5382,-0.5382,-0.5382,-0.5382,-0.5382,-0.5318,-0.5246,-0.4613,-0.3998,-0.3337,-0.3292,-0.3189,-0.3079,-0.3079,-0.3079,-0.3029,-0.2472,0.0,-0.1617,-0.1617,-0.1617,-0.1617,-0.1617,-0.1617,-0.1617,-0.1617,-0.1617,-0.1617,-0.1617,-0.1617,-0.1617,-0.1617,-0.1613,-0.1609,-0.1609,-0.1605,-0.1601,-0.1601,-0.1583,-0.1564,-0.1564,-0.1545,-0.1477,-0.1519,-0.1499,-0.1479,-0.1474,-0.1453,-0.1391,-0.1391,-0.1391,-0.1391,-0.1391,-0.1391,-0.1391,-0.1391,-0.1391,-0.1391,-0.1391,-0.1386,-0.1383,-0.1383,-0.1401,-0.138,-0.1375,-0.1311,-0.1296,-0.1291,-0.129,-0.129,-0.129,-0.1308,-0.1294,-0.1294,-0.131,-0.1296,-0.1296,-0.1282,-0.131,-0.13,-0.1352,-0.1439,-1.2435,-1.2414,-1.2441,-1.2565,-1.2678,-1.2813,-1.2813,0.0,0.0,0.0,-1.1935,-1.165,-1.1542,-1.06,0.0,-0.8665,-0.7509,-0.6439,-0.5623,-0.546,-0.5382,-0.5382,-0.5382,-0.5382,0.0,-0.5382,-0.5382,-0.5382,-0.5382,-0.5382,-0.5382,-0.5382,-0.5382,-0.5382,-0.5382,-0.5359,-0.531,-0.4953,-0.444,-0.3884,-0.4023,-0.397,-0.3632,-0.3632,-0.3632,-0.3581,-0.3027,-0.2523,-0.2019,-0.2019,-0.1869,-0.1617,-0.1617,-0.1617,-0.1617,-0.1617,-0.1617,-0.1617,-0.1617,-0.1617,-0.1617,-0.1617,-0.1617,-0.1617,-0.1617,-0.1617,-0.1617,-0.1617,-0.1607,-0.1595,-0.1595,-0.1584,-0.1569,-0.1553,-0.1514,-0.1384,-0.1004,-0.1175,-0.13,-0.0942,-0.1166,-0.1391,-0.1391,-0.1391,-0.1391,-0.1391,-0.1391,-0.1391,-0.1391,-0.1391,-0.1396,-0.1457,-0.1431,-0.1414,-0.1414,-0.1386,-0.1321,-0.1307,-0.1305,-0.1305,-0.1305,-0.1292,-0.1285,-0.1285,-0.1312,-0.1304,-0.1304,-0.1319,-0.1307,-0.135,-0.1378,-0.1468,-1.2764,-1.263,-1.2533,-1.2764,-1.2813,-1.2797,-1.2748,-1.2402,0.0,-1.2029,-1.1462,-1.0997,-1.0997,-1.0244,-0.9372,0.0,-0.7607,-0.6706,-0.5793,-0.5554,-0.5491,0.0,-0.5382,0.0,-0.5382,-0.5382,0.0,-0.5382,-0.5382,-0.5382,-0.5382,-0.5382,-0.5371,-0.5353,-0.5351,-0.5308,-0.5162,-0.5142,-0.4849,-0.4198,-0.4696,-0.46,-0.3982,-0.4133,-0.4133,-0.3982,-0.3531,-0.2977,-0.2422,-0.2422,-0.207,-0.1617,-0.1617,-0.1617,-0.1617,-0.1617,-0.1617,-0.1617,-0.1617,-0.1617,-0.1617,-0.1617,-0.1617,-0.1617,-0.1617,-0.1617,-0.1617,-0.1617,-0.1617,-0.1617,-0.1617,-0.1617,-0.1557,-0.1374,-0.1191,-0.0833,-0.027,-0.0583,-0.0807,-0.0269,-0.0583,-0.0942,-0.0942,-0.0942,-0.0942,-0.0942,-0.0942,-0.0987,-0.1166,-0.1166,-0.1266,-0.1478,-0.1453,-0.1391,-0.1391,-0.1413,-0.139,-0.1325,-0.1324,-0.1324,-0.1324,-0.1318,-0.1315,-0.1315,-0.1309,-0.1309,-0.1315,-0.1321,-0.135,-0.14,-0.1458,-0.15,-1.2807,-1.2797,-1.2786,-1.2807,-1.2813,-1.2759,-1.2495,0.0,-1.2035,-1.1774,-1.0818,-1.0033,-1.0033,-0.8694,-0.7555,-0.7537,0.0,-0.618,-0.5824,-0.5759,-0.5656,-0.5437,0.0,0.0,-0.5382,-0.5382,-0.5382,-0.5382,-0.5382,-0.5382,-0.5382,-0.5382,-0.5343,-0.5204,-0.5202,-0.5158,-0.5122,-0.5039,-0.4731,-0.4198,-0.4634,-0.4541,-0.4033,-0.4485,-0.4483,-0.3982,-0.3932,-0.3328,0.0,-0.2422,-0.207,-0.1617,-0.1617,-0.1617,-0.1617,-0.1617,-0.1617,-0.1617,-0.1617,-0.1617,-0.1617,-0.1617,-0.1617,-0.1617,-0.1617,-0.1617,-0.1617,-0.1617,-0.1617,-0.1617,-0.1617,-0.1617,-0.1402,-0.0675,0.0048,0.0612,0.0588,0.0538,0.0538,0.0583,0.0538,0.0493,0.0493,0.0493,0.0493,0.0493,0.0493,0.0269,-0.0403,-0.0493,-0.0769,-0.1432,-0.1453,-0.1391,-0.1391,-0.1388,-0.1385,-0.1383,-0.1383,-0.1383,-0.1383,-0.1401,-0.1386,-0.1386,-0.1318,-0.1318,-0.1386,-0.137,-0.1444,-0.1478,-0.1533,-0.1549,-1.2813,-1.2813,-1.2813,-1.2813,-1.2266,-1.1705,-1.1567,0.0,-1.0121,-1.0043,-0.9509,-0.9069,-0.9069,-0.8508,-0.7913,-0.7627,-0.7226,-0.6735,-0.629,-0.6005,-0.5766,-0.5656,-0.5491,0.0,0.0,0.0,-0.5382,-0.5382,-0.5382,-0.5382,-0.5382,-0.5382,-0.5314,-0.5167,-0.5162,-0.5173,-0.5026,-0.499,-0.4842,-0.4585,-0.4702,-0.4684,-0.4483,-0.4383,-0.4383,-0.4483,-0.4133,-0.3781,0.0,-0.3026,-0.2574,-0.207,-0.1717,-0.1617,-0.1617,-0.1617,-0.1617,-0.1617,-0.1617,-0.1617,-0.1617,-0.1617,-0.1263,-0.096,-0.1465,-0.1617,-0.1617,-0.1617,-0.1617,-0.1465,-0.101,-0.0505,-0.005,0.0241,0.0577,0.0959,0.1337,0.1097,0.0914,0.1325,0.104,0.0718,0.0718,0.0718,0.0718,0.0718,0.0718,0.0583,0.0314,0.0269,0.0135,-0.0136,-0.0957,-0.147,-0.1442,-0.1473,-0.1463,-0.1463,-0.1463,-0.1463,-0.1463,-0.1468,-0.1463,-0.1445,-0.1452,-0.1452,-0.1444,-0.1475,-0.1223,-0.0816,-0.0867,-0.0628,-1.2871,-1.2807,-1.2813,-1.2813,-1.1905,-1.1005,-1.0891,-0.9855,-0.8878,-0.878,-0.8408,-0.8105,-0.8105,-0.7841,-0.7583,-0.7298,-0.7168,-0.6952,-0.6506,-0.6236,-0.5989,-0.5822,0.0,-0.5491,0.0,-0.5382,-0.5382,-0.5382,-0.5382,-0.5369,-0.5343,-0.5341,-0.5269,-0.5114,-0.5145,-0.509,-0.4932,-0.4932,-0.49,-0.4784,-0.4784,-0.4784,-0.4784,-0.4234,-0.4183,-0.4533,-0.3982,-0.3783,0.0,-0.3179,-0.2725,-0.2371,-0.1818,-0.1617,-0.1617,-0.1617,-0.1617,-0.1617,-0.1617,-0.1465,-0.1263,-0.1263,-0.0707,-0.0151,-0.0707,-0.0908,-0.0908,-0.0908,-0.0908,-0.0757,-0.0202,0.0555,0.115,0.1114,0.1359,0.17,0.2163,0.1812,0.1618,0.2128,0.1774,0.1345,0.1345,0.1345,0.1345,0.1345,0.1345,0.1256,0.1031,0.1031,0.0942,0.0718,-0.0228,-0.0837,-0.0802,-0.0839,-0.0788,-0.0793,-0.0794,-0.0794,-0.0794,-0.0804,-0.0805,-0.0794,-0.0805,-0.0807,-0.08,-0.0812,-0.0532,-0.0098,-0.0097,0.0192,-1.2864,-1.2778,-1.2813,-1.2813,-1.1905,-1.0915,-1.0649,-0.9707,-0.8845,-0.8536,-0.7753,-0.7095,-0.7095,-0.6349,-0.5812,-0.6095,-0.6285,-0.6422,-0.6408,-0.6575,-0.6492,0.0,0.0,-0.5712,-0.5437,-0.5382,-0.5382,-0.5382,-0.5382,0.0,-0.5196,-0.519,-0.515,-0.5112,-0.502,-0.493,-0.4786,-0.4786,-0.4786,-0.4784,-0.4784,-0.4784,-0.4784,-0.4234,-0.3982,-0.3982,-0.343,-0.323,0.0,-0.2623,-0.2422,-0.2371,-0.1818,-0.1617,-0.1617,-0.1617,-0.1617,-0.1617,-0.1617,-0.1061,-0.0404,-0.0404,0.0151,0.0806,0.0756,0.0756,0.0756,0.0756,0.0756,0.0756,0.0806,0.1361,0.1957,0.192,0.25,0.3074,0.3109,0.3047,0.2958,0.3004,0.2913,0.2873,0.2873,0.2873,0.2873,0.2873,0.2873,0.2604,0.1885,0.1794,0.1525,0.0762,0.0685,0.0694,0.0787,0.0787,0.0793,0.0857,0.0858,0.0858,0.0858,0.0858,0.0858,0.0858,0.0858,0.0866,0.0881,0.0881,0.0833,0.0686,0.0686,0.0672,-1.3034,-1.2849,-1.2549,-1.1744,-1.064,-0.955,-0.8669,-0.7583,-0.671,-0.6621,-0.6349,-0.613,-0.613,-0.5911,-0.582,-0.622,-0.6341,0.0,-0.688,0.0,0.0,-0.6161,-0.577,-0.5491,0.0,0.0,-0.5382,-0.5382,-0.5382,-0.5341,-0.5194,-0.5132,-0.5108,-0.5018,-0.4986,-0.4928,-0.4786,-0.4784,-0.4784,-0.4784,-0.4784,-0.4784,-0.4784,-0.4234,-0.3982,-0.3982,-0.343,-0.318,-0.318,-0.2623,-0.2422,-0.2371,-0.1818,-0.1617,-0.1617,-0.1617,-0.1617,-0.1516,-0.096,-0.0606,-0.0303,0.0252,0.0958,0.1613,0.1613,0.126,0.0806,0.0806,0.121,0.1613,0.1613,0.2219,0.2813,0.2759,0.2973,0.3136,0.3124,0.3063,0.3068,0.3068,0.2987,0.292,0.292,0.292,0.292,0.292,0.292,0.2829,0.2603,0.2558,0.2469,0.2243,0.2212,0.1823,0.0832,0.0796,0.0805,0.081,0.0869,0.0923,0.0923,0.0836,0.0837,0.0923,0.0837,0.0839,0.0882,0.0784,0.0967,0.1414,0.1978,0.2229,0.0,-1.282,-1.2449,-1.1288,-1.0072,-0.889,-0.7766,-0.6577,-0.5688,-0.5688,-0.5688,-0.5688,-0.5688,-0.5688,-0.5802,-0.6139,-0.6303,-0.6556,0.0,0.0,0.0,-0.633,0.0,0.0,0.0,-0.5382,-0.5382,-0.5382,-0.5382,-0.5341,-0.5194,-0.5157,-0.5065,-0.5027,-0.4939,-0.4892,-0.4786,-0.4784,-0.4784,-0.4784,-0.4784,-0.4784,-0.4784,-0.4234,-0.3982,-0.3982,-0.343,-0.3331,0.0,-0.2724,-0.2522,-0.2624,-0.1869,-0.1415,-0.1162,-0.1263,-0.106,-0.0656,-0.0353,0.0101,0.0555,0.0958,0.1714,0.2472,0.2472,0.2118,0.1714,0.1714,0.2068,0.2472,0.2472,0.2826,0.3171,0.3133,0.3153,0.3169,0.3133,0.3108,0.3097,0.3097,0.3001,0.292,0.292,0.292,0.292,0.292,0.292,0.292,0.292,0.292,0.292,0.292,0.292,0.2528,0.1599,0.1595,0.1668,0.1668,0.1698,0.1709,0.1745,0.1679,0.1687,0.1715,0.1698,0.1698,0.1715,0.1642,0.1799,0.2219,0.2707,0.2953,0.0,-1.268,-1.2399,-1.1192,-1.0035,-0.8869,-0.7657,-0.6526,0.0,-0.5688,-0.5688,-0.5691,-0.5699,-0.5694,-0.5731,-0.5907,-0.6208,-0.6419,0.0,-0.6921,0.0,0.0,-0.5772,0.0,-0.5382,-0.5375,-0.5371,-0.5371,-0.5365,-0.5322,-0.5176,-0.5145,-0.5057,-0.4965,-0.4879,-0.4784,-0.4784,-0.4784,-0.4784,-0.4784,-0.4784,-0.4784,-0.4784,-0.4282,-0.4033,0.0,-0.3482,-0.3531,-0.3882,-0.2874,-0.2674,-0.2978,-0.1969,-0.1061,-0.0353,-0.0606,-0.005,0.0756,0.0303,0.0958,0.1917,0.1765,0.2371,0.318,0.318,0.318,0.318,0.318,0.318,0.318,0.318,0.318,0.318,0.318,0.318,0.318,0.318,0.3138,0.3104,0.3104,0.3011,0.2931,0.2926,0.2925,0.2924,0.292,0.292,0.292,0.292,0.292,0.292,0.292,0.292,0.292,0.292,0.3025,0.309,0.309,0.31,0.3108,0.3098,0.3104,0.3085,0.3085,0.3138,0.3138,0.3078,0.3014,0.3003,0.2997,0.2944,0.292,-1.2697,0.0,-1.2186,-1.0148,-0.9402,-0.8673,0.0,-0.5886,-0.5688,-0.5688,0.0,0.0,-0.5847,-0.5793,-0.5833,-0.6132,-0.6252,-0.638,-0.6589,0.0,0.0,-0.5926,-0.5603,-0.5382,-0.5382,-0.5318,-0.5223,-0.5223,-0.5212,-0.5132,-0.5041,-0.5016,-0.4963,-0.4869,-0.4796,-0.4784,-0.4784,-0.4784,-0.4784,-0.4784,-0.4784,-0.4784,-0.4784,-0.4684,-0.4383,-0.3982,-0.3883,-0.3632,-0.3381,-0.3128,-0.2472,-0.1664,-0.1412,-0.0555,0.0504,0.0454,0.0605,0.0857,0.1361,0.1613,0.1765,0.232,0.2826,0.318,0.318,0.318,0.318,0.318,0.318,0.318,0.318,0.318,0.318,0.318,0.318,0.318,0.318,0.3172,0.3119,0.3119,0.3059,0.304,0.2992,0.2985,0.2969,0.2925,0.292,0.292,0.292,0.292,0.292,0.292,0.292,0.292,0.292,0.2985,0.3026,0.3026,0.3084,0.3112,0.3097,0.3111,0.3119,0.3119,0.3133,0.3109,0.3,0.3018,0.2982,0.2939,0.2925,0.292,-1.2705,-1.2705,-1.218,-0.9961,-0.9305,-0.8603,-0.6387,0.0,0.0,0.0,0.0,0.0,0.0,0.0,0.0,0.0,-0.6276,0.0,0.0,0.0,-0.6169,-0.5904,-0.5674,-0.5465,0.0,-0.521,-0.5128,-0.5128,-0.5137,-0.5067,-0.5029,-0.5023,-0.493,-0.4788,-0.4784,-0.4784,-0.4784,-0.4784,-0.4784,-0.4784,-0.4784,-0.4784,-0.4784,-0.428,-0.3929,-0.3629,-0.3124,-0.2723,-0.2472,-0.2219,-0.1664,-0.1008,-0.0756,0.0101,0.1159,0.1009,0.1362,0.1916,0.2118,0.2169,0.2219,0.2674,0.2977,0.318,0.3079,0.3079,0.318,0.318,0.318,0.318,0.318,0.318,0.318,0.318,0.318,0.318,0.318,0.3133,0.309,0.309,0.3091,0.3077,0.3015,0.3004,0.2985,0.2928,0.292,0.292,0.292,0.292,0.292,0.292,0.292,0.292,0.292,0.2947,0.2965,0.2965,0.3022,0.3043,0.3016,0.304,0.3068,0.3095,0.3069,0.3037,0.3004,0.2978,0.295,0.292,0.292,0.292,-1.2705,-1.2571,-1.1966,-1.0101,-0.9309,-0.8476,-0.652,0.0,0.0,0.0,0.0,0.0,0.0,-0.585,0.0,0.0,0.0,0.0,-0.6741,-0.6594,-0.6355,-0.6071,-0.5819,0.0,-0.5169,-0.5096,-0.5088,-0.5088,-0.5075,-0.5032,-0.4955,-0.4951,-0.4914,-0.4786,-0.4784,-0.4784,-0.4784,-0.4784,-0.4784,-0.4784,-0.4784,-0.4734,-0.4533,-0.3626,-0.3123,-0.2922,0.0,0.0,-0.1563,-0.1109,-0.0806,-0.0554,-0.0101,0.0757,0.1715,0.1464,0.212,0.3027,0.2573,0.2623,0.2826,0.2775,0.2927,0.313,0.2826,0.2977,0.318,0.313,0.318,0.318,0.318,0.318,0.318,0.318,0.318,0.318,0.318,0.314,0.3105,0.3105,0.3112,0.3105,0.3043,0.3025,0.2998,0.294,0.2932,0.2929,0.2921,0.2926,0.2929,0.292,0.292,0.292,0.292,0.292,0.292,0.292,0.2964,0.2969,0.2921,0.2965,0.3015,0.3068,0.3018,0.2992,0.2992,0.2943,0.292,0.292,0.292,0.2924,-1.2705,-1.2003,-1.1004,-0.9884,-0.879,-0.7698,-0.639,0.0,0.0,0.0,0.0,0.0,0.0,-0.5961,-0.5977,0.0,0.0,-0.6377,0.0,0.0,-0.6294,-0.6323,0.0,-0.5499,-0.543,-0.5195,-0.4994,-0.4994,-0.492,-0.4821,-0.4806,-0.4855,-0.4798,-0.4784,-0.4784,-0.4784,-0.4784,-0.4784,-0.4784,-0.4784,-0.4784,-0.4331,-0.3425,-0.3274,-0.272,-0.1815,0.0,-0.1613,-0.1613,-0.1513,-0.0806,0.0202,0.0302,0.1109,0.2269,0.222,0.2371,0.2522,0.2422,0.2725,0.3079,0.2623,0.2775,0.313,0.2623,0.2826,0.313,0.2927,0.3029,0.318,0.318,0.318,0.318,0.318,0.318,0.318,0.318,0.3172,0.3167,0.3167,0.3209,0.3183,0.3074,0.307,0.3062,0.3001,0.2992,0.2974,0.2925,0.2961,0.2972,0.2924,0.292,0.292,0.292,0.292,0.292,0.292,0.2928,0.2928,0.292,0.2928,0.2936,0.2946,0.2936,0.2932,0.2932,0.2924,0.292,0.292,0.292,0.2944,-1.2705,-1.1966,-1.0923,-0.9884,-0.8619,-0.7377,-0.6439,0.0,0.0,0.0,0.0,0.0,0.0,0.0,-0.6157,-0.6331,0.0,-0.6396,-0.6454,-0.6425,-0.6362,0.0,0.0,-0.5588,-0.5382,-0.5078,-0.4898,-0.4898,-0.4859,-0.4784,-0.4784,-0.4784,-0.4784,-0.4784,-0.4784,-0.4784,-0.4784,-0.423,-0.423,-0.4784,-0.4784,-0.423,-0.3173,-0.262,-0.1764,-0.0706,0.0,0.0151,0.0151,0.0151,0.0504,0.106,0.106,0.1514,0.2222,0.2371,0.2422,0.2422,0.2422,0.2674,0.2927,0.2522,0.2775,0.313,0.2725,0.2876,0.318,0.3029,0.313,0.318,0.318,0.318,0.318,0.318,0.318,0.318,0.318,0.318,0.318,0.318,0.318,0.3161,0.3101,0.3116,0.3078,0.3063,0.3054,0.3044,0.3018,0.3037,0.3044,0.3018,0.3015,0.3015,0.3015,0.3015,0.2987,0.2924,0.292,0.2932,0.2964,0.2965,0.298,0.3014,0.3015,0.2998,0.2965,0.2965,0.2965,0.2965,0.2965,0.2997,-1.2705,-1.1972,-1.0971,-0.9884,0.0,-0.7354,-0.6472,0.0,0.0,0.0,0.0,0.0,0.0,-0.6227,0.0,-0.6373,-0.6387,-0.6387,-0.6387,-0.6465,-0.6441,-0.615,-0.5913,-0.5625,-0.5347,-0.4987,-0.4784,-0.4784,-0.4784,-0.4784,-0.4784,-0.4784,-0.4784,-0.4784,-0.4784,-0.4684,-0.4431,-0.3626,-0.3626,-0.4431,-0.418,-0.3475,-0.2417,-0.1613,-0.0655,0.0403,0.1262,0.1617,0.1617,0.1617,0.1617,0.1617,0.1617,0.1718,0.192,0.212,0.227,0.2321,0.2321,0.2472,0.2674,0.2472,0.2725,0.3079,0.2775,0.2927,0.318,0.313,0.313,0.318,0.318,0.318,0.318,0.318,0.318,0.318,0.318,0.318,0.318,0.318,0.318,0.3165,0.312,0.3101,0.3124,0.3076,0.3117,0.3113,0.3098,0.3109,0.3113,0.3098,0.3097,0.3097,0.3097,0.3097,0.3058,0.2967,0.2961,0.298,0.3025,0.3026,0.3048,0.3095,0.3097,0.3073,0.3026,0.3026,0.3026,0.3026,0.3026,0.3059,-1.2705,-1.1875,-1.0783,-0.984,-0.8663,0.0,-0.6518,-0.6084,0.0,0.0,0.0,0.0,0.0,-0.6347,-0.6376,-0.6384,-0.6387,-0.6387,-0.6387,0.0,-0.6395,-0.6387,-0.5944,-0.5593,-0.5586,-0.5085,-0.4784,-0.4784,-0.4784,-0.4784,-0.4784,-0.4784,-0.4784,-0.4784,-0.4784,-0.4331,-0.3324,-0.3224,-0.3224,-0.3324,-0.2318,-0.126,-0.0252,-0.0151,0.0454,0.1465,0.1566,0.1617,0.1617,0.1617,0.1617,0.1617,0.1617,0.1617,0.1617,0.1667,0.1819,0.2021,0.2021,0.2222,0.2422,0.2422,0.2573,0.2775,0.2522,0.2775,0.313,0.2876,0.3027,0.318,0.318,0.318,0.318,0.318,0.318,0.318,0.318,0.318,0.318,0.318,0.318,0.3179,0.3175,0.3128,0.3089,0.3085,0.3085,0.3112,0.3104,0.3098,0.3112,0.3104,0.3097,0.3097,0.3097,0.3097,0.3093,0.3084,0.3084,0.3086,0.309,0.309,0.3093,0.3097,0.3097,0.3094,0.309,0.309,0.309,0.309,0.309,0.3075,-1.2705,-1.2308,-1.1488,-0.9971,0.0,0.0,0.0,0.0,0.0,0.0,0.0,0.0,0.0,0.0,-0.6387,-0.6387,-0.6387,-0.6387,-0.6387,-0.6387,-0.6387,-0.6387,-0.5937,-0.5586,-0.5586,-0.5135,-0.4784,-0.4784,-0.4784,-0.4784,-0.4784,-0.4784,-0.4784,-0.4784,-0.413,-0.3626,-0.3224,-0.1863,-0.1209,-0.1209,-0.1462,-0.1058,0.0,0.0,0.0605,0.1617,0.1617,0.1617,0.1617,0.1617,0.1617,0.1617,0.1617,0.1617,0.1617,0.1617,0.1667,0.1768,0.1768,0.192,0.2171,0.2371,0.2573,0.2826,0.2876,0.3029,0.318,0.3079,0.313,0.318,0.318,0.318,0.318,0.318,0.318,0.318,0.318,0.318,0.318,0.318,0.318,0.318,0.318,0.3161,0.3146,0.3146,0.3146,0.3138,0.3165,0.3181,0.3137,0.3164,0.3162,0.3162,0.3162,0.3162,0.3162,0.3162,0.314,0.3113,0.3104,0.3105,0.3123,0.3161,0.3162,0.3143,0.3105,0.3105,0.3105,0.3105,0.3105,0.3138,-1.2681,-1.2534,-1.1972,0.0,0.0,0.0,0.0,0.0,0.0,0.0,-0.6374,0.0,0.0,0.0,0.0,0.0,-0.6387,-0.6387,-0.6387,-0.6387,-0.6387,-0.6387,-0.5987,-0.5737,-0.5737,-0.5236,-0.4937,-0.4937,-0.4834,-0.4784,-0.4784,-0.4784,-0.4634,-0.4331,-0.3575,-0.287,-0.2216,-0.0756,0.0151,0.0504,-0.0252,-0.0202,0.0504,0.0504,0.0908,0.1617,0.1617,0.1617,0.1617,0.1617,0.1617,0.1617,0.1617,0.1617,0.1617,0.1617,0.1617,0.1617,0.1617,0.1718,0.192,0.2171,0.2473,0.2725,0.2977,0.313,0.318,0.318,0.318,0.318,0.318,0.318,0.318,0.318,0.318,0.318,0.318,0.318,0.318,0.318,0.318,0.318,0.318,0.318,0.318,0.318,0.318,0.318,0.318,0.318,0.318,0.318,0.318,0.318,0.318,0.318,0.318,0.318,0.3153,0.3125,0.3117,0.3118,0.3138,0.318,0.318,0.316,0.3118,0.3118,0.3118,0.3118,0.3118,0.3141,-1.2632,-1.2534,-1.1923,0.0,0.0,0.0,-0.6845,-0.6408,-0.6384,-0.6385,0.0,-0.6387,-0.6387,0.0,0.0,-0.6387,-0.6387,-0.6387,-0.6387,-0.6387,-0.6387,-0.6387,-0.6139,-0.5992,-0.5992,-0.5491,-0.519,-0.519,-0.4937,-0.4784,-0.4784,-0.4784,-0.4331,-0.3224,-0.3173,-0.2165,0.0,0.0,0.0555,0.1617,0.1617,0.1617,0.1617,0.1617,0.1617,0.1617,0.1617,0.1617,0.1617,0.1617,0.1617,0.1617,0.1617,0.1617,0.1617,0.1617,0.1617,0.1617,0.1617,0.1617,0.1667,0.1921,0.2171,0.2472,0.2725,0.2977,0.318,0.318,0.318,0.318,0.318,0.318,0.318,0.318,0.318,0.318,0.318,0.318,0.318,0.318,0.318,0.318,0.318,0.318,0.318,0.318,0.318,0.318,0.318,0.318,0.318,0.318,0.318,0.318,0.318,0.318,0.318,0.318,0.318,0.318,0.318,0.318,0.318,0.318,0.318,0.318,0.318,0.318,0.318,0.318,0.318,0.318,-1.2632,-1.1793,0.0,-0.9803,0.0,0.0,0.0,-0.6477,0.0,0.0,0.0,-0.6387,-0.6387,0.0,0.0,-0.6387,-0.6387,-0.6387,-0.6387,-0.6387,-0.6387,-0.6387,-0.6139,-0.5942,-0.5737,-0.5388,-0.514,-0.4937,-0.4834,-0.4784,-0.4784,-0.4784,-0.4331,-0.3224,-0.2469,-0.1411,0.0,0.0757,0.1262,0.1617,0.1617,0.1617,0.1617,0.1617,0.1617,0.1617,0.1617,0.1617,0.1617,0.1617,0.1617,0.1617,0.1617,0.1617,0.1617,0.1617,0.1617,0.1617,0.1617,0.1617,0.1667,0.1921,0.2171,0.2472,0.2725,0.2977,0.318,0.318,0.318,0.318,0.318,0.318,0.318,0.318,0.318,0.318,0.318,0.318,0.318,0.318,0.318,0.318,0.318,0.318,0.318,0.318,0.318,0.318,0.318,0.318,0.318,0.318,0.318,0.318,0.318,0.318,0.318,0.318,0.318,0.318,0.318,0.318,0.318,0.318,0.318,0.318,0.318,0.318,0.318,0.318,0.318,0.318,-1.2068,-1.1203,0.0,-0.9026,-0.8188,-0.7409,-0.6565,0.0,0.0,0.0,0.0,-0.6387,-0.6387,-0.6387,0.0,-0.6387,-0.6387,-0.6387,-0.6387,-0.6387,-0.6387,-0.6387,-0.6139,-0.5942,-0.5789,-0.5438,-0.514,-0.4987,-0.4834,-0.4784,-0.4784,-0.4784,-0.4331,-0.3224,-0.2167,-0.1109,0.0,0.106,0.1617,0.1617,0.1617,0.1617,0.1617,0.1617,0.1617,0.1617,0.1617,0.1617,0.1617,0.1617,0.1617,0.1617,0.1617,0.1617,0.1617,0.1617,0.1617,0.1617,0.1617,0.1617,0.1617,0.1768,0.207,0.2422,0.2573,0.2927,0.318,0.318,0.318,0.318,0.318,0.318,0.318,0.318,0.318,0.318,0.318,0.318,0.318,0.318,0.318,0.318,0.318,0.318,0.318,0.318,0.318,0.318,0.318,0.318,0.318,0.318,0.318,0.318,0.318,0.318,0.318,0.318,0.318,0.318,0.318,0.318,0.318,0.318,0.318,0.318,0.318,0.318,0.318,0.318,0.318,0.318,-1.1241,0.0,0.0,-0.8006,-0.7451,0.0,-0.6531,-0.6387,-0.6387,-0.6387,0.0,-0.6387,-0.6387,-0.6387,-0.6387,-0.6387,-0.6387,-0.6387,-0.6387,-0.6387,-0.6387,-0.6387,-0.6139,-0.5992,-0.5942,-0.5491,-0.519,-0.519,-0.4937,-0.4784,-0.4784,-0.4784,-0.4331,-0.3224,-0.2167,-0.1109,0.0,0.106,0.1617,0.1617,0.1617,0.1617,0.1617,0.1617,0.1617,0.1617,0.1617,0.1617,0.1617,0.1617,0.1617,0.1617,0.1617,0.1617,0.1617,0.1617,0.1617,0.1617,0.1617,0.1617,0.1617,0.1617,0.1969,0.2371,0.2371,0.2775,0.318,0.318,0.318,0.318,0.318,0.318,0.318,0.318,0.318,0.318,0.318,0.318,0.318,0.318,0.318,0.318,0.318,0.318,0.318,0.318,0.318,0.318,0.318,0.318,0.318,0.318,0.318,0.318,0.318,0.318,0.318,0.318,0.318,0.318,0.318,0.318,0.318,0.318,0.318,0.318,0.318,0.318,0.318,0.318,0.318,0.318,-1.1241,-1.0095,0.0,0.0,-0.6953,-0.6384,-0.6382,-0.6387,-0.6387,-0.6387,-0.6387,-0.6387,-0.6387,-0.6387,-0.6387,-0.6387,-0.6387,-0.6387,-0.6387,-0.6387,-0.6387,-0.6387,-0.6139,-0.5942,-0.5687,-0.5388,-0.509,-0.4887,-0.4834,-0.4784,-0.4784,-0.4784,-0.4331,-0.3224,-0.2167,-0.1109,0.0,0.106,0.1617,0.1617,0.1617,0.1617,0.1617,0.1617,0.1617,0.1617,0.1617,0.1617,0.1617,0.1617,0.1617,0.1617,0.1617,0.1617,0.1617,0.1617,0.1617,0.1617,0.1617,0.1617,0.1617,0.1617,0.1819,0.2122,0.2321,0.2623,0.2927,0.313,0.318,0.318,0.318,0.318,0.318,0.318,0.318,0.318,0.318,0.318,0.318,0.318,0.318,0.318,0.318,0.318,0.318,0.318,0.318,0.318,0.318,0.318,0.318,0.318,0.318,0.318,0.318,0.318,0.318,0.318,0.318,0.318,0.318,0.318,0.318,0.318,0.318,0.318,0.318,0.318,0.318,0.318,0.318,0.318,-1.0575,0.0,0.0,-0.7202,0.0,-0.6149,-0.6333,-0.6387,-0.6387,-0.6387,-0.6387,-0.6387,-0.6387,-0.6387,-0.6387,-0.6387,-0.6387,-0.6387,-0.6387,-0.6387,-0.6387,-0.6387,-0.6139,-0.5889,-0.5636,-0.5338,-0.509,-0.4834,-0.4784,-0.4784,-0.4784,-0.4784,-0.4331,-0.3224,-0.2167,-0.1109,0.0,0.106,0.1617,0.1617,0.1617,0.1617,0.1617,0.1617,0.1617,0.1617,0.1617,0.1617,0.1617,0.1617,0.1617,0.1617,0.1617,0.1617,0.1617,0.1617,0.1617,0.1617,0.1617,0.1617,0.1617,0.1617,0.1768,0.2071,0.2321,0.2573,0.2876,0.313,0.318,0.318,0.318,0.318,0.318,0.318,0.318,0.318,0.318,0.318,0.318,0.318,0.318,0.318,0.318,0.318,0.318,0.318,0.318,0.318,0.318,0.318,0.318,0.318,0.318,0.318,0.318,0.318,0.318,0.318,0.318,0.318,0.318,0.318,0.318,0.318,0.318,0.318,0.318,0.318,0.3482,0.3982,0.3982,0.4232,-1.0072,0.0,-0.848,-0.6608,-0.6102,0.0,-0.6333,-0.6387,-0.6387,-0.6387,-0.6387,-0.6387,-0.6387,-0.6387,-0.6387,-0.6387,-0.6387,-0.6387,-0.6387,-0.6387,-0.6387,-0.6387,-0.6139,-0.5839,-0.5636,-0.5338,-0.5037,-0.4834,-0.4784,-0.4784,-0.4784,-0.4784,-0.4331,-0.3224,-0.2167,-0.1109,0.0,0.106,0.1617,0.1617,0.1617,0.1617,0.1617,0.1617,0.1617,0.1617,0.1617,0.1617,0.1617,0.1617,0.1617,0.1617,0.1617,0.1617,0.1617,0.1617,0.1617,0.1617,0.1617,0.1617,0.1617,0.1617,0.1768,0.197,0.2321,0.2573,0.2775,0.313,0.318,0.318,0.318,0.318,0.318,0.318,0.318,0.318,0.318,0.318,0.318,0.318,0.318,0.318,0.318,0.318,0.318,0.318,0.318,0.318,0.318,0.318,0.318,0.318,0.318,0.318,0.318,0.318,0.318,0.318,0.318,0.318,0.318,0.318,0.318,0.318,0.318,0.318,0.318,0.3381,0.3932,0.4784,0.4983,0.5529,0.0,0.0,-0.7503,0.0,-0.6165,-0.6149,0.0,0.0,-0.6387,0.0,-0.6387,-0.6387,-0.6387,-0.6387,-0.6387,-0.6387,-0.6387,-0.6387,-0.6387,-0.6387,-0.6387,-0.6387,-0.5937,-0.5636,-0.5586,-0.5135,-0.4834,-0.4784,-0.4784,-0.4784,-0.4784,-0.4784,-0.4331,-0.3224,-0.2167,-0.1109,0.0,0.106,0.1617,0.1617,0.1617,0.1617,0.1617,0.1617,0.1617,0.1617,0.1617,0.1617,0.1617,0.1617,0.1617,0.1617,0.1617,0.1617,0.1617,0.1617,0.1617,0.1617,0.1617,0.1617,0.1617,0.1617,0.1617,0.1768,0.227,0.2422,0.2573,0.3079,0.318,0.318,0.318,0.318,0.318,0.318,0.318,0.318,0.318,0.318,0.318,0.318,0.318,0.318,0.318,0.318,0.318,0.318,0.318,0.318,0.318,0.318,0.318,0.318,0.318,0.318,0.318,0.318,0.318,0.318,0.318,0.318,0.318,0.318,0.318,0.318,0.318,0.318,0.318,0.4133,0.4684,0.4834,0.5777,0.6274,-1.0262,-0.8773,-0.7388,0.0,-0.6276,-0.6233,-0.6349,0.0,-0.6387,-0.6387,-0.6387,-0.6387,-0.6387,-0.6387,-0.6387,-0.6387,-0.6387,-0.6387,-0.6387,-0.6387,-0.6387,-0.6387,-0.6037,-0.5789,-0.5636,-0.5236,-0.4987,-0.4834,-0.4784,-0.4784,-0.4784,-0.4784,-0.4331,-0.3224,-0.272,-0.1713,0.0,0.0454,0.1009,0.1617,0.1617,0.1617,0.1617,0.1617,0.1617,0.1617,0.1617,0.1617,0.1617,0.1617,0.1617,0.1617,0.1617,0.1617,0.1617,0.1617,0.1617,0.1617,0.1617,0.1617,0.1617,0.1617,0.1617,0.1667,0.207,0.2271,0.2472,0.2876,0.3079,0.318,0.318,0.318,0.318,0.318,0.318,0.318,0.318,0.318,0.318,0.318,0.318,0.318,0.318,0.318,0.318,0.318,0.318,0.318,0.318,0.318,0.318,0.318,0.318,0.318,0.318,0.318,0.318,0.318,0.318,0.318,0.318,0.318,0.318,0.318,0.3783,0.4083,0.4083,0.5181,0.6029,0.6628,0.7074,0.7624,0.0,0.0,-0.773,-0.6666,-0.6292,-0.626,0.0,0.0,-0.6387,0.0,-0.6387,-0.6387,-0.6387,-0.6387,-0.6387,-0.6387,-0.6387,-0.6387,-0.6387,-0.6387,-0.6387,-0.6287,-0.6039,-0.5789,-0.5536,-0.5238,-0.5037,-0.4834,-0.4784,-0.4784,-0.4784,-0.4784,-0.4331,-0.3224,-0.3224,-0.2317,-0.0403,-0.0403,0.0151,0.1212,0.1212,0.1313,0.1617,0.1617,0.1617,0.1617,0.1617,0.1617,0.1617,0.1617,0.1617,0.1617,0.1617,0.1617,0.1617,0.1617,0.1617,0.1617,0.1617,0.1617,0.1617,0.1617,0.1617,0.1667,0.1921,0.2171,0.2472,0.2725,0.2977,0.318,0.318,0.318,0.318,0.318,0.318,0.318,0.318,0.318,0.318,0.318,0.318,0.318,0.318,0.318,0.318,0.318,0.318,0.318,0.318,0.318,0.318,0.318,0.318,0.318,0.318,0.318,0.318,0.318,0.318,0.318,0.318,0.318,0.3331,0.3581,0.4682,0.5083,0.4784,0.6126,0.7223,0.8021,0.8273,0.8825,0.0,-0.9052,0.0,-0.6946,-0.6322,0.0,0.0,0.0,-0.6387,-0.6387,-0.6387,-0.6387,-0.6387,-0.6387,-0.6387,-0.6387,-0.6387,-0.6387,-0.6387,-0.6387,-0.6287,-0.6042,-0.5789,-0.5536,-0.524,-0.4987,-0.4834,-0.4784,-0.4784,-0.4784,-0.4784,-0.4784,-0.4331,-0.3224,-0.3224,-0.267,-0.1513,-0.1513,-0.0958,0.0101,0.0101,0.0605,0.1617,0.1617,0.1617,0.1617,0.1617,0.1617,0.1617,0.1617,0.1617,0.1617,0.1617,0.1617,0.1617,0.1617,0.1617,0.1617,0.1617,0.1617,0.1617,0.1617,0.1617,0.1667,0.1921,0.2171,0.2472,0.2725,0.2977,0.318,0.318,0.318,0.318,0.318,0.318,0.318,0.318,0.318,0.318,0.318,0.318,0.318,0.318,0.318,0.318,0.318,0.318,0.318,0.318,0.318,0.318,0.318,0.318,0.318,0.318,0.318,0.318,0.318,0.318,0.318,0.318,0.318,0.3682,0.4684,0.5779,0.5827,0.4784,0.6877,0.7922,0.8024,0.9027,0.9529,0.0,0.0,0.0,-0.6642,-0.6297,-0.6323,-0.6342,-0.6385,-0.6387,-0.6387,-0.6387,-0.6387,-0.6387,-0.6387,-0.6387,-0.6387,-0.6387,-0.6387,-0.6387,-0.6387,-0.6287,-0.6042,-0.5789,-0.5486,-0.524,-0.4937,-0.4784,-0.4784,-0.4784,-0.4784,-0.4784,-0.4784,-0.4634,-0.423,-0.423,-0.3726,-0.262,-0.1966,-0.1058,0.0,0.0,0.0555,0.1617,0.1617,0.1617,0.1617,0.1617,0.1617,0.1617,0.1617,0.1617,0.1617,0.1617,0.1617,0.1617,0.1617,0.1617,0.1617,0.1617,0.1617,0.1617,0.1617,0.1617,0.1617,0.1718,0.207,0.2422,0.2522,0.2876,0.318,0.318,0.318,0.318,0.318,0.318,0.318,0.318,0.318,0.318,0.318,0.318,0.318,0.318,0.318,0.318,0.318,0.318,0.318,0.318,0.318,0.318,0.318,0.318,0.318,0.318,0.318,0.318,0.318,0.318,0.318,0.318,0.3883,0.4384,0.4784,0.6528,0.7223,0.6877,0.8326,0.9023,0.9027,0.9426,0.9579,-0.9108,0.0,0.0,0.0,0.0,-0.6266,-0.632,-0.6352,-0.6391,-0.6379,-0.6387,-0.6387,-0.6387,-0.6387,-0.6284,-0.5937,-0.5887,-0.5887,-0.5887,-0.6087,-0.6189,-0.5889,-0.5639,-0.5338,-0.509,-0.4887,-0.4784,-0.4784,-0.4784,-0.4784,-0.4784,-0.4784,-0.4784,-0.4784,-0.4784,-0.4481,-0.3728,-0.3022,-0.2116,-0.1058,-0.1058,-0.0504,0.0555,0.0908,0.106,0.106,0.1465,0.1617,0.1617,0.1617,0.1617,0.1617,0.1617,0.1617,0.1617,0.1617,0.1617,0.1617,0.1617,0.1617,0.1617,0.1617,0.1617,0.1617,0.1617,0.1969,0.2422,0.2422,0.2775,0.318,0.318,0.318,0.318,0.318,0.318,0.318,0.318,0.318,0.318,0.318,0.318,0.318,0.318,0.318,0.318,0.318,0.318,0.318,0.318,0.318,0.318,0.318,0.318,0.318,0.318,0.318,0.318,0.318,0.318,0.318,0.318,0.4234,0.4983,0.5331,0.7077,0.8173,0.8524,0.9274,0.9579,0.9579,0.9579,0.9579,0.0,0.0,0.0,0.0,0.0,0.0,-0.6309,0.0,-0.629,-0.6407,-0.6381,-0.6381,-0.6387,-0.6387,-0.6037,-0.4985,-0.4834,-0.4834,-0.4834,-0.5489,-0.5889,-0.5636,-0.5338,-0.509,-0.4834,-0.4784,-0.4784,-0.4784,-0.4784,-0.4784,-0.4784,-0.4784,-0.4784,-0.4784,-0.4784,-0.4784,-0.4784,-0.4784,-0.428,-0.3224,-0.3224,-0.262,-0.1563,-0.0504,-0.005,0.005,0.1111,0.1566,0.1617,0.1617,0.1617,0.1617,0.1617,0.1617,0.1617,0.1617,0.1617,0.1617,0.1617,0.1617,0.1617,0.1617,0.1617,0.1617,0.1617,0.1969,0.2422,0.2422,0.2775,0.318,0.318,0.318,0.318,0.318,0.318,0.318,0.318,0.318,0.318,0.318,0.318,0.318,0.318,0.318,0.318,0.318,0.318,0.318,0.318,0.318,0.318,0.318,0.318,0.318,0.318,0.318,0.318,0.318,0.323,0.323,0.323,0.4284,0.5381,0.6423,0.7521,0.8574,0.9579,0.9579,0.9579,0.9579,0.9579,0.9579,-0.9725,0.0,0.0,0.0,0.0,0.0,0.0,0.0,-0.6064,-0.6274,-0.6314,-0.6339,-0.6371,-0.5787,-0.5135,-0.4834,-0.5436,-0.5937,-0.5937,-0.5989,-0.5889,-0.5636,-0.5338,-0.509,-0.4834,-0.4784,-0.4784,0.0,-0.4784,-0.4784,-0.4784,-0.4784,-0.4784,-0.4784,-0.4784,-0.4784,-0.4784,-0.4784,-0.428,-0.3224,-0.3224,-0.262,-0.1613,-0.131,-0.0756,0.0,0.0303,0.0858,0.1617,0.1617,0.1617,0.1617,0.1617,0.1617,0.1617,0.1617,0.1617,0.1617,0.1617,0.1617,0.1617,0.1617,0.1617,0.1617,0.1617,0.1969,0.2422,0.2422,0.2775,0.318,0.318,0.318,0.318,0.318,0.318,0.318,0.318,0.318,0.318,0.318,0.318,0.318,0.318,0.318,0.318,0.318,0.318,0.318,0.318,0.318,0.318,0.318,0.318,0.318,0.318,0.318,0.318,0.318,0.3932,0.4334,0.4334,0.6129,0.7276,0.7574,0.8623,0.9327,0.9579,0.9579,0.9579,0.9579,0.9579,0.9579,0.0,0.0,0.0,0.0,0.0,0.0,-0.5913,-0.5817,-0.5915,0.0,-0.6317,-0.6304,-0.6365,-0.5884,-0.5486,-0.5486,-0.5984,-0.6184,-0.5634,-0.5737,-0.5739,-0.5489,-0.5188,-0.4987,-0.4834,-0.4784,-0.4784,-0.4784,-0.4784,-0.4784,-0.4784,-0.4784,-0.4784,-0.4784,-0.4784,-0.4784,-0.4784,-0.4784,-0.4481,-0.3879,-0.3879,-0.3525,-0.2922,-0.2469,-0.1914,-0.1309,-0.0403,0.0101,0.0353,0.1212,0.1617,0.1617,0.1617,0.1617,0.1617,0.1617,0.1617,0.1617,0.1617,0.1617,0.1617,0.1617,0.1617,0.1617,0.1617,0.1919,0.2271,0.2371,0.2775,0.318,0.318,0.318,0.318,0.318,0.318,0.318,0.318,0.318,0.318,0.318,0.318,0.318,0.318,0.318,0.318,0.318,0.318,0.318,0.318,0.318,0.318,0.318,0.318,0.318,0.318,0.318,0.318,0.318,0.4183,0.4784,0.4784,0.6877,0.8021,0.8021,0.9076,0.9579,0.9579,0.9579,0.9579,0.9579,0.9579,0.9579,0.0,0.0,0.0,0.0,0.0,0.0,-0.6218,-0.5832,-0.5822,0.0,-0.6268,-0.6263,-0.6377,-0.6357,-0.6365,-0.6349,-0.6368,-0.5934,-0.473,-0.5183,-0.5486,-0.524,-0.4987,-0.4784,-0.4784,-0.4784,-0.4784,-0.4784,-0.4784,-0.4784,-0.4784,-0.4784,-0.4784,-0.4784,-0.4784,-0.4784,-0.4784,-0.4784,-0.4784,-0.4784,-0.4784,-0.4784,-0.4784,-0.3827,-0.3324,-0.3073,-0.1158,-0.0806,-0.1462,0.0454,0.1313,0.1414,0.1566,0.1617,0.1617,0.1617,0.1617,0.1617,0.1617,0.1617,0.1617,0.1617,0.1617,0.1617,0.1617,0.1768,0.2071,0.2372,0.2826,0.318,0.318,0.318,0.318,0.318,0.318,0.318,0.318,0.318,0.318,0.318,0.318,0.318,0.318,0.318,0.318,0.318,0.318,0.318,0.318,0.318,0.318,0.318,0.318,0.318,0.318,0.318,0.318,0.318,0.4183,0.4834,0.4983,0.6927,0.8071,0.8173,0.9126,0.9579,0.9579,0.9579,0.9579,0.9579,0.9579,0.9579,-1.1337,0.0,0.0,0.0,0.0,0.0,-0.6739,-0.6124,-0.571,0.0,-0.5912,-0.601,-0.6132,-0.6236,-0.6268,-0.617,-0.6121,-0.5989,-0.5739,-0.5636,-0.5486,-0.524,-0.4987,-0.4784,-0.4784,-0.4784,-0.4784,-0.4784,-0.4784,-0.4784,-0.4784,-0.4784,-0.4784,-0.4784,-0.4784,-0.4784,-0.4784,-0.4784,-0.4784,-0.4784,-0.4784,-0.4784,-0.4784,-0.4582,-0.4029,-0.3173,-0.277,-0.2217,-0.1563,-0.116,-0.0454,0.0403,0.1262,0.1617,0.1617,0.1617,0.1617,0.1617,0.1617,0.1617,0.1617,0.1617,0.1617,0.1617,0.1617,0.1768,0.2122,0.2574,0.2977,0.318,0.318,0.318,0.318,0.318,0.318,0.318,0.318,0.318,0.318,0.318,0.318,0.318,0.318,0.318,0.318,0.318,0.318,0.318,0.318,0.318,0.318,0.318,0.318,0.318,0.318,0.318,0.318,0.318,0.4183,0.5183,0.6077,0.7322,0.8425,0.9274,0.9476,0.9579,0.9579,0.9579,0.9579,0.9579,0.9579,0.9579,-1.1684,0.0,0.0,-1.058,0.0,0.0,0.0,-0.6671,-0.6263,-0.5962,-0.5907,-0.5958,-0.6143,-0.6179,-0.6179,-0.6179,-0.6179,-0.6108,-0.5958,-0.5655,-0.5288,-0.5037,-0.4885,-0.4784,-0.4784,-0.4784,-0.4784,-0.4784,-0.4784,-0.4784,-0.4784,-0.4784,-0.4784,-0.4784,-0.4784,-0.4784,-0.4784,-0.4784,-0.4784,-0.4784,-0.4784,-0.4784,-0.4784,-0.4784,-0.4481,-0.3977,-0.3425,-0.3173,-0.3123,-0.2016,-0.1613,-0.1461,0.0151,0.0807,0.0858,0.1414,0.1617,0.1617,0.1617,0.1617,0.1617,0.1617,0.1617,0.1617,0.1617,0.1869,0.2271,0.2522,0.2876,0.318,0.318,0.318,0.318,0.318,0.318,0.318,0.318,0.318,0.318,0.318,0.318,0.318,0.318,0.318,0.318,0.318,0.318,0.318,0.318,0.318,0.318,0.318,0.318,0.318,0.318,0.318,0.318,0.318,0.4183,0.5281,0.6373,0.7422,0.8524,0.9579,0.9579,0.9579,0.9579,0.9579,0.9579,0.9579,0.9579,0.9579,0.0,0.0,0.0,0.0,0.0,-0.989,0.0,0.0,0.0,-0.6388,-0.6058,0.0,0.0,0.0,0.0,-0.6154,0.0,0.0,0.0,-0.5466,0.0,-0.4908,-0.481,-0.4766,-0.4782,-0.4784,-0.4784,-0.4784,-0.4784,-0.4784,-0.4784,-0.4784,-0.4784,-0.4784,-0.4784,-0.4784,-0.4784,-0.4784,-0.4784,-0.4784,-0.4784,-0.4784,-0.4784,-0.4784,-0.4784,-0.4734,-0.3879,-0.3979,-0.4684,-0.2922,-0.272,-0.3274,-0.1159,-0.0302,-0.0202,0.0656,0.1111,0.1313,0.1313,0.1414,0.1617,0.1617,0.1617,0.1617,0.1617,0.1919,0.2321,0.2321,0.2725,0.313,0.313,0.318,0.318,0.318,0.318,0.318,0.318,0.318,0.318,0.318,0.318,0.318,0.318,0.318,0.318,0.318,0.318,0.318,0.318,0.318,0.318,0.318,0.318,0.318,0.318,0.318,0.318,0.318,0.4033,0.4981,0.6027,0.7322,0.8524,0.9579,0.9579,0.9579,0.9579,0.9579,0.9579,0.9579,0.9579,0.9579,0.0,0.0,0.0,0.0,-1.1175,0.0,0.0,0.0,-0.7196,-0.6947,0.0,0.0,0.0,0.0,0.0,0.0,0.0,0.0,-0.5547,-0.5393,-0.5255,-0.5099,-0.4867,-0.4753,-0.4776,-0.4784,-0.4784,-0.4784,-0.4784,-0.4784,-0.4784,-0.4784,-0.4784,-0.4784,-0.4784,-0.4784,-0.4784,-0.4784,-0.4784,-0.4784,-0.4784,-0.4784,-0.4784,-0.4784,-0.4784,-0.4784,-0.4684,-0.4684,-0.4784,-0.4533,-0.4533,-0.4381,-0.2267,-0.1412,-0.1412,-0.1261,-0.0655,0.0202,0.0202,0.0807,0.1617,0.1617,0.1617,0.1617,0.1617,0.1819,0.2021,0.2021,0.2424,0.2826,0.2826,0.3027,0.318,0.318,0.318,0.318,0.318,0.318,0.318,0.318,0.318,0.318,0.318,0.318,0.318,0.318,0.318,0.318,0.318,0.318,0.318,0.318,0.318,0.318,0.318,0.318,0.318,0.318,0.3331,0.3882,0.4933,0.6927,0.8524,0.9579,0.9579,0.9579,0.9579,0.9579,0.9579,0.9579,0.9579,0.9579,0.0,0.0,0.0,0.0,0.0,0.0,-1.0222,0.0,-0.8633,0.0,0.0,0.0,0.0,0.0,0.0,0.0,-0.5823,0.0,0.0,0.0,-0.5465,-0.5329,0.0,0.0,-0.4995,-0.4854,-0.4764,-0.4765,-0.4758,-0.4764,-0.4765,-0.4758,-0.4784,-0.4784,-0.4784,-0.4784,-0.4784,-0.4784,-0.4784,-0.4784,-0.4784,-0.4784,-0.4784,-0.4784,-0.4784,-0.4784,-0.4784,-0.4784,-0.4784,-0.4784,-0.4784,-0.4734,-0.3827,-0.3073,-0.2469,-0.1815,-0.0907,0.0,0.0,0.0706,0.1617,0.1617,0.1617,0.1617,0.1617,0.1768,0.2022,0.2022,0.2373,0.2775,0.2775,0.2977,0.318,0.318,0.318,0.318,0.318,0.318,0.318,0.318,0.318,0.318,0.318,0.318,0.318,0.318,0.318,0.318,0.318,0.318,0.318,0.318,0.318,0.318,0.318,0.318,0.318,0.318,0.3783,0.4634,0.5677,0.7176,0.8524,0.9579,0.9579,0.9579,0.9579,0.9579,0.9579,0.9579,0.9579,0.9579,-1.3554,0.0,0.0,0.0,0.0,0.0,0.0,0.0,0.0,0.0,0.0,0.0,0.0,0.0,0.0,0.0,0.0,-0.589,0.0,-0.5752,0.0,0.0,0.0,0.0,0.0,-0.4954,-0.4843,-0.4808,-0.4765,-0.4783,-0.4745,-0.4752,-0.4784,-0.4784,-0.4784,-0.4784,-0.4784,-0.4784,-0.4784,-0.4784,-0.4784,-0.4784,-0.4784,-0.4784,-0.4784,-0.4784,-0.4784,-0.4784,-0.4784,-0.4784,-0.4784,-0.4784,-0.4784,-0.4331,-0.3525,-0.2771,-0.1813,-0.0857,-0.0554,0.0454,0.1617,0.1617,0.1617,0.1617,0.1617,0.1718,0.187,0.187,0.2272,0.2674,0.2624,0.2877,0.318,0.313,0.313,0.318,0.318,0.318,0.318,0.318,0.318,0.318,0.318,0.318,0.318,0.318,0.318,0.318,0.318,0.318,0.318,0.318,0.318,0.318,0.318,0.318,0.318,0.318,0.3932,0.4832,0.5927,0.6974,0.8071,0.9126,0.9426,0.9579,0.9579,0.9579,0.9579,0.9579,0.9579,0.9579,0.0,0.0,0.0,-1.2409,0.0,0.0,0.0,0.0,-1.0289,0.0,0.0,0.0,0.0,0.0,0.0,0.0,0.0,0.0,0.0,0.0,0.0,0.0,0.0,0.0,0.0,-0.4991,-0.4945,-0.5085,-0.4857,-0.4747,-0.4776,-0.4782,-0.4784,-0.4784,-0.4784,-0.4784,-0.4784,-0.4784,-0.4784,-0.4784,-0.4784,-0.4784,-0.4784,-0.4784,-0.4784,-0.4784,-0.4784,-0.4784,-0.4784,-0.4784,-0.4784,-0.4784,-0.4784,-0.4784,-0.4734,-0.4734,-0.4029,-0.2972,-0.1915,-0.0151,0.1617,0.1617,0.1617,0.1617,0.1617,0.1617,0.1617,0.1617,0.2019,0.2371,0.2071,0.2626,0.313,0.2876,0.3027,0.318,0.318,0.318,0.318,0.318,0.318,0.318,0.318,0.318,0.318,0.318,0.318,0.318,0.318,0.318,0.318,0.318,0.318,0.318,0.318,0.318,0.318,0.318,0.323,0.3732,0.4784,0.5877,0.6971,0.8024,0.9076,0.9579,0.9579,0.9579,0.9579,0.9579,0.9579,0.9579,-1.5032,-1.4103,-1.3349,-1.2592,0.0,0.0,0.0,0.0,0.0,0.0,0.0,0.0,0.0,0.0,0.0,0.0,0.0,0.0,0.0,0.0,0.0,0.0,0.0,0.0,0.0,0.0,-0.503,-0.4949,-0.4822,0.0,-0.4753,-0.4754,-0.4784,-0.4784,-0.4784,-0.4784,-0.4784,-0.4784,-0.4784,-0.4784,-0.4784,-0.4784,-0.4784,-0.4784,-0.4784,-0.4784,-0.4784,-0.4784,-0.4784,-0.4784,-0.4784,-0.4784,-0.4784,-0.4784,-0.4784,-0.4784,-0.413,-0.2922,-0.1159,-0.005,0.0656,0.1364,0.1617,0.1617,0.1617,0.1617,0.1617,0.1819,0.212,0.2422,0.2523,0.2877,0.313,0.2876,0.3027,0.313,0.2977,0.3079,0.318,0.318,0.318,0.318,0.318,0.318,0.318,0.318,0.318,0.318,0.318,0.318,0.318,0.318,0.318,0.318,0.318,0.318,0.318,0.318,0.318,0.3682,0.4734,0.5827,0.6921,0.7971,0.9076,0.9579,0.9579,0.9579,0.9579,0.9579,0.9579,0.9579,-1.5688,-1.4616,-1.3774,-1.295,-1.227,0.0,-1.171,0.0,-1.1849,0.0,0.0,0.0,0.0,0.0,0.0,0.0,0.0,0.0,0.0,-0.8355,0.0,0.0,0.0,0.0,0.0,0.0,-0.5081,-0.5041,-0.4869,0.0,0.0,-0.4756,-0.4784,-0.4784,-0.4784,-0.4784,-0.4784,-0.4756,-0.474,-0.474,-0.4757,-0.4741,-0.4743,-0.4775,-0.474,-0.4742,-0.4772,-0.4784,-0.4784,-0.4784,-0.4784,-0.4784,-0.4784,-0.4784,-0.4784,-0.4784,-0.413,-0.3022,-0.1611,-0.0907,-0.0403,0.0706,0.1009,0.1111,0.1465,0.1617,0.1617,0.1819,0.207,0.2322,0.2474,0.2777,0.3027,0.2826,0.3027,0.313,0.2876,0.3027,0.318,0.3079,0.313,0.318,0.318,0.318,0.318,0.318,0.318,0.318,0.318,0.318,0.318,0.318,0.318,0.318,0.318,0.318,0.318,0.318,0.318,0.3531,0.4183,0.5279,0.6179,0.6828,0.7925,0.8673,0.9027,0.9027,0.9225,0.9579,0.9579,0.9579]},{"header":{"parameterUnit":"m.s-1","parameterCategory":1,"la1":30.6,"la2":29.2853,"lo1":-89.7004,"lo2":-87.6739,"dy":0.0162,"dx":0.0183,"nx":112,"ny":82,"refTime":"2024-05-27T06:00:00:Z","depth":0,"parameterNumber":3,"parameterNumberName":"V-component_of_WINDS"},"data":[0.0,0.0,0.0,0.0,0.0,0.0,0.0,0.0,0.0,0.0,0.0,0.0,0.0,0.0,0.0,0.0,0.0,0.0,0.0,0.0,0.0,0.0,0.0,0.0,0.0,0.0,0.0,0.0,0.0,0.0,0.0,0.0,0.0,0.0,0.0,0.0,0.0,0.0,0.0,0.0,0.0,0.0,0.0,0.0,0.0,0.0,0.0,0.0,0.0,0.0,0.0,0.0,0.0,0.0,0.0,0.0,0.0,0.0,0.0,0.0,0.0,0.0,0.0,0.0,0.0,0.0,0.0,0.0,0.0,0.0,0.0,0.0,0.0,0.0,0.0,0.0,0.0,0.0,0.0,0.0,0.0,0.0,0.0,0.0,0.0,0.0,0.0,0.0,0.0,0.0,2.8283,2.7914,2.7663,2.7404,2.7082,2.701,2.6621,2.5817,0.0,0.0,0.0,0.0,0.0,0.0,0.0,0.0,0.0,0.0,0.0,0.0,0.0,0.0,0.0,0.0,0.0,0.0,0.0,0.0,0.0,0.0,0.0,0.0,0.0,0.0,0.0,0.0,0.0,0.0,0.0,0.0,0.0,0.0,0.0,0.0,0.0,0.0,0.0,0.0,0.0,0.0,0.0,0.0,0.0,0.0,0.0,0.0,0.0,0.0,0.0,0.0,0.0,0.0,0.0,0.0,0.0,0.0,0.0,0.0,0.0,0.0,0.0,0.0,0.0,0.0,0.0,0.0,0.0,0.0,0.0,0.0,0.0,0.0,0.0,0.0,0.0,0.0,0.0,0.0,0.0,0.0,0.0,0.0,0.0,0.0,0.0,0.0,0.0,0.0,0.0,0.0,0.0,0.0,0.0,0.0,0.0,0.0,0.0,0.0,0.0,0.0,0.0,0.0,2.7829,2.6922,2.6788,2.6917,2.7308,2.7326,2.7356,2.7423,0.0,0.0,0.0,0.0,0.0,0.0,0.0,0.0,0.0,0.0,0.0,0.0,0.0,0.0,0.0,0.0,0.0,0.0,0.0,0.0,0.0,0.0,0.0,0.0,0.0,0.0,0.0,0.0,0.0,0.0,0.0,0.0,0.0,0.0,0.0,0.0,0.0,0.0,0.0,0.0,0.0,0.0,0.0,0.0,0.0,0.0,0.0,0.0,0.0,0.0,0.0,0.0,0.0,0.0,0.0,0.0,0.0,0.0,0.0,0.0,0.0,0.0,0.0,0.0,0.0,0.0,0.0,0.0,0.0,0.0,0.0,0.0,0.0,0.0,0.0,0.0,0.0,0.0,0.0,0.0,0.0,0.0,0.0,0.0,0.0,0.0,0.0,0.0,0.0,0.0,0.0,0.0,0.0,0.0,0.0,0.0,0.0,0.0,0.0,0.0,0.0,0.0,0.0,2.7455,2.7702,2.7242,2.695,2.6823,2.6956,2.7339,2.7323,2.6753,2.6379,0.0,0.0,0.0,0.0,0.0,0.0,0.0,0.0,0.0,0.0,0.0,0.0,0.0,0.0,0.0,0.0,0.0,0.0,0.0,0.0,0.0,0.0,0.0,0.0,0.0,0.0,0.0,0.0,0.0,0.0,0.0,0.0,0.0,0.0,0.0,0.0,0.0,0.0,0.0,0.0,0.0,0.0,0.0,0.0,0.0,0.0,0.0,0.0,0.0,0.0,0.0,0.0,0.0,0.0,0.0,0.0,0.0,0.0,0.0,0.0,0.0,0.0,0.0,0.0,0.0,0.0,0.0,0.0,0.0,0.0,0.0,0.0,0.0,0.0,0.0,0.0,0.0,0.0,0.0,0.0,0.0,0.0,0.0,0.0,0.0,0.0,0.0,0.0,0.0,0.0,0.0,0.0,0.0,0.0,0.0,0.0,0.0,0.0,0.0,0.0,0.0,0.0,2.7883,2.7771,2.7716,2.7183,2.6862,2.6954,2.7368,2.7186,2.6157,2.634,0.0,0.0,0.0,0.0,0.0,0.0,0.0,0.0,0.0,0.0,0.0,0.0,0.0,0.0,0.0,0.0,0.0,0.0,0.0,0.0,0.0,0.0,0.0,0.0,0.0,0.0,0.0,0.0,0.0,0.0,0.0,0.0,0.0,0.0,0.0,0.0,0.0,0.0,0.0,0.0,0.0,0.0,0.0,0.0,0.0,0.0,0.0,0.0,0.0,0.0,0.0,0.0,0.0,0.0,0.0,0.0,0.0,0.0,0.0,0.0,0.0,0.0,0.0,0.0,0.0,0.0,0.0,0.0,0.0,0.0,0.0,0.0,0.0,0.0,0.0,0.0,0.0,0.0,0.0,0.0,0.0,0.0,0.0,0.0,0.0,0.0,0.0,0.0,0.0,0.0,0.0,0.0,0.0,0.0,0.0,0.0,0.0,0.0,0.0,0.0,0.0,0.0,2.794,2.7982,2.7745,2.7048,2.6986,2.7905,2.7643,2.7272,2.6951,2.6483,0.0,0.0,0.0,0.0,0.0,0.0,0.0,0.0,0.0,0.0,0.0,0.0,0.0,0.0,0.0,0.0,0.0,0.0,0.0,0.0,0.0,0.0,0.0,0.0,0.0,0.0,0.0,0.0,0.0,0.0,0.0,0.0,0.0,0.0,0.0,0.0,0.0,0.0,0.0,0.0,0.0,0.0,0.0,0.0,0.0,0.0,0.0,0.0,0.0,0.0,0.0,0.0,0.0,0.0,0.0,0.0,0.0,0.0,0.0,0.0,0.0,0.0,0.0,0.0,0.0,0.0,0.0,0.0,0.0,0.0,0.0,0.0,0.0,0.0,0.0,0.0,0.0,0.0,0.0,0.0,0.0,0.0,0.0,0.0,0.0,0.0,0.0,0.0,0.0,0.0,0.0,0.0,0.0,0.0,0.0,0.0,0.0,0.0,0.0,0.0,0.0,0.0,2.8179,2.8246,0.0,2.7688,2.7758,2.8301,2.8182,2.7969,2.7701,0.0,0.0,0.0,0.0,0.0,0.0,0.0,0.0,0.0,0.0,0.0,0.0,0.0,0.0,0.0,0.0,0.0,0.0,0.0,0.0,0.0,0.0,0.0,0.0,0.0,0.0,0.0,0.0,0.0,0.0,0.0,0.0,0.0,0.0,0.0,0.0,0.0,0.0,0.0,0.0,0.0,0.0,0.0,0.0,0.0,0.0,0.0,0.0,0.0,0.0,0.0,0.0,0.0,0.0,0.0,0.0,0.0,0.0,0.0,0.0,0.0,0.0,0.0,0.0,0.0,0.0,0.0,0.0,0.0,0.0,0.0,0.0,0.0,0.0,0.0,0.0,0.0,0.0,0.0,0.0,0.0,0.0,0.0,0.0,0.0,0.0,0.0,0.0,0.0,0.0,0.0,0.0,0.0,0.0,0.0,0.0,0.0,0.0,0.0,0.0,0.0,0.0,2.8267,2.8466,2.8559,0.0,2.8232,2.8298,2.8473,2.8591,2.8438,2.7874,0.0,0.0,0.0,0.0,0.0,0.0,0.0,0.0,0.0,0.0,0.0,0.0,0.0,0.0,0.0,0.0,0.0,0.0,0.0,0.0,0.0,0.0,0.0,0.0,0.0,0.0,0.0,0.0,0.0,0.0,0.0,0.0,0.0,0.0,0.0,0.0,0.0,0.0,0.0,0.0,0.0,0.0,0.0,0.0,0.0,0.0,0.0,0.0,0.0,0.0,0.0,0.0,0.0,0.0,0.0,0.0,0.0,0.0,0.0,0.0,0.0,0.0,0.0,0.0,0.0,0.0,0.0,0.0,0.0,0.0,0.0,0.0,0.0,0.0,0.0,0.0,0.0,0.0,0.0,0.0,0.0,0.0,0.0,0.0,0.0,0.0,0.0,0.0,0.0,0.0,0.0,0.0,0.0,0.0,0.0,0.0,0.0,0.0,0.0,0.0,0.0,0.0,2.8432,2.8803,2.888,2.8541,2.8516,2.8516,2.8516,2.8815,2.8521,0.0,0.0,0.0,0.0,0.0,0.0,0.0,0.0,0.0,0.0,0.0,0.0,0.0,0.0,0.0,0.0,0.0,0.0,0.0,0.0,0.0,0.0,0.0,0.0,0.0,0.0,0.0,0.0,0.0,0.0,0.0,0.0,0.0,0.0,0.0,0.0,0.0,0.0,0.0,0.0,0.0,0.0,0.0,0.0,0.0,0.0,0.0,0.0,0.0,0.0,0.0,0.0,0.0,0.0,0.0,0.0,0.0,0.0,0.0,0.0,0.0,0.0,0.0,0.0,0.0,0.0,0.0,0.0,0.0,0.0,0.0,0.0,0.0,0.0,0.0,0.0,0.0,0.0,0.0,0.0,0.0,0.0,0.0,0.0,0.0,0.0,0.0,0.0,0.0,0.0,0.0,0.0,0.0,0.0,0.0,0.0,0.0,0.0,0.0,0.0,0.0,0.0,0.0,2.8794,2.9104,2.9178,2.8874,2.885,2.8938,2.9127,2.906,2.859,2.7638,0.0,0.0,0.0,0.0,0.0,0.0,0.0,0.0,0.0,0.0,0.0,0.0,0.0,0.0,0.0,0.0,0.0,0.0,0.0,0.0,0.0,0.0,0.0,0.0,0.0,0.0,0.0,0.0,0.0,0.0,0.0,0.0,0.0,0.0,0.0,0.0,0.0,0.0,0.0,0.0,0.0,0.0,0.0,0.0,0.0,0.0,0.0,0.0,0.0,0.0,0.0,0.0,0.0,0.0,0.0,0.0,0.0,0.0,0.0,0.0,0.0,0.0,0.0,0.0,0.0,0.0,0.0,0.0,0.0,0.0,0.0,0.0,0.0,0.0,0.0,0.0,0.0,0.0,0.0,0.0,0.0,0.0,0.0,0.0,0.0,0.0,0.0,0.0,0.0,0.0,0.0,0.0,0.0,0.0,0.0,0.0,0.0,0.0,0.0,0.0,0.0,0.0,2.8539,2.909,2.9336,2.9178,2.9156,2.9211,2.9386,2.9262,2.8658,2.7466,0.0,0.0,0.0,0.0,0.0,0.0,0.0,0.0,0.0,0.0,0.0,0.0,0.0,0.0,0.0,0.0,0.0,0.0,0.0,0.0,0.0,0.0,0.0,0.0,0.0,0.0,0.0,0.0,0.0,0.0,0.0,0.0,0.0,0.0,0.0,0.0,0.0,0.0,0.0,0.0,0.0,0.0,0.0,0.0,0.0,0.0,0.0,0.0,0.0,0.0,0.0,0.0,0.0,0.0,0.0,0.0,0.0,0.0,0.0,0.0,0.0,0.0,0.0,0.0,0.0,0.0,0.0,0.0,0.0,0.0,0.0,0.0,0.0,0.0,0.0,0.0,0.0,0.0,0.0,0.0,0.0,0.0,0.0,0.0,0.0,0.0,0.0,0.0,0.0,0.0,0.0,0.0,0.0,0.0,0.0,0.0,0.0,0.0,0.0,0.0,0.0,0.0,2.8114,2.8913,2.9396,2.9396,2.9396,2.9396,2.9396,2.9396,2.8672,2.6999,0.0,0.0,0.0,0.0,0.0,0.0,0.0,0.0,0.0,0.0,0.0,0.0,0.0,0.0,0.0,0.0,0.0,0.0,0.0,0.0,0.0,0.0,0.0,0.0,0.0,0.0,0.0,0.0,0.0,0.0,0.0,0.0,0.0,0.0,0.0,0.0,0.0,0.0,0.0,0.0,0.0,0.0,0.0,0.0,0.0,0.0,0.0,0.0,0.0,0.0,0.0,0.0,0.0,0.0,0.0,0.0,0.0,0.0,0.0,0.0,3.1998,0.0,0.0,0.0,0.0,0.0,0.0,0.0,0.0,0.0,0.0,0.0,0.0,0.0,0.0,0.0,0.0,0.0,0.0,0.0,0.0,0.0,0.0,0.0,0.0,0.0,0.0,0.0,0.0,0.0,0.0,0.0,0.0,0.0,0.0,0.0,0.0,0.0,0.0,0.0,0.0,0.0,2.9006,2.9285,2.9396,2.9396,2.9396,2.9396,2.9396,2.9396,2.8672,2.6999,2.6907,0.0,0.0,0.0,0.0,0.0,0.0,0.0,0.0,0.0,0.0,0.0,0.0,0.0,0.0,0.0,0.0,0.0,0.0,0.0,0.0,0.0,0.0,0.0,0.0,0.0,0.0,0.0,0.0,0.0,0.0,0.0,0.0,0.0,0.0,0.0,0.0,0.0,0.0,0.0,0.0,0.0,0.0,0.0,0.0,0.0,0.0,0.0,0.0,0.0,0.0,0.0,0.0,0.0,0.0,0.0,0.0,0.0,0.0,0.0,0.0,3.1797,0.0,0.0,0.0,0.0,0.0,0.0,0.0,0.0,0.0,0.0,0.0,0.0,0.0,0.0,0.0,0.0,0.0,0.0,0.0,0.0,0.0,0.0,0.0,0.0,0.0,0.0,0.0,0.0,0.0,0.0,0.0,0.0,0.0,0.0,0.0,0.0,0.0,0.0,0.0,0.0,2.8709,2.9136,2.9396,2.9396,2.9396,2.9396,2.9396,2.9025,2.8244,2.6981,2.6535,0.0,0.0,0.0,0.0,0.0,0.0,0.0,0.0,0.0,0.0,0.0,0.0,0.0,0.0,0.0,0.0,0.0,0.0,0.0,0.0,0.0,0.0,0.0,0.0,0.0,0.0,0.0,0.0,0.0,0.0,0.0,0.0,0.0,0.0,0.0,0.0,0.0,0.0,0.0,0.0,0.0,0.0,0.0,0.0,0.0,0.0,0.0,0.0,0.0,0.0,0.0,0.0,0.0,3.4914,3.4773,3.4643,3.4643,3.4643,3.455,3.3271,3.2899,3.3131,3.1942,0.0,0.0,0.0,0.0,0.0,0.0,0.0,0.0,0.0,0.0,0.0,0.0,0.0,0.0,0.0,0.0,0.0,0.0,0.0,0.0,0.0,0.0,0.0,0.0,3.2568,3.2151,3.0328,0.0,0.0,0.0,0.0,0.0,0.0,0.0,0.0,0.0,0.0,0.0,2.835,2.8993,2.9419,2.9407,2.9419,2.944,2.944,2.8657,2.782,2.7,2.6154,2.541,0.0,0.0,0.0,0.0,0.0,0.0,0.0,0.0,0.0,0.0,0.0,0.0,0.0,0.0,0.0,0.0,0.0,0.0,0.0,0.0,0.0,0.0,0.0,0.0,0.0,0.0,0.0,0.0,0.0,0.0,0.0,0.0,3.3592,3.5579,0.0,0.0,0.0,0.0,0.0,0.0,0.0,0.0,0.0,0.0,0.0,0.0,0.0,3.4243,3.4068,3.5329,3.5781,3.5459,3.6785,3.7039,3.6383,3.6383,3.6383,3.6378,3.6325,0.0,3.4067,3.4637,0.0,0.0,0.0,0.0,0.0,0.0,0.0,0.0,0.0,0.0,0.0,0.0,0.0,0.0,0.0,0.0,0.0,0.0,0.0,0.0,0.0,0.0,3.3585,3.2837,3.318,3.3399,0.0,3.2162,3.2011,3.0995,3.0259,0.0,0.0,0.0,0.0,0.0,0.0,0.0,2.9401,2.9495,2.9522,2.9399,2.9502,2.957,2.957,2.8829,2.8032,2.7215,2.6235,2.5695,2.5713,2.504,0.0,0.0,0.0,0.0,0.0,0.0,0.0,0.0,0.0,0.0,0.0,0.0,0.0,0.0,0.0,0.0,0.0,0.0,0.0,0.0,0.0,0.0,0.0,0.0,0.0,0.0,0.0,0.0,0.0,3.3488,3.4617,3.5468,3.5169,3.4613,0.0,0.0,0.0,0.0,0.0,0.0,0.0,0.0,0.0,3.6293,3.6677,3.7242,3.8079,3.9188,3.9364,3.8665,3.9368,3.9274,3.8435,3.8435,3.8435,3.8446,3.8543,3.8116,3.7273,3.6305,3.5676,3.5281,0.0,0.0,0.0,0.0,3.4396,3.3828,3.4978,3.5077,3.4579,3.3721,0.0,0.0,0.0,0.0,0.0,0.0,0.0,0.0,0.0,0.0,3.4069,3.4237,3.4544,3.4683,3.424,3.4137,3.3681,0.0,3.1929,3.1648,3.0662,0.0,0.0,0.0,0.0,2.9928,3.0381,3.006,2.9742,2.9681,2.9725,2.9777,2.9777,2.9022,2.8218,2.7368,2.6829,2.6408,2.6072,2.6094,2.6086,0.0,0.0,0.0,0.0,0.0,0.0,0.0,0.0,0.0,0.0,0.0,0.0,0.0,0.0,0.0,0.0,0.0,0.0,0.0,0.0,0.0,0.0,0.0,0.0,0.0,0.0,0.0,0.0,3.5043,3.5621,3.6003,3.6294,3.6,0.0,0.0,0.0,0.0,0.0,0.0,3.7673,3.7135,3.7393,3.8627,3.93,4.023,4.1426,4.2079,4.2067,4.143,4.143,4.1089,4.0471,4.0471,4.0339,4.0149,4.0184,4.0102,3.9741,3.7669,3.6805,3.6739,3.5875,3.5542,3.5618,3.6321,3.6177,3.5823,3.7269,3.7384,3.6749,3.5879,3.5431,3.5044,3.3813,0.0,0.0,0.0,0.0,3.3293,3.4102,3.4312,3.4515,3.5306,3.55,3.55,3.55,3.55,3.504,0.0,3.35,3.335,3.2045,0.0,0.0,0.0,0.0,3.082,3.1428,3.0782,3.0254,3.0205,3.0048,2.9939,2.9939,2.9205,2.8464,2.7818,2.7448,2.713,2.6901,2.7165,2.7176,2.6908,0.0,0.0,0.0,0.0,0.0,0.0,0.0,0.0,0.0,0.0,0.0,0.0,0.0,0.0,0.0,0.0,0.0,0.0,0.0,0.0,0.0,0.0,0.0,0.0,0.0,0.0,0.0,0.0,0.0,3.865,3.7087,0.0,0.0,0.0,0.0,3.8296,3.9837,4.1109,4.1938,4.2014,4.2049,4.2155,4.2193,4.2249,4.2344,4.2382,4.2371,4.2333,4.2333,4.2314,4.2257,4.2257,4.181,4.1051,4.1244,4.0893,4.0081,3.8944,3.8483,3.8407,3.7593,3.727,3.7299,3.7544,3.7587,3.7594,3.789,3.7962,3.7788,3.6916,3.6108,3.558,3.6131,3.5723,0.0,0.0,3.5065,3.51,3.5355,3.5416,3.5435,3.55,3.55,3.55,3.55,3.55,3.5474,0.0,3.4717,3.4087,3.3815,0.0,3.263,3.263,3.2592,3.2573,3.2611,3.1866,3.126,3.1056,3.0472,3.0095,3.0095,2.9351,2.8868,2.8829,2.793,2.7794,2.8727,2.8007,2.795,2.8753,2.7205,0.0,0.0,0.0,0.0,0.0,0.0,0.0,0.0,0.0,0.0,0.0,0.0,0.0,0.0,0.0,0.0,0.0,0.0,0.0,0.0,0.0,0.0,0.0,0.0,0.0,0.0,0.0,0.0,4.0688,4.0426,0.0,3.9517,4.0125,4.0455,4.0249,4.1481,4.2383,4.2737,4.2776,4.3034,4.3609,4.3628,4.3896,4.4461,4.4461,4.4193,4.3628,4.3628,4.336,4.2852,4.2852,4.268,4.2393,4.2466,4.2012,4.1198,4.082,4.0334,3.9778,3.95,3.9385,3.9393,3.9471,3.9495,3.9522,3.9569,3.9611,3.9477,3.8642,3.7796,3.7154,3.7398,3.7241,3.7003,3.6991,3.6607,3.6185,3.6255,3.5885,3.55,3.55,3.55,3.55,3.55,3.55,3.55,3.55,3.525,3.4839,3.4196,3.3862,3.367,3.367,3.3184,3.303,3.3594,3.2903,3.2345,3.2271,3.1577,3.113,3.113,3.0343,2.9639,2.9069,2.909,2.9096,2.9025,2.913,2.9149,2.9025,2.843,2.7491,0.0,0.0,0.0,0.0,0.0,0.0,0.0,0.0,0.0,0.0,0.0,0.0,0.0,0.0,0.0,0.0,0.0,0.0,0.0,0.0,0.0,0.0,0.0,0.0,0.0,0.0,4.0484,4.1964,4.2363,4.2256,4.1537,4.2384,4.2747,4.2216,4.3178,4.3798,4.3816,4.3852,4.4128,4.472,4.4739,4.5017,4.5594,4.5594,4.5306,4.4739,4.4739,4.4451,4.3932,4.3932,4.3778,4.3508,4.3508,4.3028,4.222,4.1923,4.147,4.0912,4.0612,4.0496,4.0496,4.0496,4.0496,4.0496,4.0496,4.0323,4.0054,3.9785,3.913,3.8488,3.8757,3.8642,3.843,3.843,3.7815,3.7142,3.7142,3.6731,3.6346,3.6346,3.6115,3.5904,3.5904,3.5904,3.5904,3.5904,3.5692,3.5327,3.4737,3.4641,3.4641,3.4641,3.4141,3.3987,3.4564,3.3872,3.3333,3.3333,3.2602,3.1987,3.1718,3.1173,3.0462,2.9583,2.996,2.9992,2.9563,2.9979,2.9992,2.9544,2.9261,2.8304,2.6674,0.0,0.0,0.0,0.0,0.0,0.0,0.0,0.0,0.0,0.0,0.0,0.0,0.0,0.0,0.0,0.0,0.0,0.0,0.0,0.0,0.0,0.0,0.0,3.9566,4.1248,4.2416,4.2473,4.2728,4.2871,4.2881,4.3627,4.4144,4.4144,4.4978,4.5476,4.541,4.5541,4.5594,4.5594,4.5594,4.5594,4.5594,4.5594,4.5594,4.5594,4.5594,4.5594,4.5594,4.5594,4.5152,4.4335,4.4335,4.3874,4.3066,4.22,4.1808,4.1712,4.0835,4.0496,4.0496,4.0496,4.0496,4.0496,4.0496,3.9996,3.9477,4.0246,3.9977,3.9477,4.0265,3.9958,3.9342,3.9342,3.87,3.8046,3.8046,3.8027,3.8007,3.8007,3.7334,3.6692,3.6692,3.6692,3.6692,3.6692,3.6096,3.5577,3.5577,3.5558,3.5538,3.5538,3.5519,0.0,3.55,3.4757,3.4244,3.4244,3.3449,3.2622,3.1833,3.1737,3.1346,3.05,3.0423,3.0404,3.0404,3.0423,3.0442,3.0442,2.9544,2.8603,2.7638,0.0,0.0,0.0,0.0,0.0,0.0,0.0,0.0,0.0,0.0,0.0,0.0,0.0,0.0,0.0,0.0,0.0,0.0,0.0,0.0,0.0,0.0,4.2597,4.2734,4.2709,4.3151,4.4353,4.4578,4.4619,4.461,4.482,4.4973,4.4973,4.5255,4.5419,4.54,4.5485,4.5559,4.5594,4.5594,4.5594,4.5594,4.5594,4.5594,4.5594,4.5594,4.5594,4.5594,4.5594,4.5479,4.5248,4.5248,4.4759,4.3912,4.3085,4.2374,4.1712,4.0835,4.0496,4.0496,4.0496,4.0496,4.0496,4.0496,4.0362,4.0208,4.0439,4.0342,4.0208,4.0439,4.0342,4.0169,4.0169,3.9573,3.8931,3.8931,3.8469,3.8007,3.8007,3.7334,3.6692,3.6692,3.6692,3.6692,3.6692,3.7026,3.7315,3.7315,3.6788,3.6365,3.6365,3.5865,0.0,3.55,3.5288,3.5135,3.5135,3.4353,3.3744,3.3532,3.2391,3.1602,3.1371,3.075,3.0404,3.0404,3.1,3.1346,3.1346,2.9774,2.8811,0.0,0.0,0.0,0.0,0.0,0.0,0.0,0.0,0.0,0.0,0.0,0.0,0.0,0.0,0.0,0.0,0.0,0.0,0.0,0.0,0.0,0.0,4.2742,4.4121,4.4494,4.4131,4.4208,4.5192,4.5307,4.5307,4.5307,4.5307,4.5307,4.5307,4.536,4.539,4.54,4.5495,4.5568,4.5594,4.5594,4.5594,4.5594,4.5594,4.5594,4.5594,4.5594,4.5594,4.5594,4.5594,4.5594,4.5594,4.5594,4.5306,4.4778,4.3951,4.3297,0.0,0.0,0.0,0.0,0.0,4.0496,4.0496,4.0496,4.0496,4.0496,4.0496,4.0496,4.0496,4.0496,4.0496,4.0496,4.0496,4.0169,3.9804,3.9804,3.9463,3.905,3.867,3.7971,3.728,3.6907,3.71,3.7377,3.7377,3.8343,0.0,3.918,3.7836,3.6787,3.6781,3.608,3.5528,3.5507,3.55,3.55,3.55,3.5045,3.4603,3.4225,3.3314,0.0,0.0,0.0,3.1442,3.1442,3.1929,0.0,0.0,0.0,0.0,0.0,0.0,0.0,0.0,3.059,3.1096,0.0,0.0,0.0,0.0,0.0,0.0,0.0,0.0,0.0,0.0,0.0,0.0,0.0,0.0,0.0,0.0,4.3615,4.4418,4.5182,4.5307,4.5307,4.5307,4.5307,4.5307,4.5307,4.5307,4.5307,4.5307,4.5361,4.54,4.54,0.0,0.0,0.0,0.0,4.5586,4.5577,4.5586,4.5586,4.5586,4.5614,4.5594,4.5594,4.5594,4.5594,4.5594,4.5594,4.5594,4.5537,4.4662,4.4182,4.3797,4.1535,4.0593,4.0496,4.0496,4.0496,4.0496,4.0496,0.0,0.0,4.0496,4.0496,4.0496,4.0496,4.0496,4.0496,4.0496,4.0512,4.0519,4.0519,4.0615,4.0519,3.9733,3.8912,3.8091,3.7305,3.7679,3.8149,3.8149,3.9509,4.0655,4.0669,3.8743,3.7163,3.7077,3.6317,3.5701,3.5528,3.5521,3.5521,3.5508,0.0,0.0,3.4417,3.425,3.3878,3.3103,3.2949,3.2949,3.3045,3.2949,3.2949,3.3045,3.2949,3.2891,3.2891,3.3006,3.3045,3.3038,3.258,3.2526,0.0,0.0,0.0,0.0,0.0,0.0,0.0,0.0,0.0,0.0,0.0,0.0,0.0,0.0,0.0,4.3576,4.4494,4.5105,4.5288,4.5307,4.5307,4.5307,4.5307,4.5307,4.5307,4.5307,4.5307,4.5307,4.5361,4.54,4.54,4.5522,4.5577,4.5513,4.5513,4.5495,4.5438,4.5495,4.5513,4.5513,0.0,0.0,4.5594,4.5594,4.5594,4.5594,4.5594,4.5594,4.5537,4.4662,4.3508,4.2239,4.1739,4.1123,4.0496,4.0496,4.0496,4.0496,4.0496,4.0496,4.0496,4.0496,4.0496,4.0496,4.0496,4.0496,0.0,4.0496,4.0586,4.0655,4.0655,4.0715,4.0742,4.0563,3.9398,3.8246,3.8071,3.764,3.7247,3.7247,3.8611,3.9784,3.9889,3.945,3.8845,3.8146,3.7296,3.6445,3.5687,3.563,3.5631,3.5579,3.5574,3.5516,3.5342,3.4635,3.4129,3.3955,3.3295,3.3218,3.3917,3.3276,3.3237,3.3936,3.3256,3.2891,3.2891,3.3603,3.3955,3.393,3.314,3.3184,0.0,0.0,0.0,0.0,0.0,0.0,0.0,0.0,0.0,0.0,0.0,4.0695,0.0,0.0,4.3558,4.4493,4.501,4.5307,4.5307,4.5307,4.5307,4.5307,4.5307,4.5307,4.5307,4.5307,4.5307,4.5307,4.536,4.5409,4.5409,4.5457,4.5485,4.5448,4.5448,4.5429,4.541,4.5476,4.5504,4.5504,4.5643,4.5708,4.5708,4.5708,4.5708,4.57,4.5629,4.5594,4.5575,4.5133,4.4201,4.3008,4.2604,4.1643,4.0496,4.0496,4.0496,4.0496,4.0496,4.0496,4.0496,4.0496,4.0496,4.0512,4.0586,4.0595,4.0609,4.0636,4.0703,4.0749,4.0749,4.083,4.0801,4.035,3.9643,3.8931,3.8542,3.811,3.7915,3.8324,3.9084,3.9814,4.0311,4.0374,3.9896,3.8555,3.7614,3.6709,3.5776,3.5687,3.57,3.5655,3.5645,3.5645,3.5645,3.5184,3.4892,3.486,3.4449,3.441,3.4834,3.443,3.441,3.4834,3.443,3.4192,3.4192,3.4641,3.4853,3.4834,3.441,3.443,0.0,0.0,0.0,0.0,0.0,0.0,0.0,0.0,3.9767,3.954,4.0684,4.1961,4.2742,4.357,4.4386,4.5171,4.5307,4.5307,4.5307,4.5307,4.5307,4.5307,4.5307,4.5307,4.5307,4.5307,4.5307,4.5307,4.5359,4.5408,4.5408,4.54,4.54,4.539,4.541,4.541,4.5428,4.5503,4.5547,4.5571,4.5733,4.5828,4.5828,4.5828,4.5828,4.5822,4.568,4.5629,4.5594,4.5594,4.5094,4.4239,4.3585,4.2374,4.0958,4.0612,4.0496,4.0496,4.0496,4.0496,4.0504,4.0534,4.0542,4.0552,4.0674,4.0717,4.0734,4.0786,4.0824,4.0837,4.0837,4.094,4.0836,4.0134,3.9874,3.9624,3.8962,3.8708,3.8786,3.9449,3.9683,4.0015,4.0738,4.0992,4.0494,3.8705,3.7837,3.6997,3.5869,3.5756,3.576,3.5745,3.5741,3.5737,3.5698,3.565,3.5596,3.5528,3.5541,3.5534,3.5528,3.5521,3.5508,3.55,3.55,3.55,3.55,3.55,3.55,3.55,3.55,3.55,3.3305,3.4524,3.5735,3.6985,3.77,3.8854,0.0,0.0,4.209,4.3506,4.406,4.4354,4.4586,4.4813,4.5033,4.5267,4.5307,4.5307,4.5307,4.5307,4.5307,4.5307,4.5307,4.5307,4.5307,4.5307,4.5307,4.5307,4.5359,4.5408,4.5408,4.54,4.54,4.5399,4.5399,4.5429,4.5494,4.5563,4.5679,4.5859,4.5881,4.5883,4.5883,4.5883,4.5883,4.5878,4.5802,4.5715,4.5594,4.5594,4.5094,4.4297,4.4201,4.3605,4.2624,4.1073,4.0496,4.0496,4.0496,4.0496,4.0519,4.0636,4.0675,4.07,4.0761,4.0791,4.0796,4.0806,4.0886,4.0981,4.0981,4.1028,4.1064,4.0966,4.0363,3.978,3.9683,3.9099,3.863,3.8728,3.9312,3.9839,3.9937,4.0581,4.0522,3.8821,3.8489,3.7812,3.6103,3.5938,3.5949,3.5883,3.588,3.5833,3.5702,3.5689,3.5696,3.5687,3.5687,3.5645,3.559,3.5585,3.5552,3.55,3.55,3.55,3.55,3.55,3.55,3.55,3.55,3.55,3.5457,3.672,3.7702,0.0,4.0309,4.1793,4.1835,4.2693,4.3525,4.3745,4.4267,4.4857,4.5394,4.5584,4.5737,0.0,4.5894,4.5745,4.5343,4.5307,4.5307,4.5307,4.581,4.5945,4.5356,4.5307,4.5307,4.5307,4.5328,4.5338,4.5338,4.5339,4.539,4.5458,4.5458,4.551,4.5611,4.5675,4.577,4.59,4.5973,4.6028,4.6028,4.6028,4.5978,4.5899,4.5869,4.5835,4.5764,4.5764,4.557,4.5183,4.4718,4.4337,4.3802,4.1994,4.1303,4.1259,4.0816,4.0666,4.0678,4.0749,4.0765,4.0786,4.0882,4.0926,4.0917,4.0961,4.1008,4.1064,4.1064,4.1078,4.1109,4.1109,4.0816,4.0561,4.0561,3.9897,3.9449,3.9958,3.9917,3.9956,4.0464,4.0855,4.0699,3.9488,3.8903,3.8138,3.6871,3.6297,3.5988,3.5953,3.5951,3.5912,3.5814,3.5827,3.579,3.5702,3.5698,3.5681,3.566,3.566,3.563,3.5571,3.5565,3.5547,3.55,3.55,3.55,3.55,3.55,3.55,3.6632,3.8048,0.0,3.9711,4.2015,4.3764,4.2187,4.3206,4.4332,4.3745,4.4165,4.4829,4.5453,4.5886,4.6164,4.6304,4.6542,4.6466,4.5725,4.5621,4.5621,4.5621,4.6311,4.6599,4.6097,4.5859,4.5841,4.6081,4.5648,4.5465,4.5726,4.5724,4.5659,4.5558,4.5769,4.5841,4.577,4.5815,4.59,4.5979,4.6095,4.6167,4.6167,4.6167,4.6091,4.5964,4.5964,4.593,4.5899,4.5899,4.5899,4.5846,4.5264,4.5036,4.4831,4.3283,4.2385,4.1844,4.1072,4.081,4.0815,4.0842,4.0866,4.0882,4.098,4.1039,4.1047,4.1081,4.1109,4.1109,4.1109,4.1109,4.1109,4.1109,4.1109,4.1109,4.1109,4.06,4.0346,4.0973,4.0581,4.0366,4.0992,4.1109,4.0894,4.0249,3.9468,3.8533,3.7438,3.6539,3.5992,3.5992,3.5992,3.5983,3.5934,3.5931,3.5894,3.5788,3.5785,3.5774,3.5753,3.5753,3.5713,3.5635,3.5635,3.5593,3.5559,3.5559,3.5559,3.5559,3.5559,3.5559,3.6245,0.0,4.0126,4.0402,4.1935,4.352,4.4219,4.4444,4.4482,4.4463,4.4496,4.4556,4.4723,4.5546,4.6252,4.6373,4.7156,4.7444,4.6596,4.6462,4.6462,4.6462,4.6656,4.7079,0.0,4.7274,4.7204,4.8042,4.6488,4.5885,4.6802,4.6787,4.6432,4.5719,4.6452,4.6544,4.5894,4.5949,4.6056,4.6184,4.6269,4.6298,4.6298,4.6298,4.6216,4.6095,4.6095,4.6013,4.5899,4.5899,4.5899,4.5899,4.5861,4.5866,4.5779,4.5009,4.3592,4.1961,4.1102,4.081,4.0824,4.0948,4.0987,4.1003,4.1076,4.1108,4.1108,4.1109,4.1109,4.1109,4.1109,4.1109,4.1109,4.1109,4.1109,4.1109,4.1109,4.109,4.107,4.109,4.109,4.107,4.1109,4.1109,4.109,4.1051,4.0327,3.9175,3.7516,3.6539,3.5992,3.5992,3.5992,3.5992,3.5991,3.5991,3.5991,3.5989,3.5989,3.5955,3.5908,3.5886,3.5837,3.5693,3.5693,3.5693,3.5689,3.5689,3.5689,3.5689,3.5689,3.5689,3.743,0.0,4.0387,4.1263,4.2808,4.4177,4.4444,4.4501,4.4501,4.4501,4.4501,4.4665,4.5247,4.6111,4.6787,4.7037,4.7783,4.8085,4.7441,4.7448,4.75,4.75,4.8214,0.0,0.0,0.0,0.0,4.8186,4.7642,4.7422,4.7761,4.7739,4.7656,4.7509,4.72,4.6991,4.6907,4.6398,4.616,4.6209,4.6271,4.63,4.63,4.63,4.6273,4.624,4.624,4.6211,4.6173,4.6173,4.6173,4.6173,4.6173,4.6173,4.6078,4.5236,4.4551,4.3894,4.3036,4.2351,4.1866,4.1902,4.1536,4.1072,4.1085,4.1109,4.1109,4.1109,4.1109,4.1109,4.1109,4.1109,4.1109,4.1109,4.1109,4.1109,4.1109,4.1109,4.1109,4.1109,4.1109,4.1109,4.1109,4.1109,4.1109,4.1109,4.0366,3.9195,3.7516,3.7048,3.6636,3.6051,3.5992,3.5992,3.5992,3.5992,3.5992,3.5992,3.5992,3.5988,3.5976,3.5976,3.5916,3.5837,3.5837,3.5794,3.5698,3.5698,3.5698,3.5698,3.5698,3.6012,3.854,3.9909,4.1003,4.1801,4.3262,4.4501,4.4501,4.4501,4.4501,4.4501,4.4501,4.4651,4.519,4.6022,4.6793,4.7248,4.8111,4.8587,4.8224,4.833,4.8462,4.8462,4.9211,4.9819,0.0,0.0,0.0,4.9265,4.8647,4.8427,4.8781,4.8763,4.8658,4.8471,4.8218,4.8016,4.7831,4.7022,4.6492,4.624,4.6275,4.63,4.63,4.63,4.63,4.63,4.63,4.63,4.63,4.63,4.63,4.63,4.63,4.63,4.6222,4.5675,4.546,4.5304,4.4114,4.3333,4.2864,4.2864,4.2279,4.1557,4.1557,4.1343,4.1109,4.1109,4.1109,4.1109,4.1109,4.1109,4.1109,4.1109,4.1109,4.1109,4.1109,4.1109,4.1109,4.1109,4.1109,4.1109,4.1109,4.1109,4.1109,4.1109,4.062,3.9761,3.8375,3.7672,3.7087,3.6519,3.6187,3.5992,3.5992,3.5992,3.5992,3.5992,3.5992,3.5992,3.5992,3.5992,3.5983,3.5936,3.5936,3.588,3.582,3.582,3.582,3.582,3.6132,3.6563,3.9438,4.0675,4.1919,4.1991,4.3262,4.4501,4.4501,4.4501,4.4501,4.4501,4.4501,4.4482,0.0,0.0,4.6299,4.7035,4.8194,4.8945,4.8907,4.9171,4.9384,0.0,0.0,0.0,0.0,0.0,0.0,5.1202,0.0,4.8955,4.992,4.9841,4.9466,4.8755,4.9499,4.9499,4.8677,4.7823,4.7044,4.6357,4.6319,4.63,4.63,4.63,4.63,4.63,4.63,4.63,4.63,4.63,4.63,4.63,4.63,4.63,4.63,4.63,4.63,4.6066,4.4406,4.3803,4.3762,4.3762,4.3177,4.2474,4.2474,4.1888,4.1226,4.1226,4.1207,4.1168,4.1168,4.1129,4.1109,4.1109,4.1109,4.1109,4.1109,4.1109,4.1109,4.1109,4.1109,4.1109,4.1109,4.1109,4.1109,4.1109,4.1109,4.0797,3.9917,3.8414,3.7419,3.7379,3.6597,3.607,3.607,3.6031,3.5992,3.5992,3.5992,3.5992,3.5992,3.5992,3.5992,3.5992,3.5992,3.5992,3.5992,3.5992,3.6012,3.609,3.6911,3.734,3.9314,4.0714,4.1991,4.2004,4.3262,4.4501,4.4501,4.4501,4.4501,4.4501,4.4501,4.4313,0.0,0.0,0.0,4.6663,4.8567,0.0,5.0202,5.0407,0.0,5.0565,0.0,5.0894,5.1127,5.1184,0.0,0.0,5.0751,5.0596,5.0853,5.0829,5.0732,5.0542,5.0114,4.979,4.9576,4.8135,4.7324,4.7189,4.6585,4.6273,4.6238,4.6275,4.6273,4.6238,4.6275,4.63,4.63,4.63,4.63,4.63,4.63,4.63,4.63,4.63,4.63,4.6241,4.5792,4.5207,4.468,4.468,4.4075,4.3372,4.3372,4.3216,4.3042,4.3042,4.2572,4.2064,4.2064,4.1596,4.1109,4.1109,4.1109,4.1109,4.1109,4.1109,4.1109,4.1109,4.1109,4.1109,4.1109,4.1109,4.1109,4.1109,4.1109,4.0797,3.9917,3.9429,3.8921,3.8337,3.7497,3.697,3.697,3.6363,3.5992,3.5992,3.5992,3.5992,3.5992,3.5992,3.5992,3.5992,3.5992,3.5992,3.5992,3.5992,3.6324,3.697,3.7204,3.7965,4.0358,4.1284,4.2098,4.2474,4.3543,4.4501,4.4501,4.4219,4.397,4.397,4.3656,0.0,4.2825,4.4688,4.6308,0.0,0.0,0.0,5.0547,5.0847,5.1005,0.0,5.1121,0.0,5.1202,5.1202,5.1202,0.0,5.1202,5.1202,5.1202,5.1202,5.1202,5.1202,5.0736,5.0287,4.9901,4.8963,4.816,4.7488,4.7006,4.6579,4.6209,4.6243,4.624,4.6209,0.0,4.63,4.63,4.63,4.63,4.63,4.63,4.63,4.63,4.63,4.63,4.63,4.63,4.5987,4.5578,4.5578,4.4972,4.427,4.427,4.3997,4.3705,4.3705,4.3352,4.2962,4.2962,4.2611,4.2144,4.1752,4.1674,4.1576,4.1187,4.1109,4.1109,4.1109,4.1109,4.1109,4.1109,4.1109,4.1109,4.1109,4.1109,4.0914,4.0424,4.0034,3.9624,3.9175,3.8376,3.7711,3.7321,3.6852,3.6402,3.6012,3.5992,3.5992,3.5992,3.5992,3.5992,3.5992,3.5992,3.5992,3.5992,3.5992,3.6441,3.7301,3.7692,3.8765,4.1785,4.2079,4.2342,4.3106,4.3895,4.4501,4.4501,4.3876,4.3294,4.3294,0.0,4.1967,4.1854,4.3542,4.5185,4.5959,0.0,4.9596,5.047,5.0844,5.1027,5.1027,5.1128,5.1202,5.1202,5.1202,5.1202,5.1202,5.1202,5.1202,5.1202,5.1202,5.1202,5.1202,5.1202,5.0837,5.0087,4.9844,4.9032,4.7657,4.7375,4.6872,4.6201,4.6201,4.6201,4.6203,4.6269,4.6298,4.63,4.63,4.63,4.63,4.63,4.63,4.63,4.63,4.63,4.63,4.63,4.63,4.63,4.63,4.5792,4.5168,4.5168,4.4641,4.4057,4.4057,4.3957,4.386,4.386,4.3782,4.3509,4.2747,4.2474,4.2181,4.1439,4.1187,4.1109,4.1109,4.1109,4.1109,4.1109,4.1109,4.1109,4.1109,4.1109,4.1109,4.1109,4.0444,3.9976,3.9976,3.9235,3.8454,3.7692,3.7536,3.7145,3.6383,3.6344,3.6344,3.6344,3.6226,3.6168,3.6168,3.6051,3.5992,3.5992,3.6129,3.6617,3.7497,3.8474,3.9762,4.1967,4.2543,4.3106,4.3257,4.3895,4.4501,4.4501,4.3876,0.0,0.0,4.2618,4.1798,4.1135,4.3281,4.5222,4.5496,4.788,5.0012,5.0946,5.114,5.1178,0.0,5.119,5.1202,5.1202,5.1202,0.0,0.0,5.1202,5.1202,5.1202,5.1202,5.1202,5.1202,5.1202,5.113,5.0981,4.961,4.8762,4.8479,4.7072,4.6336,4.6206,4.6206,4.6206,4.6209,4.6203,0.0,4.63,4.63,4.63,4.63,4.63,4.63,4.63,4.63,4.63,4.63,4.63,4.63,4.63,4.63,4.6202,4.6066,4.6066,4.5968,4.5851,4.5851,4.5324,4.4777,4.4777,4.4231,4.3666,4.3509,4.2923,4.2357,4.2201,4.1615,4.1109,4.1109,4.1109,4.1109,4.1109,4.1109,4.1109,4.1109,4.1109,4.1109,4.1109,4.0973,4.0875,4.0875,4.0112,3.9527,3.937,3.8767,3.8318,3.8162,3.8142,3.8142,3.8142,3.7458,3.7067,3.7067,3.6363,3.5992,3.5992,3.6716,3.7516,3.8415,3.9958,4.1205,4.3187,4.3294,4.3388,4.382,4.4214,4.4501,4.4501,0.0,0.0,0.0,4.1623,4.0628,4.0253,4.2124,0.0,4.4576,4.7081,4.9327,5.0331,5.088,5.1202,5.1202,5.1202,5.1202,0.0,5.1202,5.1202,5.1202,5.1202,5.1202,5.1202,5.1202,5.1202,5.1202,5.1202,5.0989,5.0522,4.9734,4.89,4.8007,4.7172,4.655,4.6146,4.6146,4.6146,4.615,4.619,4.622,4.6245,4.6245,4.6271,4.63,4.63,4.63,4.63,4.63,4.63,4.63,4.63,4.63,4.63,4.63,4.63,4.63,4.63,4.63,4.63,4.63,4.6007,4.5675,4.5675,4.5363,4.4933,4.4484,4.3352,4.2282,4.1824,4.1409,4.1093,4.1102,4.1097,4.1109,4.1109,4.1109,4.1109,4.1109,4.1109,4.1109,4.1109,4.1109,4.1265,4.1732,4.0991,4.0483,4.0483,3.9702,3.906,3.863,3.8591,3.8591,3.8591,3.8201,3.7986,3.7986,3.7575,3.734,3.734,3.777,3.865,3.9918,4.0738,4.2045,4.4332,4.4045,4.3707,4.4332,4.4501,4.4444,4.4275,4.3074,0.0,4.1779,4.0641,3.9656,3.9656,4.1086,4.2714,0.0,4.6392,4.8484,4.9879,5.0712,5.1171,0.0,5.1202,0.0,5.1202,5.1202,0.0,5.1202,5.1202,5.1202,5.1202,5.1202,5.1105,5.093,5.0911,5.0503,4.9635,4.944,4.8685,4.7392,4.7149,4.6707,4.6098,4.6084,4.6084,4.6098,4.6154,4.6193,4.6206,4.6206,4.6243,4.63,4.63,4.63,4.63,4.63,4.63,4.63,4.63,4.63,4.63,4.63,4.63,4.63,4.63,4.63,4.63,4.63,4.63,4.63,4.63,4.63,4.6028,4.4979,4.3675,4.2394,4.1327,4.1109,4.1105,4.1093,4.1109,4.1102,4.1102,4.1102,4.1102,4.1102,4.1102,4.1101,4.1097,4.1097,4.1426,4.2318,4.1615,4.1109,4.1109,4.0464,3.98,3.9177,3.9138,3.9138,3.9138,3.8962,3.8864,3.8864,3.8689,3.8689,3.8864,3.904,3.9918,4.1382,4.1752,4.2942,4.4482,4.4444,4.4407,4.4482,4.4501,4.4313,4.3576,0.0,4.1798,4.106,4.0373,3.987,3.987,4.0903,4.2577,4.5038,0.0,4.816,5.0623,5.1043,5.1133,5.1196,0.0,0.0,5.1202,5.1202,5.1202,5.1202,5.1202,5.1202,5.1202,5.1202,5.0833,5.0042,5.0023,4.9596,4.8735,4.7939,4.7499,4.7392,4.6528,4.6105,4.6093,4.6052,4.6032,4.6098,4.6102,4.615,0.0,4.6206,4.6243,4.63,4.63,4.63,4.63,4.63,4.63,4.63,4.63,4.63,4.63,4.63,4.63,4.63,4.63,4.63,4.63,4.63,4.63,4.63,4.63,4.63,4.5877,4.4213,4.3691,4.3121,4.1461,4.111,4.109,4.1109,4.111,4.1091,4.1091,4.1091,4.1091,4.1091,4.1091,4.1093,4.1092,4.1091,4.1438,4.2319,4.1615,4.1109,4.1109,4.1031,4.0953,4.0875,4.0875,4.0875,4.0875,4.0112,3.9683,3.9683,3.8962,3.8962,3.9683,4.0485,4.1361,4.2318,4.3899,4.4348,4.4501,4.4501,4.4501,4.4501,4.4229,4.3876,4.3548,0.0,4.1559,4.1236,4.058,4.008,4.008,4.0463,4.1677,4.4388,4.5623,4.7178,4.9878,5.0739,5.1101,5.1133,5.1171,0.0,0.0,0.0,5.1202,5.1202,5.1202,5.1202,5.1202,5.1202,5.0561,4.9163,4.9635,4.9221,4.7822,4.7473,4.7056,4.6552,4.6187,4.6012,4.6032,4.6042,4.6042,4.6032,4.6084,4.6115,0.0,4.617,4.6217,4.6243,4.6277,4.63,4.63,4.63,4.63,4.63,4.63,4.63,4.63,4.63,4.6291,4.6299,4.6305,4.63,4.63,4.63,4.63,4.6305,4.6297,4.6267,4.5801,4.4101,4.4078,4.3954,4.2244,4.188,4.1884,4.1873,4.1452,4.1107,4.1107,4.1107,4.1107,4.1107,4.1107,4.1109,4.1092,4.1093,4.123,4.1582,4.1786,4.2084,4.2612,4.2181,4.1888,4.1888,4.1888,4.1888,4.1888,4.2045,4.1908,4.1381,4.1576,4.1576,4.1361,4.224,4.3108,4.3977,4.4132,4.4292,4.4158,4.4299,4.4501,4.4501,4.4044,4.3533,4.3279,4.2265,4.1323,4.1084,4.0643,4.0286,4.0286,4.0339,4.1163,4.3612,4.494,4.6515,4.9003,5.0338,5.1076,5.1095,0.0,5.1171,0.0,5.1202,5.1202,5.1202,5.1202,5.1086,5.0833,5.0814,5.0134,4.8658,4.8949,4.8425,4.6929,4.6929,4.6618,4.6002,4.6002,4.6002,4.6002,4.6075,4.608,4.6027,4.6098,4.6134,0.0,4.618,4.6209,4.6209,4.6273,4.63,4.63,4.63,4.63,4.63,4.63,4.6305,4.6291,4.6291,4.6284,4.6269,4.6264,4.6261,4.6261,4.6261,4.6261,4.6263,4.6269,4.6247,4.5845,4.44,4.4491,4.4518,4.3071,4.2559,4.2371,4.2368,4.1681,4.1091,4.1091,4.1091,4.1091,4.1091,4.1091,4.1094,4.11,4.11,4.1102,4.1107,4.1874,4.2648,4.3254,4.2746,4.2512,4.2766,4.2786,4.2786,4.2786,4.3371,4.341,4.2805,4.3391,4.3528,4.3137,4.3762,4.4372,4.4961,4.4336,4.4082,4.3428,4.384,4.4501,4.4501,4.4044,4.3374,4.2515,4.1838,4.117,4.0377,4.0356,4.0496,4.0496,4.066,4.1351,4.3027,4.4717,4.6433,4.8268,4.994,5.1034,0.0,0.0,5.1127,5.1196,5.1202,5.1202,5.1202,5.1202,0.0,4.9965,4.9906,4.9518,4.8638,4.7764,4.6909,4.6021,4.6021,4.6021,4.6002,4.6002,4.6002,4.6002,4.6075,4.6098,4.6098,4.6162,4.6196,0.0,4.6195,4.6206,4.6209,4.6273,4.63,4.63,4.63,4.63,4.63,4.63,4.6296,4.6307,4.6307,4.6269,4.6204,4.6205,4.6205,4.6205,4.6205,4.6205,4.6205,4.6204,4.621,4.5974,4.5096,4.4891,4.466,4.3776,4.29,4.2299,4.2296,4.1656,4.1091,4.1091,4.1091,4.1091,4.1091,4.1091,4.1109,4.1109,4.1094,4.1104,4.1106,4.1889,4.2397,4.2414,4.2414,4.2766,4.3624,4.3683,4.3683,4.3683,4.3702,4.3702,4.3683,4.3702,4.4093,4.4874,4.4874,4.4895,4.4897,4.4897,4.3999,4.2969,4.2862,4.2706,4.2894,4.2477,4.1994,4.1906,4.1421,4.0918,4.0656,4.066,4.0713,4.0713,4.0765,4.1745,4.4607,4.5478,0.0,4.9741,0.0,0.0,5.1095,5.114,5.1171,0.0,0.0,5.1202,5.1202,5.1202,5.0814,4.9945,4.9343,4.8599,4.7745,4.7434,4.689,4.6021,4.6002,4.6002,4.6002,4.6002,4.6002,4.6002,4.6075,4.6098,4.6098,4.6162,4.6199,4.6199,4.6195,4.6206,4.6209,4.6273,4.63,4.63,4.63,4.63,4.6303,4.6299,4.6305,4.6288,4.6249,4.622,4.6202,4.6202,4.6194,4.6204,4.6204,4.6195,4.6202,4.6202,4.6197,4.5988,4.5111,4.5352,4.5556,4.4676,4.3799,4.3192,4.3192,4.2062,4.1107,4.1107,4.1107,4.1107,4.1107,4.1107,4.1094,4.1089,4.1092,4.1098,4.1091,4.1347,4.1757,4.2355,4.2942,4.341,4.3684,4.423,4.4522,4.4522,4.509,4.5129,4.4522,4.5109,4.5246,4.4894,4.4895,4.4306,4.318,4.3138,4.2539,0.0,4.1932,4.186,4.2127,4.1751,4.138,4.1645,4.1236,4.0797,4.0797,4.0797,4.0797,4.0797,4.0797,4.1609,4.4027,4.5207,4.6651,0.0,0.0,0.0,5.1094,0.0,0.0,0.0,5.1202,5.1202,5.1202,5.1202,5.0814,4.9945,4.9066,4.8191,4.7331,4.6987,4.654,4.6021,4.6002,4.6002,4.6002,4.6002,4.6002,4.6002,4.6075,4.6098,4.6098,4.6162,4.6189,0.0,4.6189,4.6201,4.6215,4.6271,4.6306,4.6294,4.6291,4.6277,4.6265,4.6288,4.6289,4.6266,4.6201,4.6199,4.6203,4.6203,4.6201,4.6199,4.6199,4.6204,4.6203,4.6203,4.6203,4.6063,4.5517,4.5809,4.6043,4.5517,4.4442,4.3601,4.3601,4.2257,4.1107,4.1107,4.1107,4.1107,4.1107,4.1107,4.1107,4.1107,4.1107,4.1107,4.1107,4.1107,4.1329,4.1864,4.2998,4.3659,4.3659,4.444,4.4752,4.4419,4.5242,4.5457,4.4909,4.5769,4.5769,4.4909,4.4247,4.3381,4.2344,4.2003,4.1575,0.0,4.0994,4.1691,4.1951,4.16,4.1284,4.1566,4.1205,0.0,4.0797,4.0797,4.0816,4.0874,4.0835,4.1106,4.2028,4.4175,4.6039,0.0,4.9243,0.0,0.0,5.116,0.0,5.1202,5.1144,5.1105,5.1105,5.1047,5.0639,4.9771,4.8949,4.8114,4.724,4.6424,4.6002,4.6002,4.6002,4.6002,4.6002,4.6002,4.6002,4.6002,4.6051,4.6093,0.0,4.6177,4.6154,4.6106,4.6161,4.6192,4.6213,4.6267,4.6296,4.6288,4.6285,4.625,4.6205,4.6268,4.624,4.621,4.6197,4.6209,4.6199,4.6199,4.6199,4.6199,4.6199,4.6199,4.6199,4.6199,4.6199,4.6199,4.6199,4.6199,4.6199,4.6199,4.4871,4.3698,4.3698,4.2393,4.1263,4.1205,4.1185,4.1166,4.1107,4.1107,4.1107,4.1107,4.1107,4.1107,4.1107,4.1107,4.1107,4.1107,4.2588,4.3504,4.3504,4.4325,4.4442,4.362,4.4384,4.4816,4.4816,4.5595,4.5595,4.4718,4.3098,4.2276,4.2198,4.1458,4.1107,3.937,0.0,3.9858,4.0325,4.0324,4.0368,0.0,4.0907,4.0797,4.0797,0.0,0.0,4.1603,4.1216,4.1506,4.3634,4.4485,4.5394,4.6883,0.0,0.0,5.1024,5.1159,5.1202,5.1202,5.06,5.0217,5.0217,4.959,4.8832,4.7958,4.7725,4.722,4.6327,4.6118,4.6002,4.6002,4.6002,4.6002,4.6002,4.6002,4.6002,4.6002,4.6012,4.6042,4.6098,4.6126,4.6146,4.6185,4.6183,4.6203,4.62,4.6228,4.6227,4.6228,4.6228,4.6207,4.6203,4.621,4.6202,4.6197,4.6192,4.6203,4.6199,4.6199,4.6199,4.6199,4.6199,4.6199,4.6199,4.6199,4.6199,4.6199,4.6199,4.6199,4.6199,4.6199,4.5358,4.4598,4.4598,4.3741,4.2802,4.212,4.2023,4.1809,4.1185,4.1107,4.1107,4.1107,4.1107,4.1107,4.1107,4.1107,4.1107,4.1107,4.2023,4.2607,4.2607,4.3426,4.3815,4.3601,4.3796,4.3913,4.3913,4.4108,4.3776,4.2903,4.2491,4.1984,4.138,4.1185,4.1107,3.9101,3.9101,3.9227,3.9767,3.9906,4.0043,4.0614,0.0,0.0,0.0,0.0,0.0,0.0,0.0,0.0,0.0,4.4659,0.0,0.0,0.0,4.9795,4.9886,5.0286,5.0408,0.0,4.9571,4.9304,4.9304,4.8871,4.8211,4.7351,4.7293,4.6909,4.6041,4.6002,4.6002,4.6002,4.6002,4.6002,4.6002,4.6002,4.6002,4.6002,4.6032,4.6063,4.6107,4.6125,4.617,4.6203,4.6197,4.62,4.62,4.6224,4.623,4.6196,4.6239,4.623,4.6191,4.6201,4.6199,4.6197,4.6192,4.6193,4.6199,4.6206,4.6206,4.6199,4.6199,4.6199,4.6199,4.6199,4.6199,4.6199,4.6199,4.6199,4.6199,4.6199,4.5517,4.4894,4.4894,4.4208,4.3328,4.2452,4.2296,4.2023,4.1224,4.1107,4.1107,4.1107,4.1107,4.1107,4.1107,4.1107,4.1107,4.1107,4.1497,4.175,4.175,4.2549,4.2841,4.2471,4.2802,4.3192,4.3582,4.3211,4.2763,4.2296,4.1926,4.1536,4.1107,4.1107,4.1107,3.9101,3.9124,3.9292,3.9772,3.9925,4.009,4.0593,0.0,0.0,0.0,0.0,0.0,0.0,4.1622,0.0,0.0,0.0,0.0,4.7966,4.8854,4.9102,4.8567,4.9168,0.0,4.8671,4.8483,4.8405,4.8405,4.8289,4.7881,4.7143,4.7104,4.6754,4.6021,4.6002,4.6002,4.6002,4.6002,4.6002,4.6002,4.6002,4.6007,4.6027,4.6068,4.6105,4.6118,0.0,0.0,4.6204,4.6198,4.6204,4.6208,4.6269,4.6244,4.6218,4.6266,4.624,4.619,4.6198,4.6195,4.6203,4.6206,4.6196,4.6203,4.6203,4.6193,4.6199,4.6203,4.6199,4.6199,4.6199,4.6199,4.6199,4.6199,4.6199,4.6199,4.6199,4.5615,4.5108,4.5108,4.4501,4.3718,4.2841,4.2588,4.2218,4.14,4.1283,4.1244,4.1127,4.1205,4.1244,4.1107,4.1107,4.1107,4.1107,4.1107,4.1107,4.1107,4.1731,4.1809,4.1127,4.175,4.2452,4.3192,4.2491,4.212,4.212,4.1438,4.1107,4.1107,4.1107,4.1166,3.9101,3.9261,3.9512,3.9827,4.0063,4.0307,4.0633,0.0,0.0,0.0,0.0,0.0,0.0,4.2415,4.2531,0.0,0.0,4.5374,0.0,0.0,4.781,4.8437,0.0,4.8734,4.8604,4.7922,4.7512,4.7512,4.6812,4.6351,4.6215,4.6191,4.6138,4.6002,4.6002,4.6002,4.6002,4.6002,4.6002,4.6002,4.6002,4.6027,4.6084,4.6095,4.6131,4.6195,0.0,4.6202,4.6202,4.6206,4.6204,4.6191,4.621,4.6217,4.6194,4.6216,4.6209,4.6201,4.6206,4.6209,4.6206,4.6195,4.6206,4.6203,4.6195,4.6203,4.6203,4.6196,4.6209,4.6199,4.6199,4.6199,4.6199,4.6199,4.6199,4.6199,4.6199,4.6082,4.6004,4.6004,4.5884,4.5514,4.466,4.3897,4.3114,4.2257,4.212,4.1867,4.1185,4.1692,4.1848,4.1166,4.1107,4.1107,4.1107,4.1107,4.1107,4.1107,4.1224,4.1224,4.1107,4.1224,4.1341,4.1477,4.1341,4.1283,4.1283,4.1166,4.1107,4.1107,4.1107,4.1458,3.9101,3.9292,3.9555,3.9827,4.012,4.0545,4.1238,0.0,0.0,0.0,0.0,0.0,0.0,0.0,4.3808,4.5045,0.0,4.551,4.629,4.6827,4.7131,0.0,0.0,4.7662,4.7233,4.6835,4.6599,4.6599,4.623,4.6002,4.6002,4.6002,4.6002,4.6002,4.6002,4.6002,4.6002,4.6036,4.6036,4.6002,4.6002,4.6036,4.6102,4.6137,4.6177,4.6205,0.0,4.625,4.625,4.625,4.6247,4.6257,4.6257,4.6245,4.6255,4.6209,4.6206,4.6206,4.6206,4.6192,4.6196,4.6201,4.6206,4.6203,4.6209,4.62,4.6199,4.6209,4.6203,4.6199,4.6199,4.6199,4.6199,4.6199,4.6199,4.6199,4.6199,4.6199,4.6199,4.6199,4.6199,4.5926,4.505,4.4559,4.4014,4.3133,4.2997,4.2861,4.2491,4.2763,4.2861,4.2491,4.2452,4.2452,4.2452,4.2452,4.2062,4.1166,4.1107,4.1283,4.1731,4.175,4.1965,4.2432,4.2452,4.2218,4.175,4.175,4.175,4.175,4.175,4.2198,3.9101,3.9311,3.9561,3.9827,0.0,4.0668,4.1747,0.0,0.0,0.0,0.0,0.0,0.0,4.4311,0.0,4.571,4.5807,4.5807,4.5807,4.6368,4.6568,4.5938,4.6481,4.6654,4.6038,4.6,4.6002,4.6002,4.6002,4.6002,4.6002,4.6002,4.6002,4.6002,4.6002,4.6012,4.6018,4.6068,4.6068,4.6018,4.6041,4.608,4.6128,4.6183,4.6206,4.6229,4.6272,4.63,4.63,4.63,4.63,4.63,4.63,4.6296,4.6288,4.624,4.6214,4.6211,4.6211,4.6203,4.6192,4.6203,4.6209,4.6206,4.6206,4.6196,4.6199,4.6203,4.6203,4.6199,4.6199,4.6199,4.6199,4.6199,4.6199,4.6199,4.6199,4.6199,4.6199,4.6199,4.6199,4.5985,4.5322,4.505,4.4676,4.3994,4.3893,4.3835,4.362,4.3776,4.3835,4.362,4.3601,4.3601,4.3601,4.3601,4.3056,4.177,4.1692,4.1965,4.2588,4.2607,4.2919,4.3582,4.3601,4.327,4.2607,4.2607,4.2607,4.2607,4.2607,4.3075,3.9101,3.93,3.9552,3.9838,4.011,0.0,4.174,4.1963,0.0,0.0,0.0,0.0,0.0,4.5162,4.5729,4.5787,4.5807,4.5807,4.5807,0.0,4.5865,4.5807,4.5925,4.5969,4.5911,4.5969,4.6002,4.6002,4.6002,4.6002,4.6002,4.6002,4.6002,4.6002,4.6002,4.6027,4.6091,4.6098,4.6098,4.6091,4.6153,4.6194,4.6191,4.6191,4.6228,4.6285,4.6302,4.63,4.63,4.63,4.63,4.63,4.63,4.63,4.63,4.6298,4.6292,4.6284,4.6284,4.6255,4.6206,4.6206,4.6198,4.6206,4.6201,4.6206,4.6203,4.62,4.619,4.6199,4.6199,4.6199,4.6199,4.6199,4.6199,4.6199,4.6199,4.6199,4.6199,4.6199,4.6199,4.618,4.6121,4.5439,4.4874,4.4816,4.4816,4.4501,4.3698,4.4306,4.4501,4.3698,4.3601,4.3601,4.3601,4.3601,4.3543,4.3426,4.3426,4.3445,4.3504,4.3504,4.3543,4.3601,4.3601,4.3562,4.3504,4.3504,4.3504,4.3504,4.3504,4.3975,3.9101,3.9187,3.9414,3.9805,0.0,0.0,0.0,0.0,0.0,0.0,0.0,0.0,0.0,0.0,4.5807,4.5807,4.5807,4.5807,4.5807,4.5807,4.5807,4.5807,4.5867,4.5911,4.5911,4.5964,4.6002,4.6002,4.6002,4.6002,4.6002,4.6002,4.6002,4.6002,4.6046,4.6068,4.6098,4.6134,4.6156,4.6156,4.6188,4.6199,4.6191,4.6191,4.6246,4.63,4.63,4.63,4.63,4.63,4.63,4.63,4.63,4.63,4.63,4.63,4.6298,4.6294,4.6294,4.6288,4.6258,4.6209,4.6198,4.6203,4.62,4.6209,4.6199,4.6206,4.6203,4.6199,4.6199,4.6199,4.6199,4.6199,4.6199,4.6199,4.6199,4.6199,4.6199,4.6199,4.6199,4.6199,4.6199,4.5926,4.5712,4.5712,4.5712,4.5595,4.526,4.5494,4.5576,4.5241,4.5222,4.5222,4.5222,4.5222,4.5222,4.5222,4.4205,4.3835,4.4384,4.4403,4.4656,4.5202,4.5222,4.4949,4.4403,4.4403,4.4403,4.4403,4.4403,4.4871,3.9027,3.9156,3.9311,0.0,0.0,0.0,0.0,0.0,0.0,0.0,4.5355,0.0,0.0,0.0,0.0,0.0,4.5807,4.5807,4.5807,4.5807,4.5807,4.5807,4.5861,4.5893,4.5893,4.5953,4.6005,4.6005,4.5997,4.6002,4.6002,4.6002,4.6017,4.6027,4.6072,4.6102,4.6138,4.6185,4.6211,4.6228,4.623,4.623,4.6228,4.6228,4.6261,4.63,4.63,4.63,4.63,4.63,4.63,4.63,4.63,4.63,4.63,4.63,4.63,4.63,4.63,4.6296,4.6288,4.6258,4.6223,4.6209,4.6193,4.6203,4.6199,4.6199,4.6199,4.6199,4.6199,4.6199,4.6199,4.6199,4.6199,4.6199,4.6199,4.6199,4.6199,4.6199,4.6199,4.6199,4.6199,4.6199,4.6199,4.6199,4.6199,4.6199,4.6199,4.6199,4.6199,4.6199,4.6199,4.6199,4.6199,4.6199,4.6199,4.6199,4.5085,4.4695,4.5283,4.5303,4.5595,4.6199,4.6199,4.5907,4.5303,4.5303,4.5303,4.5303,4.5303,4.5634,3.8878,3.9156,3.9305,0.0,0.0,0.0,4.2914,4.3199,4.3696,4.5432,0.0,4.5807,4.5807,0.0,0.0,4.5807,4.5807,4.5807,4.5807,4.5807,4.5807,4.5807,4.586,4.59,4.59,4.5962,4.5997,4.5997,4.6005,4.6002,4.6002,4.6002,4.6027,4.6098,4.6102,4.6121,4.6191,4.6191,4.6227,4.63,4.63,4.63,4.63,4.63,4.63,4.63,4.63,4.63,4.63,4.63,4.63,4.63,4.63,4.63,4.63,4.63,4.63,4.63,4.63,4.63,4.6298,4.6308,4.6258,4.6203,4.6209,4.6193,4.6199,4.6199,4.6199,4.6199,4.6199,4.6199,4.6199,4.6199,4.6199,4.6199,4.6199,4.6199,4.6199,4.6199,4.6199,4.6199,4.6199,4.6199,4.6199,4.6199,4.6199,4.6199,4.6199,4.6199,4.6199,4.6199,4.6199,4.6199,4.6199,4.6199,4.6199,4.6199,4.6199,4.6199,4.6199,4.6199,4.6199,4.6199,4.6199,4.6199,4.6199,4.6199,4.6199,4.6199,4.6199,4.6199,3.8878,3.8876,0.0,3.9686,0.0,0.0,0.0,4.3663,0.0,0.0,0.0,4.5807,4.5807,0.0,0.0,4.5807,4.5807,4.5807,4.5807,4.5807,4.5807,4.5807,4.586,4.5906,4.5893,4.5955,4.6003,4.6005,4.5997,4.6002,4.6002,4.6002,4.6027,4.6098,4.6145,4.6189,4.6191,4.6244,4.6272,4.63,4.63,4.63,4.63,4.63,4.63,4.63,4.63,4.63,4.63,4.63,4.63,4.63,4.63,4.63,4.63,4.63,4.63,4.63,4.63,4.63,4.6298,4.6308,4.6258,4.6203,4.6209,4.6193,4.6199,4.6199,4.6199,4.6199,4.6199,4.6199,4.6199,4.6199,4.6199,4.6199,4.6199,4.6199,4.6199,4.6199,4.6199,4.6199,4.6199,4.6199,4.6199,4.6199,4.6199,4.6199,4.6199,4.6199,4.6199,4.6199,4.6199,4.6199,4.6199,4.6199,4.6199,4.6199,4.6199,4.6199,4.6199,4.6199,4.6199,4.6199,4.6199,4.6199,4.6199,4.6199,4.6199,4.6199,4.6199,4.6199,3.9016,3.907,0.0,3.989,4.1166,4.2563,4.3926,0.0,0.0,0.0,0.0,4.5807,4.5807,4.5807,0.0,4.5807,4.5807,4.5807,4.5807,4.5807,4.5807,4.5807,4.586,4.5906,4.5906,4.5949,4.6003,4.6,4.5997,4.6002,4.6002,4.6002,4.6027,4.6098,4.616,4.6198,4.6191,4.6277,4.63,4.63,4.63,4.63,4.63,4.63,4.63,4.63,4.63,4.63,4.63,4.63,4.63,4.63,4.63,4.63,4.63,4.63,4.63,4.63,4.63,4.63,4.63,4.6294,4.6243,4.6206,4.6198,4.6196,4.6199,4.6199,4.6199,4.6199,4.6199,4.6199,4.6199,4.6199,4.6199,4.6199,4.6199,4.6199,4.6199,4.6199,4.6199,4.6199,4.6199,4.6199,4.6199,4.6199,4.6199,4.6199,4.6199,4.6199,4.6199,4.6199,4.6199,4.6199,4.6199,4.6199,4.6199,4.6199,4.6199,4.6199,4.6199,4.6199,4.6199,4.6199,4.6199,4.6199,4.6199,4.6199,4.6199,4.6199,4.6199,4.6199,3.9201,0.0,0.0,4.0247,4.1723,0.0,4.5392,4.5807,4.5807,4.5807,0.0,4.5807,4.5807,4.5807,4.5807,4.5807,4.5807,4.5807,4.5807,4.5807,4.5807,4.5807,4.586,4.59,4.5906,4.5962,4.5997,4.5997,4.6005,4.6002,4.6002,4.6002,4.6027,4.6098,4.616,4.6198,4.6191,4.6277,4.63,4.63,4.63,4.63,4.63,4.63,4.63,4.63,4.63,4.63,4.63,4.63,4.63,4.63,4.63,4.63,4.63,4.63,4.63,4.63,4.63,4.63,4.63,4.63,4.6267,4.6209,4.6209,4.6206,4.6199,4.6199,4.6199,4.6199,4.6199,4.6199,4.6199,4.6199,4.6199,4.6199,4.6199,4.6199,4.6199,4.6199,4.6199,4.6199,4.6199,4.6199,4.6199,4.6199,4.6199,4.6199,4.6199,4.6199,4.6199,4.6199,4.6199,4.6199,4.6199,4.6199,4.6199,4.6199,4.6199,4.6199,4.6199,4.6199,4.6199,4.6199,4.6199,4.6199,4.6199,4.6199,4.6199,4.6199,4.6199,4.6199,3.9201,3.921,0.0,0.0,4.1828,4.3696,4.5413,4.5807,4.5807,4.5807,4.5807,4.5807,4.5807,4.5807,4.5807,4.5807,4.5807,4.5807,4.5807,4.5807,4.5807,4.5807,4.586,4.5906,4.5899,4.5955,4.6008,4.6011,4.5997,4.6002,4.6002,4.6002,4.6027,4.6098,4.616,4.6198,4.6191,4.6277,4.63,4.63,4.63,4.63,4.63,4.63,4.63,4.63,4.63,4.63,4.63,4.63,4.63,4.63,4.63,4.63,4.63,4.63,4.63,4.63,4.63,4.63,4.63,4.63,4.6292,4.6279,4.6211,4.6195,4.6196,4.6203,4.6199,4.6199,4.6199,4.6199,4.6199,4.6199,4.6199,4.6199,4.6199,4.6199,4.6199,4.6199,4.6199,4.6199,4.6199,4.6199,4.6199,4.6199,4.6199,4.6199,4.6199,4.6199,4.6199,4.6199,4.6199,4.6199,4.6199,4.6199,4.6199,4.6199,4.6199,4.6199,4.6199,4.6199,4.6199,4.6199,4.6199,4.6199,4.6199,4.6199,4.6199,4.6199,4.6199,4.6199,3.9467,0.0,0.0,4.137,0.0,4.375,4.542,4.5807,4.5807,4.5807,4.5807,4.5807,4.5807,4.5807,4.5807,4.5807,4.5807,4.5807,4.5807,4.5807,4.5807,4.5807,4.586,4.5893,4.5905,4.596,4.6008,4.5997,4.6002,4.6002,4.6002,4.6002,4.6027,4.6098,4.616,4.6198,4.6191,4.6277,4.63,4.63,4.63,4.63,4.63,4.63,4.63,4.63,4.63,4.63,4.63,4.63,4.63,4.63,4.63,4.63,4.63,4.63,4.63,4.63,4.63,4.63,4.63,4.63,4.6294,4.6282,4.6211,4.6198,4.62,4.6203,4.6199,4.6199,4.6199,4.6199,4.6199,4.6199,4.6199,4.6199,4.6199,4.6199,4.6199,4.6199,4.6199,4.6199,4.6199,4.6199,4.6199,4.6199,4.6199,4.6199,4.6199,4.6199,4.6199,4.6199,4.6199,4.6199,4.6199,4.6199,4.6199,4.6199,4.6199,4.6199,4.6199,4.6199,4.6199,4.6199,4.6199,4.6199,4.6199,4.6199,4.6177,4.6098,4.6098,4.6056,3.9659,0.0,4.0548,4.2932,4.3421,0.0,4.542,4.5807,4.5807,4.5807,4.5807,4.5807,4.5807,4.5807,4.5807,4.5807,4.5807,4.5807,4.5807,4.5807,4.5807,4.5807,4.586,4.5899,4.5905,4.596,4.5994,4.5997,4.6002,4.6002,4.6002,4.6002,4.6027,4.6098,4.616,4.6198,4.6191,4.6277,4.63,4.63,4.63,4.63,4.63,4.63,4.63,4.63,4.63,4.63,4.63,4.63,4.63,4.63,4.63,4.63,4.63,4.63,4.63,4.63,4.63,4.63,4.63,4.63,4.6294,4.6286,4.6211,4.6198,4.6206,4.6203,4.6199,4.6199,4.6199,4.6199,4.6199,4.6199,4.6199,4.6199,4.6199,4.6199,4.6199,4.6199,4.6199,4.6199,4.6199,4.6199,4.6199,4.6199,4.6199,4.6199,4.6199,4.6199,4.6199,4.6199,4.6199,4.6199,4.6199,4.6199,4.6199,4.6199,4.6199,4.6199,4.6199,4.6199,4.6199,4.6199,4.6199,4.6199,4.6199,4.6185,4.6102,4.6002,4.5961,4.5859,0.0,0.0,4.0979,0.0,4.3866,4.375,0.0,0.0,4.5807,0.0,4.5807,4.5807,4.5807,4.5807,4.5807,4.5807,4.5807,4.5807,4.5807,4.5807,4.5807,4.5807,4.5867,4.5905,4.5911,4.5964,4.5997,4.6002,4.6002,4.6002,4.6002,4.6002,4.6027,4.6098,4.616,4.6198,4.6191,4.6277,4.63,4.63,4.63,4.63,4.63,4.63,4.63,4.63,4.63,4.63,4.63,4.63,4.63,4.63,4.63,4.63,4.63,4.63,4.63,4.63,4.63,4.63,4.63,4.63,4.63,4.6294,4.6214,4.6206,4.6198,4.6206,4.6199,4.6199,4.6199,4.6199,4.6199,4.6199,4.6199,4.6199,4.6199,4.6199,4.6199,4.6199,4.6199,4.6199,4.6199,4.6199,4.6199,4.6199,4.6199,4.6199,4.6199,4.6199,4.6199,4.6199,4.6199,4.6199,4.6199,4.6199,4.6199,4.6199,4.6199,4.6199,4.6199,4.6199,4.6199,4.6199,4.6199,4.6199,4.6199,4.6084,4.6012,4.5997,4.5809,4.5724,3.9328,4.0406,4.1635,0.0,4.4304,4.4349,4.5536,0.0,4.5807,4.5807,4.5807,4.5807,4.5807,4.5807,4.5807,4.5807,4.5807,4.5807,4.5807,4.5807,4.5807,4.5807,4.5854,4.5906,4.5905,4.5953,4.6,4.5997,4.6002,4.6002,4.6002,4.6002,4.6027,4.6098,4.6131,4.616,4.6191,4.6228,4.6258,4.63,4.63,4.63,4.63,4.63,4.63,4.63,4.63,4.63,4.63,4.63,4.63,4.63,4.63,4.63,4.63,4.63,4.63,4.63,4.63,4.63,4.63,4.63,4.63,4.6298,4.6262,4.6233,4.6203,4.62,4.6206,4.6199,4.6199,4.6199,4.6199,4.6199,4.6199,4.6199,4.6199,4.6199,4.6199,4.6199,4.6199,4.6199,4.6199,4.6199,4.6199,4.6199,4.6199,4.6199,4.6199,4.6199,4.6199,4.6199,4.6199,4.6199,4.6199,4.6199,4.6199,4.6199,4.6199,4.6199,4.6199,4.6199,4.6199,4.6199,4.6134,4.6089,4.6089,4.5919,4.5796,4.5713,4.5627,4.5558,0.0,0.0,4.1453,4.395,4.442,4.4543,0.0,0.0,4.5807,0.0,4.5807,4.5807,4.5807,4.5807,4.5807,4.5807,4.5807,4.5807,4.5807,4.5807,4.5807,4.5821,4.5874,4.5906,4.5917,4.5972,4.5994,4.5997,4.6002,4.6002,4.6002,4.6002,4.6027,4.6098,4.6098,4.6133,4.6209,4.6209,4.623,4.6273,4.6273,4.629,4.63,4.63,4.63,4.63,4.63,4.63,4.63,4.63,4.63,4.63,4.63,4.63,4.63,4.63,4.63,4.63,4.63,4.63,4.63,4.63,4.63,4.6298,4.6308,4.6258,4.6203,4.6209,4.6193,4.6199,4.6199,4.6199,4.6199,4.6199,4.6199,4.6199,4.6199,4.6199,4.6199,4.6199,4.6199,4.6199,4.6199,4.6199,4.6199,4.6199,4.6199,4.6199,4.6199,4.6199,4.6199,4.6199,4.6199,4.6199,4.6199,4.6199,4.6199,4.6199,4.6199,4.6199,4.6199,4.6199,4.6189,4.615,4.5993,4.595,4.6002,4.5764,4.5603,4.549,4.5464,4.54,0.0,3.9403,0.0,4.3551,4.3942,0.0,0.0,0.0,4.5807,4.5807,4.5807,4.5807,4.5807,4.5807,4.5807,4.5807,4.5807,4.5807,4.5807,4.5807,4.5821,4.5893,4.5906,4.5917,4.5991,4.6,4.5997,4.6002,4.6002,4.6002,4.6002,4.6002,4.6027,4.6098,4.6098,4.6134,4.6206,4.6206,4.6201,4.6211,4.6211,4.6246,4.63,4.63,4.63,4.63,4.63,4.63,4.63,4.63,4.63,4.63,4.63,4.63,4.63,4.63,4.63,4.63,4.63,4.63,4.63,4.63,4.63,4.6298,4.6308,4.6258,4.6203,4.6209,4.6193,4.6199,4.6199,4.6199,4.6199,4.6199,4.6199,4.6199,4.6199,4.6199,4.6199,4.6199,4.6199,4.6199,4.6199,4.6199,4.6199,4.6199,4.6199,4.6199,4.6199,4.6199,4.6199,4.6199,4.6199,4.6199,4.6199,4.6199,4.6199,4.6199,4.6199,4.6199,4.6199,4.6199,4.6142,4.6012,4.5828,4.5803,4.6002,4.5676,4.5507,4.5509,4.538,4.5317,0.0,0.0,0.0,4.2235,4.3097,4.3606,4.4768,4.5432,4.5807,4.5807,4.5807,4.5807,4.5807,4.5807,4.5807,4.5807,4.5807,4.5807,4.5807,4.5807,4.5821,4.5893,4.5906,4.5923,4.5991,4.6005,4.6002,4.6002,4.6002,4.6002,4.6002,4.6002,4.6017,4.6036,4.6036,4.606,4.6137,4.6189,4.6199,4.6191,4.6191,4.6247,4.63,4.63,4.63,4.63,4.63,4.63,4.63,4.63,4.63,4.63,4.63,4.63,4.63,4.63,4.63,4.63,4.63,4.63,4.63,4.63,4.63,4.63,4.6296,4.6243,4.6206,4.6201,4.62,4.6199,4.6199,4.6199,4.6199,4.6199,4.6199,4.6199,4.6199,4.6199,4.6199,4.6199,4.6199,4.6199,4.6199,4.6199,4.6199,4.6199,4.6199,4.6199,4.6199,4.6199,4.6199,4.6199,4.6199,4.6199,4.6199,4.6199,4.6199,4.6199,4.6199,4.6199,4.6199,4.6126,4.6061,4.6002,4.5728,4.5603,4.5676,4.5475,4.5361,4.538,4.5319,4.5307,3.6699,0.0,0.0,0.0,0.0,4.2884,4.4613,4.52,4.5471,4.5749,4.5807,4.5807,4.5807,4.5807,4.5801,4.5867,4.5874,4.5874,4.5874,4.5848,4.5854,4.5893,4.5925,4.596,4.6008,4.6011,4.6002,4.6002,4.6002,4.6002,4.6002,4.6002,4.6002,4.6002,4.6002,4.6013,4.608,4.6112,4.6143,4.6179,4.6179,4.6208,4.6266,4.6261,4.6277,4.6277,4.6285,4.63,4.63,4.63,4.63,4.63,4.63,4.63,4.63,4.63,4.63,4.63,4.63,4.63,4.63,4.63,4.63,4.63,4.63,4.6247,4.6206,4.6206,4.6206,4.6199,4.6199,4.6199,4.6199,4.6199,4.6199,4.6199,4.6199,4.6199,4.6199,4.6199,4.6199,4.6199,4.6199,4.6199,4.6199,4.6199,4.6199,4.6199,4.6199,4.6199,4.6199,4.6199,4.6199,4.6199,4.6199,4.6199,4.6199,4.6199,4.6199,4.6199,4.6199,4.6075,4.5961,4.5902,4.5646,4.5482,4.5438,4.533,4.5307,4.5307,4.5307,4.5307,0.0,0.0,0.0,0.0,0.0,0.0,4.4891,0.0,4.4755,4.5587,4.5768,4.5768,4.5807,4.5807,4.5854,4.598,4.5997,4.5997,4.5997,4.5943,4.5893,4.5905,4.596,4.6008,4.5997,4.6002,4.6002,4.6002,4.6002,4.6002,4.6002,4.6002,4.6002,4.6002,4.6002,4.6002,4.6002,4.6002,4.6032,4.6098,4.6098,4.6137,4.6204,4.6208,4.6191,4.6191,4.6276,4.6302,4.63,4.63,4.63,4.63,4.63,4.63,4.63,4.63,4.63,4.63,4.63,4.63,4.63,4.63,4.63,4.63,4.63,4.6247,4.6206,4.6206,4.6206,4.6199,4.6199,4.6199,4.6199,4.6199,4.6199,4.6199,4.6199,4.6199,4.6199,4.6199,4.6199,4.6199,4.6199,4.6199,4.6199,4.6199,4.6199,4.6199,4.6199,4.6199,4.6199,4.6199,4.6199,4.6199,4.6199,4.6199,4.6199,4.6199,4.6196,4.6196,4.6196,4.6071,4.5896,4.5703,4.5555,4.5428,4.5307,4.5307,4.5307,4.5307,4.5307,4.5307,3.4921,0.0,0.0,0.0,0.0,0.0,0.0,0.0,4.315,4.4639,4.4929,4.5104,4.5691,4.5886,4.5964,4.5997,4.5929,4.5867,4.5867,4.588,4.5893,4.5905,4.596,4.6008,4.5997,4.6002,4.6002,0.0,4.6002,4.6002,4.6002,4.6002,4.6002,4.6002,4.6002,4.6002,4.6002,4.6002,4.6032,4.6098,4.6098,4.6137,4.6202,4.6192,4.6205,4.6191,4.6229,4.6261,4.63,4.63,4.63,4.63,4.63,4.63,4.63,4.63,4.63,4.63,4.63,4.63,4.63,4.63,4.63,4.63,4.63,4.6247,4.6206,4.6206,4.6206,4.6199,4.6199,4.6199,4.6199,4.6199,4.6199,4.6199,4.6199,4.6199,4.6199,4.6199,4.6199,4.6199,4.6199,4.6199,4.6199,4.6199,4.6199,4.6199,4.6199,4.6199,4.6199,4.6199,4.6199,4.6199,4.6199,4.6199,4.6199,4.6199,4.6102,4.6066,4.6066,4.5783,4.5615,4.5566,4.5419,4.5339,4.5307,4.5307,4.5307,4.5307,4.5307,4.5307,0.0,0.0,0.0,0.0,0.0,0.0,4.0784,4.139,4.2086,0.0,4.4594,4.4852,4.5652,4.5854,4.5923,4.5923,4.5841,4.5815,4.5886,4.5893,4.5912,4.5943,4.5978,4.6,4.5997,4.6002,4.6002,4.6002,4.6002,4.6002,4.6002,4.6002,4.6002,4.6002,4.6002,4.6002,4.6002,4.6002,4.6013,4.6067,4.6067,4.6076,4.6118,4.6145,4.6152,4.6153,4.619,4.6211,4.6268,4.6293,4.63,4.63,4.63,4.63,4.63,4.63,4.63,4.63,4.63,4.63,4.63,4.63,4.63,4.63,4.63,4.6269,4.6233,4.6209,4.6206,4.6199,4.6199,4.6199,4.6199,4.6199,4.6199,4.6199,4.6199,4.6199,4.6199,4.6199,4.6199,4.6199,4.6199,4.6199,4.6199,4.6199,4.6199,4.6199,4.6199,4.6199,4.6199,4.6199,4.6199,4.6199,4.6199,4.6199,4.6199,4.6199,4.608,4.6002,4.6002,4.5676,4.549,4.549,4.537,4.5307,4.5307,4.5307,4.5307,4.5307,4.5307,4.5307,0.0,0.0,0.0,0.0,0.0,0.0,4.0996,4.1171,4.1429,0.0,4.4246,4.4562,4.5374,4.5594,4.5652,4.5536,4.5671,4.5848,4.5968,4.5939,4.5923,4.5991,4.6,4.6002,4.6002,4.6002,4.6002,4.6002,4.6002,4.6002,4.6002,4.6002,4.6002,4.6002,4.6002,4.6002,4.6002,4.6002,4.6002,4.6002,4.6002,4.6002,4.6002,4.6052,4.6091,4.6109,4.6157,4.6184,4.6207,4.6267,4.629,4.6287,4.6302,4.63,4.63,4.63,4.63,4.63,4.63,4.63,4.63,4.63,4.63,4.63,4.63,4.6294,4.6282,4.6228,4.6203,4.6199,4.6199,4.6199,4.6199,4.6199,4.6199,4.6199,4.6199,4.6199,4.6199,4.6199,4.6199,4.6199,4.6199,4.6199,4.6199,4.6199,4.6199,4.6199,4.6199,4.6199,4.6199,4.6199,4.6199,4.6199,4.6199,4.6199,4.6199,4.6199,4.608,4.5997,4.5961,4.5669,4.5481,4.5482,4.5361,4.5307,4.5307,4.5307,4.5307,4.5307,4.5307,4.5307,3.5684,0.0,0.0,0.0,0.0,0.0,3.8715,3.9785,4.0951,0.0,4.2067,4.2763,4.3634,4.4369,4.4601,4.3904,4.4976,4.588,4.5912,4.5905,4.5923,4.5991,4.6,4.6002,4.6002,4.6002,4.6002,4.6002,4.6002,4.6002,4.6002,4.6002,4.6002,4.6002,4.6002,4.6002,4.6002,4.6002,4.6002,4.6002,4.6002,4.6002,4.6002,4.6003,4.6054,4.6102,4.6108,4.6158,4.6204,4.6216,4.6228,4.6229,4.6272,4.63,4.63,4.63,4.63,4.63,4.63,4.63,4.63,4.63,4.63,4.63,4.63,4.6294,4.6279,4.6217,4.6193,4.6199,4.6199,4.6199,4.6199,4.6199,4.6199,4.6199,4.6199,4.6199,4.6199,4.6199,4.6199,4.6199,4.6199,4.6199,4.6199,4.6199,4.6199,4.6199,4.6199,4.6199,4.6199,4.6199,4.6199,4.6199,4.6199,4.6199,4.6199,4.6199,4.608,4.5939,4.577,4.5587,4.5456,4.533,4.5309,4.5307,4.5307,4.5307,4.5307,4.5307,4.5307,4.5307,3.6229,0.0,0.0,3.815,0.0,0.0,0.0,3.9598,4.0396,4.1764,4.2028,4.2396,4.3711,4.3962,4.3962,4.3962,4.4672,4.5254,4.5254,4.5647,4.5966,4.5994,4.5991,4.6002,4.6002,4.6002,4.6002,4.6002,4.6002,4.6002,4.6002,4.6002,4.6002,4.6002,4.6002,4.6002,4.6002,4.6002,4.6002,4.6002,4.6002,4.6002,4.6002,4.6002,4.6013,4.6039,4.6084,4.6102,4.6105,4.6167,4.6183,4.6168,4.6211,4.6243,4.6242,4.6287,4.63,4.63,4.63,4.63,4.63,4.63,4.63,4.63,4.63,4.6271,4.6233,4.6201,4.62,4.6199,4.6199,4.6199,4.6199,4.6199,4.6199,4.6199,4.6199,4.6199,4.6199,4.6199,4.6199,4.6199,4.6199,4.6199,4.6199,4.6199,4.6199,4.6199,4.6199,4.6199,4.6199,4.6199,4.6199,4.6199,4.6199,4.6199,4.6199,4.6199,4.608,4.5908,4.571,4.5571,4.5438,4.5307,4.5307,4.5307,4.5307,4.5307,4.5307,4.5307,4.5307,4.5307,0.0,0.0,0.0,0.0,0.0,3.9121,0.0,0.0,0.0,4.2116,4.2105,0.0,0.0,0.0,0.0,4.3788,0.0,0.0,0.0,4.4922,0.0,4.5733,4.5763,4.5827,4.5982,4.6002,4.6002,4.6002,4.6002,4.6002,4.6002,4.6002,4.6002,4.6002,4.6002,4.6002,4.6002,4.6002,4.6002,4.6002,4.6002,4.6002,4.6002,4.6002,4.6002,4.6007,4.6067,4.6059,4.6012,4.6118,4.6131,4.6095,4.6177,4.619,4.621,4.6265,4.6276,4.627,4.627,4.6287,4.63,4.63,4.63,4.63,4.63,4.6269,4.6211,4.6211,4.6209,4.6203,4.6203,4.6199,4.6199,4.6199,4.6199,4.6199,4.6199,4.6199,4.6199,4.6199,4.6199,4.6199,4.6199,4.6199,4.6199,4.6199,4.6199,4.6199,4.6199,4.6199,4.6199,4.6199,4.6199,4.6199,4.6199,4.6199,4.6199,4.6199,4.6093,4.5942,4.5777,4.5587,4.5438,4.5307,4.5307,4.5307,4.5307,4.5307,4.5307,4.5307,4.5307,4.5307,0.0,0.0,0.0,0.0,4.064,0.0,0.0,0.0,4.1073,3.9908,0.0,0.0,0.0,0.0,0.0,0.0,0.0,0.0,4.2491,4.3141,4.3984,4.4749,4.4893,4.522,4.5924,4.6002,4.6002,4.6002,4.6002,4.6002,4.6002,4.6002,4.6002,4.6002,4.6002,4.6002,4.6002,4.6002,4.6002,4.6002,4.6002,4.6002,4.6002,4.6002,4.6002,4.6002,4.6012,4.6012,4.6002,4.6027,4.6027,4.6022,4.6155,4.6209,4.6209,4.6213,4.6206,4.621,4.621,4.6243,4.63,4.63,4.63,4.63,4.63,4.6292,4.6284,4.6284,4.6245,4.6203,4.6203,4.619,4.6199,4.6199,4.6199,4.6199,4.6199,4.6199,4.6199,4.6199,4.6199,4.6199,4.6199,4.6199,4.6199,4.6199,4.6199,4.6199,4.6199,4.6199,4.6199,4.6199,4.6199,4.6199,4.6199,4.6199,4.6199,4.6199,4.6189,4.6106,4.5966,4.5669,4.5438,4.5307,4.5307,4.5307,4.5307,4.5307,4.5307,4.5307,4.5307,4.5307,0.0,0.0,0.0,0.0,0.0,0.0,4.0064,0.0,4.0616,0.0,0.0,0.0,0.0,0.0,0.0,0.0,4.2099,0.0,0.0,0.0,4.3722,4.4605,0.0,0.0,4.5154,4.57,4.5808,4.5336,4.5749,4.5808,4.5336,4.5749,4.6002,4.6002,4.6002,4.6002,4.6002,4.6002,4.6002,4.6002,4.6002,4.6002,4.6002,4.6002,4.6002,4.6002,4.6002,4.6002,4.6002,4.6002,4.6002,4.6007,4.6052,4.6109,4.6145,4.6195,4.6202,4.6191,4.6191,4.6245,4.63,4.63,4.63,4.63,4.63,4.6294,4.6303,4.6303,4.6248,4.6206,4.6206,4.6193,4.6199,4.6199,4.6199,4.6199,4.6199,4.6199,4.6199,4.6199,4.6199,4.6199,4.6199,4.6199,4.6199,4.6199,4.6199,4.6199,4.6199,4.6199,4.6199,4.6199,4.6199,4.6199,4.6199,4.6199,4.6199,4.6199,4.6134,4.6017,4.5821,4.563,4.5438,4.5307,4.5307,4.5307,4.5307,4.5307,4.5307,4.5307,4.5307,4.5307,4.1104,0.0,0.0,0.0,0.0,0.0,0.0,0.0,0.0,0.0,0.0,0.0,0.0,0.0,0.0,0.0,0.0,4.1912,0.0,4.2267,0.0,0.0,0.0,0.0,0.0,4.4785,4.5131,4.4801,4.5336,4.5511,4.5142,4.5691,4.6002,4.6002,4.6002,4.6002,4.6002,4.6002,4.6002,4.6002,4.6002,4.6002,4.6002,4.6002,4.6002,4.6002,4.6002,4.6002,4.6002,4.6002,4.6002,4.6002,4.6002,4.6027,4.6076,4.6128,4.6156,4.6183,4.6188,4.6248,4.63,4.63,4.63,4.63,4.63,4.6296,4.631,4.631,4.6253,4.6192,4.6215,4.6219,4.6199,4.6203,4.6203,4.6199,4.6199,4.6199,4.6199,4.6199,4.6199,4.6199,4.6199,4.6199,4.6199,4.6199,4.6199,4.6199,4.6199,4.6199,4.6199,4.6199,4.6199,4.6199,4.6199,4.6199,4.6199,4.6199,4.6102,4.5977,4.579,4.5642,4.5481,4.5361,4.5319,4.5307,4.5307,4.5307,4.5307,4.5307,4.5307,4.5307,0.0,0.0,0.0,4.1892,0.0,0.0,0.0,0.0,4.1075,0.0,0.0,0.0,0.0,0.0,0.0,0.0,0.0,0.0,0.0,0.0,0.0,0.0,0.0,0.0,0.0,4.2973,4.3823,4.4633,4.4796,4.5161,4.5924,4.5982,4.6002,4.6002,4.6002,4.6002,4.6002,4.6002,4.6002,4.6002,4.6002,4.6002,4.6002,4.6002,4.6002,4.6002,4.6002,4.6002,4.6002,4.6002,4.6002,4.6002,4.6002,4.6002,4.6007,4.6007,4.6054,4.6115,4.6171,4.625,4.63,4.63,4.63,4.63,4.63,4.63,4.63,4.63,4.6245,4.6209,4.6282,4.6254,4.6203,4.62,4.619,4.6199,4.6199,4.6199,4.6199,4.6199,4.6199,4.6199,4.6199,4.6199,4.6199,4.6199,4.6199,4.6199,4.6199,4.6199,4.6199,4.6199,4.6199,4.6199,4.6199,4.6199,4.6199,4.6199,4.6196,4.6138,4.6002,4.5796,4.5623,4.5509,4.537,4.5307,4.5307,4.5307,4.5307,4.5307,4.5307,4.5307,4.144,4.1105,4.0781,4.1674,0.0,0.0,0.0,0.0,0.0,0.0,0.0,0.0,0.0,0.0,0.0,0.0,0.0,0.0,0.0,0.0,0.0,0.0,0.0,0.0,0.0,0.0,4.4148,4.3862,4.4937,0.0,4.522,4.571,4.6002,4.6002,4.6002,4.6002,4.6002,4.6002,4.6002,4.6002,4.6002,4.6002,4.6002,4.6002,4.6002,4.6002,4.6002,4.6002,4.6002,4.6002,4.6002,4.6002,4.6002,4.6002,4.6002,4.6002,4.6046,4.6118,4.6177,4.6211,4.6245,4.6288,4.63,4.63,4.63,4.63,4.63,4.6292,4.624,4.6206,4.622,4.6219,4.6203,4.62,4.619,4.6203,4.6193,4.6206,4.6199,4.6199,4.6199,4.6199,4.6199,4.6199,4.6199,4.6199,4.6199,4.6199,4.6199,4.6199,4.6199,4.6199,4.6199,4.6199,4.6199,4.6199,4.6199,4.6199,4.6199,4.6142,4.6007,4.5803,4.563,4.5498,4.537,4.5307,4.5307,4.5307,4.5307,4.5307,4.5307,4.5307,4.0212,4.0157,4.0144,4.1073,4.0609,0.0,4.0672,0.0,4.1323,0.0,0.0,0.0,0.0,0.0,0.0,0.0,0.0,0.0,0.0,3.9517,0.0,0.0,0.0,0.0,0.0,0.0,4.3336,4.34,4.4461,0.0,0.0,4.573,4.6002,4.6002,4.6002,4.6002,4.6002,4.573,4.5574,4.5574,4.5258,4.5103,4.5122,4.5433,4.5574,4.5594,4.5885,4.6002,4.6002,4.6002,4.6002,4.6002,4.6002,4.6002,4.6002,4.6002,4.6046,4.6112,4.6144,4.6182,4.6209,4.6245,4.6258,4.6276,4.6285,4.63,4.63,4.6292,4.6262,4.6231,4.6242,4.6225,4.619,4.6203,4.619,4.6203,4.62,4.619,4.6199,4.6206,4.6203,4.6199,4.6199,4.6199,4.6199,4.6199,4.6199,4.6199,4.6199,4.6199,4.6199,4.6199,4.6199,4.6199,4.6199,4.6199,4.6199,4.6199,4.6199,4.6154,4.608,4.5889,4.5776,4.5684,4.5526,4.541,4.538,4.538,4.5341,4.5307,4.5307,4.5307]}]]